<?xml version='1.0' encoding='UTF-8'?><gpx version="1.1" creator="JPX - https://github.com/jenetics/jpx" xmlns="http://www.topografix.com/GPX/1/1"><trk><trkseg><trkpt lat="44.89327152377727" lon="6.645356584678734"><ele>1343.0</ele><time>2026-05-02T14:47:11Z</time></trkpt><trkpt lat="44.89317614738823" lon="6.645394178167215"><ele>1343.0</ele><time>2026-05-02T14:47:13Z</time></trkpt><trkpt lat="44.89305373669748" lon="6.645432054237496"><ele>1343.0</ele><time>2026-05-02T14:47:15Z</time></trkpt><trkpt lat="44.89298423724829" lon="6.645426593349498"><ele>1343.0</ele><time>2026-05-02T14:47:16Z</time></trkpt><trkpt lat="44.89292022010156" lon="6.645417841089678"><ele>1343.0</ele><time>2026-05-02T14:47:17Z</time></trkpt><trkpt lat="44.8928558092926" lon="6.645400979067994"><ele>1343.0</ele><time>2026-05-02T14:47:18Z</time></trkpt><trkpt lat="44.89280600167607" lon="6.645334705952392"><ele>1343.0</ele><time>2026-05-02T14:47:19Z</time></trkpt><trkpt lat="44.8927204482378" lon="6.645339237752189"><ele>1343.0</ele><time>2026-05-02T14:47:21Z</time></trkpt><trkpt lat="44.892653831150156" lon="6.645342751519678"><ele>1343.0</ele><time>2026-05-02T14:47:24Z</time></trkpt><trkpt lat="44.89260394064625" lon="6.6455774586705925"><ele>1343.0</ele><time>2026-05-02T14:47:27Z</time></trkpt><trkpt lat="44.892572221327754" lon="6.645680590467431"><ele>1343.0</ele><time>2026-05-02T14:47:28Z</time></trkpt><trkpt lat="44.89249613696428" lon="6.645769006746689"><ele>1340.8333333333335</ele><time>2026-05-02T14:47:29Z</time></trkpt><trkpt lat="44.892439965650944" lon="6.645860242611232"><ele>1338.6666666666667</ele><time>2026-05-02T14:47:30Z</time></trkpt><trkpt lat="44.89237392214702" lon="6.645931987577168"><ele>1336.5</ele><time>2026-05-02T14:47:31Z</time></trkpt><trkpt lat="44.89229231738397" lon="6.645973774220471"><ele>1334.3333333333333</ele><time>2026-05-02T14:47:32Z</time></trkpt><trkpt lat="44.89220868313643" lon="6.645991071782515"><ele>1332.1666666666665</ele><time>2026-05-02T14:47:33Z</time></trkpt><trkpt lat="44.89211699670643" lon="6.646025140293015"><ele>1330.0</ele><time>2026-05-02T14:47:34Z</time></trkpt><trkpt lat="44.89203737007139" lon="6.646093062743508"><ele>1332.8</ele><time>2026-05-02T14:47:35Z</time></trkpt><trkpt lat="44.891980942667416" lon="6.64618264477691"><ele>1335.6</ele><time>2026-05-02T14:47:36Z</time></trkpt><trkpt lat="44.89193473725277" lon="6.646283742088529"><ele>1338.4</ele><time>2026-05-02T14:47:37Z</time></trkpt><trkpt lat="44.891913208154385" lon="6.646420216945219"><ele>1341.2</ele><time>2026-05-02T14:47:38Z</time></trkpt><trkpt lat="44.89188410028314" lon="6.646547038921547"><ele>1344.0</ele><time>2026-05-02T14:47:39Z</time></trkpt><trkpt lat="44.89183220097476" lon="6.646649244913194"><ele>1344.0</ele><time>2026-05-02T14:47:40Z</time></trkpt><trkpt lat="44.8917584508178" lon="6.646722883819088"><ele>1344.0</ele><time>2026-05-02T14:47:41Z</time></trkpt><trkpt lat="44.89167145240049" lon="6.646747861702359"><ele>1344.0</ele><time>2026-05-02T14:47:42Z</time></trkpt><trkpt lat="44.891595233352895" lon="6.646791571512114"><ele>1344.0</ele><time>2026-05-02T14:47:43Z</time></trkpt><trkpt lat="44.891516203127864" lon="6.646851080159523"><ele>1344.0</ele><time>2026-05-02T14:47:44Z</time></trkpt><trkpt lat="44.89143446827868" lon="6.646899690841238"><ele>1344.0</ele><time>2026-05-02T14:47:45Z</time></trkpt><trkpt lat="44.891265705520226" lon="6.646959325240575"><ele>1343.0</ele><time>2026-05-02T14:47:47Z</time></trkpt><trkpt lat="44.89117042773886" lon="6.646956616270056"><ele>1342.0</ele><time>2026-05-02T14:47:48.001Z</time></trkpt><trkpt lat="44.89106658565927" lon="6.64695732376082"><ele>1341.0</ele><time>2026-05-02T14:47:49.001Z</time></trkpt><trkpt lat="44.890947311505094" lon="6.646964241628569"><ele>1340.0</ele><time>2026-05-02T14:47:50.001Z</time></trkpt><trkpt lat="44.89082492955223" lon="6.646955376522512"><ele>1339.0</ele><time>2026-05-02T14:47:51.001Z</time></trkpt><trkpt lat="44.89070645283513" lon="6.646950991846913"><ele>1341.5</ele><time>2026-05-02T14:47:52.001Z</time></trkpt><trkpt lat="44.89059326498616" lon="6.646999862235064"><ele>1344.0</ele><time>2026-05-02T14:47:53.001Z</time></trkpt><trkpt lat="44.89049972487387" lon="6.647094832314744"><ele>1346.5</ele><time>2026-05-02T14:47:54.001Z</time></trkpt><trkpt lat="44.89042511077244" lon="6.647225226632445"><ele>1349.0</ele><time>2026-05-02T14:47:55.001Z</time></trkpt><trkpt lat="44.89036514947836" lon="6.647373006397539"><ele>1349.0</ele><time>2026-05-02T14:47:56.001Z</time></trkpt><trkpt lat="44.8902844911203" lon="6.647490709549866"><ele>1349.0</ele><time>2026-05-02T14:47:57.001Z</time></trkpt><trkpt lat="44.890205139174206" lon="6.647594326344728"><ele>1349.0</ele><time>2026-05-02T14:47:58.001Z</time></trkpt><trkpt lat="44.89011578880043" lon="6.647670391902087"><ele>1349.0</ele><time>2026-05-02T14:47:59.001Z</time></trkpt><trkpt lat="44.89002205246918" lon="6.647752241965878"><ele>1349.0</ele><time>2026-05-02T14:48:00.001Z</time></trkpt><trkpt lat="44.88990452607751" lon="6.647733363679028"><ele>1348.25</ele><time>2026-05-02T14:48:01.001Z</time></trkpt><trkpt lat="44.88978686971512" lon="6.647718692911935"><ele>1347.5</ele><time>2026-05-02T14:48:02.001Z</time></trkpt><trkpt lat="44.88966549421349" lon="6.647703660546007"><ele>1346.75</ele><time>2026-05-02T14:48:03.001Z</time></trkpt><trkpt lat="44.88954115328019" lon="6.647641103553367"><ele>1346.0</ele><time>2026-05-02T14:48:04.001Z</time></trkpt><trkpt lat="44.88942443090155" lon="6.647580395652808"><ele>1346.0</ele><time>2026-05-02T14:48:05.001Z</time></trkpt><trkpt lat="44.88931960317084" lon="6.647537376794466"><ele>1346.0</ele><time>2026-05-02T14:48:06.001Z</time></trkpt><trkpt lat="44.88921474202973" lon="6.647551002271993"><ele>1346.0</ele><time>2026-05-02T14:48:07.001Z</time></trkpt><trkpt lat="44.889103307368906" lon="6.647600316400576"><ele>1346.0</ele><time>2026-05-02T14:48:08.001Z</time></trkpt><trkpt lat="44.88897846936243" lon="6.647630581900895"><ele>1347.5</ele><time>2026-05-02T14:48:09.001Z</time></trkpt><trkpt lat="44.88884754058636" lon="6.647673198277821"><ele>1349.0</ele><time>2026-05-02T14:48:10.001Z</time></trkpt><trkpt lat="44.888723657313804" lon="6.6477217434043965"><ele>1350.5</ele><time>2026-05-02T14:48:11.001Z</time></trkpt><trkpt lat="44.888602930802655" lon="6.647748238919149"><ele>1352.0</ele><time>2026-05-02T14:48:12.001Z</time></trkpt><trkpt lat="44.8884824955495" lon="6.647758905243451"><ele>1353.0</ele><time>2026-05-02T14:48:13.001Z</time></trkpt><trkpt lat="44.88834531527022" lon="6.647754793439201"><ele>1354.0</ele><time>2026-05-02T14:48:14.001Z</time></trkpt><trkpt lat="44.88820037188258" lon="6.647745285780956"><ele>1355.0</ele><time>2026-05-02T14:48:15.001Z</time></trkpt><trkpt lat="44.88804304066864" lon="6.647740018010062"><ele>1356.0</ele><time>2026-05-02T14:48:16.001Z</time></trkpt><trkpt lat="44.88784682770053" lon="6.647768381737839"><ele>1361.6666666666667</ele><time>2026-05-02T14:48:17.001Z</time></trkpt><trkpt lat="44.88764636824565" lon="6.647808045834162"><ele>1367.3333333333335</ele><time>2026-05-02T14:48:18.001Z</time></trkpt><trkpt lat="44.88744628783565" lon="6.647866561649562"><ele>1373.0</ele><time>2026-05-02T14:48:19.001Z</time></trkpt><trkpt lat="44.88727701832344" lon="6.647902292934091"><ele>1373.0</ele><time>2026-05-02T14:48:20.001Z</time></trkpt><trkpt lat="44.887137068841554" lon="6.647954651682333"><ele>1373.0</ele><time>2026-05-02T14:48:21.001Z</time></trkpt><trkpt lat="44.88701220252715" lon="6.64803014519933"><ele>1373.0</ele><time>2026-05-02T14:48:22.001Z</time></trkpt><trkpt lat="44.88690304112828" lon="6.648092931936147"><ele>1373.0</ele><time>2026-05-02T14:48:23.001Z</time></trkpt><trkpt lat="44.8868032450259" lon="6.648142682067678"><ele>1372.0</ele><time>2026-05-02T14:48:24.001Z</time></trkpt><trkpt lat="44.886718491693216" lon="6.6481877238905085"><ele>1371.0</ele><time>2026-05-02T14:48:25.001Z</time></trkpt><trkpt lat="44.886644164247606" lon="6.6482250444585596"><ele>1370.0</ele><time>2026-05-02T14:48:26.001Z</time></trkpt><trkpt lat="44.88658063901017" lon="6.648273532603591"><ele>1369.0</ele><time>2026-05-02T14:48:27.001Z</time></trkpt><trkpt lat="44.88652337822467" lon="6.648322295636692"><ele>1368.0</ele><time>2026-05-02T14:48:28.001Z</time></trkpt><trkpt lat="44.88646660382453" lon="6.648364267196003"><ele>1367.0</ele><time>2026-05-02T14:48:29.001Z</time></trkpt><trkpt lat="44.8864133525368" lon="6.6485328994155095"><ele>1367.0</ele><time>2026-05-02T14:48:31.001Z</time></trkpt><trkpt lat="44.88644433827538" lon="6.648632653389978"><ele>1367.0</ele><time>2026-05-02T14:48:32.001Z</time></trkpt><trkpt lat="44.88638357852243" lon="6.6486890185430525"><ele>1367.0</ele><time>2026-05-02T14:48:33.001Z</time></trkpt><trkpt lat="44.88632254889018" lon="6.648761724718795"><ele>1367.0</ele><time>2026-05-02T14:48:36.001Z</time></trkpt><trkpt lat="44.886249503548974" lon="6.648682008141176"><ele>1367.0</ele><time>2026-05-02T14:48:39.001Z</time></trkpt><trkpt lat="44.88623215251268" lon="6.648565133444758"><ele>1367.0</ele><time>2026-05-02T14:48:41.001Z</time></trkpt><trkpt lat="44.88627107651681" lon="6.6484246570095795"><ele>1367.0</ele><time>2026-05-02T14:48:43.001Z</time></trkpt><trkpt lat="44.88630714700472" lon="6.648290531537639"><ele>1367.0</ele><time>2026-05-02T14:48:45.001Z</time></trkpt><trkpt lat="44.886334743100036" lon="6.648165635281565"><ele>1367.0</ele><time>2026-05-02T14:48:47.001Z</time></trkpt><trkpt lat="44.886327370500034" lon="6.648034109166058"><ele>1367.0</ele><time>2026-05-02T14:48:49.001Z</time></trkpt><trkpt lat="44.88630193942442" lon="6.647882561907923"><ele>1367.0</ele><time>2026-05-02T14:48:51.001Z</time></trkpt><trkpt lat="44.886278145281224" lon="6.647762002991041"><ele>1363.6</ele><time>2026-05-02T14:48:53.001Z</time></trkpt><trkpt lat="44.88626355662455" lon="6.647635072117582"><ele>1360.1999999999998</ele><time>2026-05-02T14:48:54.999Z</time></trkpt><trkpt lat="44.88623418955841" lon="6.64753132928309"><ele>1356.8</ele><time>2026-05-02T14:48:56.999Z</time></trkpt><trkpt lat="44.88617120634455" lon="6.647408009450635"><ele>1353.4</ele><time>2026-05-02T14:48:58.999Z</time></trkpt><trkpt lat="44.886105179075734" lon="6.647278642506571"><ele>1350.0</ele><time>2026-05-02T14:49:00.999Z</time></trkpt><trkpt lat="44.88603810364413" lon="6.6471603094864475"><ele>1350.0</ele><time>2026-05-02T14:49:02.999Z</time></trkpt><trkpt lat="44.88595944200935" lon="6.647037227298416"><ele>1350.0</ele><time>2026-05-02T14:49:04.999Z</time></trkpt><trkpt lat="44.88592145678584" lon="6.646958656330989"><ele>1350.0</ele><time>2026-05-02T14:49:05.999Z</time></trkpt><trkpt lat="44.88588972884763" lon="6.646875106464078"><ele>1350.0</ele><time>2026-05-02T14:49:06.999Z</time></trkpt><trkpt lat="44.885853722539416" lon="6.646790076079659"><ele>1350.0</ele><time>2026-05-02T14:49:07.999Z</time></trkpt><trkpt lat="44.88580110669102" lon="6.6466531056648135"><ele>1350.0</ele><time>2026-05-02T14:49:10Z</time></trkpt><trkpt lat="44.88575731267933" lon="6.646514306724804"><ele>1345.2</ele><time>2026-05-02T14:49:12Z</time></trkpt><trkpt lat="44.885718728359606" lon="6.646356891775002"><ele>1340.4</ele><time>2026-05-02T14:49:14Z</time></trkpt><trkpt lat="44.88571599996516" lon="6.646264765259069"><ele>1335.6</ele><time>2026-05-02T14:49:15Z</time></trkpt><trkpt lat="44.88571790778" lon="6.646101732582206"><ele>1330.8</ele><time>2026-05-02T14:49:17Z</time></trkpt><trkpt lat="44.88572802769968" lon="6.645964005671458"><ele>1326.0</ele><time>2026-05-02T14:49:19Z</time></trkpt><trkpt lat="44.88571933711487" lon="6.645871228710307"><ele>1326.0</ele><time>2026-05-02T14:49:21Z</time></trkpt><trkpt lat="44.885654879091355" lon="6.645898801753204"><ele>1326.0</ele><time>2026-05-02T14:49:25Z</time></trkpt><trkpt lat="44.885642683972684" lon="6.645994624651086"><ele>1326.0</ele><time>2026-05-02T14:49:27Z</time></trkpt><trkpt lat="44.885626571576296" lon="6.646141782138212"><ele>1326.0</ele><time>2026-05-02T14:49:29Z</time></trkpt><trkpt lat="44.885570084256194" lon="6.6462747104241755"><ele>1326.0</ele><time>2026-05-02T14:49:31Z</time></trkpt><trkpt lat="44.88551689132824" lon="6.646385110607889"><ele>1326.0</ele><time>2026-05-02T14:49:33Z</time></trkpt><trkpt lat="44.885467194184045" lon="6.646487311738236"><ele>1326.0</ele><time>2026-05-02T14:49:35Z</time></trkpt><trkpt lat="44.885474595278396" lon="6.6466386354924065"><ele>1326.0</ele><time>2026-05-02T14:49:37Z</time></trkpt><trkpt lat="44.88548973052028" lon="6.646797274716235"><ele>1326.0</ele><time>2026-05-02T14:49:39Z</time></trkpt><trkpt lat="44.88544237552618" lon="6.646962284101106"><ele>1326.0</ele><time>2026-05-02T14:49:41Z</time></trkpt><trkpt lat="44.885431967252146" lon="6.647069415415072"><ele>1326.0</ele><time>2026-05-02T14:49:42Z</time></trkpt><trkpt lat="44.8854270577789" lon="6.647180150886528"><ele>1326.6666666666667</ele><time>2026-05-02T14:49:43Z</time></trkpt><trkpt lat="44.88541816667738" lon="6.647300313513001"><ele>1327.3333333333333</ele><time>2026-05-02T14:49:44Z</time></trkpt><trkpt lat="44.8854023910468" lon="6.64741886215645"><ele>1328.0</ele><time>2026-05-02T14:49:45Z</time></trkpt><trkpt lat="44.885382511216896" lon="6.647512391698803"><ele>1328.6666666666665</ele><time>2026-05-02T14:49:46Z</time></trkpt><trkpt lat="44.885355834499094" lon="6.6476034787584855"><ele>1329.3333333333333</ele><time>2026-05-02T14:49:47.001Z</time></trkpt><trkpt lat="44.8853189448564" lon="6.6476901747049455"><ele>1330.0</ele><time>2026-05-02T14:49:48.001Z</time></trkpt><trkpt lat="44.88527697222181" lon="6.647780750924381"><ele>1332.0</ele><time>2026-05-02T14:49:49.001Z</time></trkpt><trkpt lat="44.88522659493837" lon="6.647888980597335"><ele>1334.0</ele><time>2026-05-02T14:49:50.001Z</time></trkpt><trkpt lat="44.88517234634448" lon="6.647974804919994"><ele>1336.0</ele><time>2026-05-02T14:49:51.001Z</time></trkpt><trkpt lat="44.88512220513132" lon="6.648058979100368"><ele>1338.0</ele><time>2026-05-02T14:49:52.001Z</time></trkpt><trkpt lat="44.88508046156568" lon="6.648139368345231"><ele>1340.0</ele><time>2026-05-02T14:49:53.001Z</time></trkpt><trkpt lat="44.88503724197057" lon="6.648234292674534"><ele>1342.0</ele><time>2026-05-02T14:49:54.001Z</time></trkpt><trkpt lat="44.88499177005161" lon="6.648296673208825"><ele>1338.5</ele><time>2026-05-02T14:49:55.001Z</time></trkpt><trkpt lat="44.88493438035491" lon="6.648358393105537"><ele>1335.0</ele><time>2026-05-02T14:49:56.001Z</time></trkpt><trkpt lat="44.88487798741093" lon="6.648412126363168"><ele>1331.5</ele><time>2026-05-02T14:49:57.001Z</time></trkpt><trkpt lat="44.884821227406825" lon="6.648464541930674"><ele>1328.0</ele><time>2026-05-02T14:49:58.001Z</time></trkpt><trkpt lat="44.884730572399874" lon="6.648566158610516"><ele>1324.5</ele><time>2026-05-02T14:50:00.001Z</time></trkpt><trkpt lat="44.88467590476153" lon="6.648622968633777"><ele>1321.0</ele><time>2026-05-02T14:50:01.001Z</time></trkpt><trkpt lat="44.88461324368911" lon="6.648704892229671"><ele>1321.0</ele><time>2026-05-02T14:50:02.001Z</time></trkpt><trkpt lat="44.88456275871646" lon="6.648778651586751"><ele>1321.0</ele><time>2026-05-02T14:50:03.001Z</time></trkpt><trkpt lat="44.8845008463722" lon="6.6488740634639685"><ele>1321.0</ele><time>2026-05-02T14:50:04.001Z</time></trkpt><trkpt lat="44.884449834520545" lon="6.648957345261026"><ele>1321.0</ele><time>2026-05-02T14:50:05.001Z</time></trkpt><trkpt lat="44.88437207011591" lon="6.649050164231613"><ele>1321.0</ele><time>2026-05-02T14:50:07.001Z</time></trkpt><trkpt lat="44.88426745996159" lon="6.649113453600247"><ele>1314.1999999999998</ele><time>2026-05-02T14:50:09.001Z</time></trkpt><trkpt lat="44.884199004420736" lon="6.649144401965156"><ele>1307.3999999999999</ele><time>2026-05-02T14:50:10.001Z</time></trkpt><trkpt lat="44.884088628766314" lon="6.6491967149520255"><ele>1300.6</ele><time>2026-05-02T14:50:12.001Z</time></trkpt><trkpt lat="44.88399442638744" lon="6.649245665090562"><ele>1293.8</ele><time>2026-05-02T14:50:14.001Z</time></trkpt><trkpt lat="44.88391673110843" lon="6.649300602295774"><ele>1287.0</ele><time>2026-05-02T14:50:16.001Z</time></trkpt><trkpt lat="44.88385819840417" lon="6.649369438265127"><ele>1287.0</ele><time>2026-05-02T14:50:18.001Z</time></trkpt><trkpt lat="44.883811301571875" lon="6.6494577214180035"><ele>1287.0</ele><time>2026-05-02T14:50:20.001Z</time></trkpt><trkpt lat="44.88379321476053" lon="6.649590009089817"><ele>1287.0</ele><time>2026-05-02T14:50:23.001Z</time></trkpt><trkpt lat="44.88376509248393" lon="6.649673660205921"><ele>1287.0</ele><time>2026-05-02T14:50:26.001Z</time></trkpt><trkpt lat="44.883711694615236" lon="6.649619299664609"><ele>1287.0</ele><time>2026-05-02T14:50:30.001Z</time></trkpt><trkpt lat="44.883692706397426" lon="6.649526179122445"><ele>1287.0</ele><time>2026-05-02T14:50:32.001Z</time></trkpt><trkpt lat="44.88368419860833" lon="6.649403961971561"><ele>1287.0</ele><time>2026-05-02T14:50:35.001Z</time></trkpt><trkpt lat="44.883675855952546" lon="6.649272907051641"><ele>1287.0</ele><time>2026-05-02T14:50:37.001Z</time></trkpt><trkpt lat="44.8836877264247" lon="6.6491405757421544"><ele>1287.0</ele><time>2026-05-02T14:50:39.001Z</time></trkpt><trkpt lat="44.883721983047735" lon="6.649015729837141"><ele>1287.0</ele><time>2026-05-02T14:50:41.001Z</time></trkpt><trkpt lat="44.88376715301385" lon="6.64888370283493"><ele>1287.0</ele><time>2026-05-02T14:50:43.001Z</time></trkpt><trkpt lat="44.88384586294852" lon="6.648827014995583"><ele>1287.0</ele><time>2026-05-02T14:50:45.002Z</time></trkpt><trkpt lat="44.88394547095109" lon="6.648780123855546"><ele>1287.0</ele><time>2026-05-02T14:50:47.002Z</time></trkpt><trkpt lat="44.88399218313234" lon="6.648720471014219"><ele>1287.0</ele><time>2026-05-02T14:50:48.002Z</time></trkpt><trkpt lat="44.88404628759774" lon="6.648601560872545"><ele>1287.0</ele><time>2026-05-02T14:50:50.002Z</time></trkpt><trkpt lat="44.884123267824144" lon="6.648446836439923"><ele>1287.0</ele><time>2026-05-02T14:50:52.002Z</time></trkpt><trkpt lat="44.8841611605685" lon="6.648365228083532"><ele>1283.75</ele><time>2026-05-02T14:50:53.002Z</time></trkpt><trkpt lat="44.88421321115085" lon="6.6482283152113695"><ele>1280.5</ele><time>2026-05-02T14:50:55.002Z</time></trkpt><trkpt lat="44.88430389547208" lon="6.648097020594257"><ele>1277.25</ele><time>2026-05-02T14:50:57.002Z</time></trkpt><trkpt lat="44.88438766926403" lon="6.647993108319596"><ele>1274.0</ele><time>2026-05-02T14:50:59.002Z</time></trkpt><trkpt lat="44.88443094341922" lon="6.647847150812179"><ele>1272.3333333333335</ele><time>2026-05-02T14:51:01Z</time></trkpt><trkpt lat="44.88444847598302" lon="6.647734451066211"><ele>1270.6666666666667</ele><time>2026-05-02T14:51:03Z</time></trkpt><trkpt lat="44.88438179897786" lon="6.6477273032816"><ele>1269.0</ele><time>2026-05-02T14:51:29Z</time></trkpt><trkpt lat="44.884316667085464" lon="6.647723617914614"><ele>1267.3333333333333</ele><time>2026-05-02T14:51:31Z</time></trkpt><trkpt lat="44.88425323724324" lon="6.647655909802539"><ele>1265.6666666666665</ele><time>2026-05-02T14:51:33Z</time></trkpt><trkpt lat="44.884188336281404" lon="6.647568434641063"><ele>1264.0</ele><time>2026-05-02T14:51:36Z</time></trkpt><trkpt lat="44.884165043854246" lon="6.647458174796316"><ele>1264.0</ele><time>2026-05-02T14:51:38Z</time></trkpt><trkpt lat="44.884175005295994" lon="6.647299931548943"><ele>1264.0</ele><time>2026-05-02T14:51:40.001Z</time></trkpt><trkpt lat="44.88415608966742" lon="6.647211742130412"><ele>1264.0</ele><time>2026-05-02T14:51:41.001Z</time></trkpt><trkpt lat="44.8841558249136" lon="6.647041538285759"><ele>1264.0</ele><time>2026-05-02T14:51:43.001Z</time></trkpt><trkpt lat="44.88414319836181" lon="6.6468721084019"><ele>1264.0</ele><time>2026-05-02T14:51:45.001Z</time></trkpt><trkpt lat="44.88413590948085" lon="6.6467810091367046"><ele>1264.0</ele><time>2026-05-02T14:51:46.001Z</time></trkpt><trkpt lat="44.88412180980453" lon="6.646615499956885"><ele>1264.0</ele><time>2026-05-02T14:51:48.001Z</time></trkpt><trkpt lat="44.884104067642056" lon="6.6464932784025095"><ele>1264.0</ele><time>2026-05-02T14:51:50.001Z</time></trkpt><trkpt lat="44.88414123699092" lon="6.646377849810976"><ele>1264.0</ele><time>2026-05-02T14:51:52.001Z</time></trkpt><trkpt lat="44.88420740079714" lon="6.646261456280851"><ele>1264.0</ele><time>2026-05-02T14:51:54.001Z</time></trkpt><trkpt lat="44.884261458757216" lon="6.646122413160138"><ele>1262.8</ele><time>2026-05-02T14:51:56.001Z</time></trkpt><trkpt lat="44.884263048025566" lon="6.64596797371686"><ele>1261.6000000000001</ele><time>2026-05-02T14:51:59.001Z</time></trkpt><trkpt lat="44.884275035577744" lon="6.645798042916542"><ele>1260.4</ele><time>2026-05-02T14:52:01.001Z</time></trkpt><trkpt lat="44.88428698685201" lon="6.645668117501404"><ele>1259.2</ele><time>2026-05-02T14:52:03.001Z</time></trkpt><trkpt lat="44.88431383549675" lon="6.645582486182121"><ele>1258.0</ele><time>2026-05-02T14:52:05.001Z</time></trkpt><trkpt lat="44.884325628185465" lon="6.645470866642249"><ele>1262.0</ele><time>2026-05-02T14:52:07.001Z</time></trkpt><trkpt lat="44.884338396708586" lon="6.64535862227634"><ele>1266.0</ele><time>2026-05-02T14:52:09.001Z</time></trkpt><trkpt lat="44.88431266610378" lon="6.645260495401036"><ele>1270.0</ele><time>2026-05-02T14:52:11.001Z</time></trkpt><trkpt lat="44.88430496999953" lon="6.645150259180179"><ele>1274.0</ele><time>2026-05-02T14:52:14.001Z</time></trkpt><trkpt lat="44.88435014955934" lon="6.645036105576315"><ele>1278.0</ele><time>2026-05-02T14:52:16.001Z</time></trkpt><trkpt lat="44.884389957482554" lon="6.644937891843298"><ele>1282.0</ele><time>2026-05-02T14:52:18.001Z</time></trkpt><trkpt lat="44.884384019852355" lon="6.64482699767602"><ele>1282.0</ele><time>2026-05-02T14:52:21.001Z</time></trkpt><trkpt lat="44.88436899437091" lon="6.644722598950795"><ele>1282.0</ele><time>2026-05-02T14:52:24.001Z</time></trkpt><trkpt lat="44.88433149281514" lon="6.644641827706484"><ele>1282.0</ele><time>2026-05-02T14:52:27.001Z</time></trkpt><trkpt lat="44.88432581129189" lon="6.644545644084176"><ele>1282.0</ele><time>2026-05-02T14:52:30.001Z</time></trkpt><trkpt lat="44.884264594573274" lon="6.644590177233396"><ele>1282.0</ele><time>2026-05-02T14:52:33.001Z</time></trkpt><trkpt lat="44.88419723878682" lon="6.644612264525721"><ele>1282.0</ele><time>2026-05-02T14:52:35.001Z</time></trkpt><trkpt lat="44.884124250261344" lon="6.644564321317877"><ele>1282.0</ele><time>2026-05-02T14:52:38.001Z</time></trkpt><trkpt lat="44.88405416333317" lon="6.644572160444925"><ele>1274.75</ele><time>2026-05-02T14:52:41.002Z</time></trkpt><trkpt lat="44.88401659731195" lon="6.644769960883972"><ele>1267.5</ele><time>2026-05-02T14:53:57.001Z</time></trkpt><trkpt lat="44.88401135971453" lon="6.6448875825645555"><ele>1260.25</ele><time>2026-05-02T14:53:58.001Z</time></trkpt><trkpt lat="44.88399931614811" lon="6.645051190260248"><ele>1253.0</ele><time>2026-05-02T14:53:59.001Z</time></trkpt><trkpt lat="44.88397880968011" lon="6.645214987391642"><ele>1253.8333333333335</ele><time>2026-05-02T14:54:00.001Z</time></trkpt><trkpt lat="44.883968366721724" lon="6.6453476422915525"><ele>1254.6666666666667</ele><time>2026-05-02T14:54:01.001Z</time></trkpt><trkpt lat="44.88395503634366" lon="6.645464293738689"><ele>1255.5</ele><time>2026-05-02T14:54:02.001Z</time></trkpt><trkpt lat="44.88394948425908" lon="6.645567740376052"><ele>1256.3333333333333</ele><time>2026-05-02T14:54:03.001Z</time></trkpt><trkpt lat="44.8839360233124" lon="6.645664680015474"><ele>1257.1666666666665</ele><time>2026-05-02T14:54:04.001Z</time></trkpt><trkpt lat="44.88391347122205" lon="6.6458338040225335"><ele>1258.0</ele><time>2026-05-02T14:54:06.001Z</time></trkpt><trkpt lat="44.883901607209246" lon="6.64592836605201"><ele>1258.0</ele><time>2026-05-02T14:54:07.001Z</time></trkpt><trkpt lat="44.88389065070706" lon="6.64602984970304"><ele>1258.0</ele><time>2026-05-02T14:54:08.001Z</time></trkpt><trkpt lat="44.88387583892445" lon="6.646140760451292"><ele>1258.0</ele><time>2026-05-02T14:54:09.001Z</time></trkpt><trkpt lat="44.883853394419674" lon="6.646271861506254"><ele>1258.0</ele><time>2026-05-02T14:54:10.001Z</time></trkpt><trkpt lat="44.883815318732765" lon="6.646432579227535"><ele>1258.0</ele><time>2026-05-02T14:54:11.001Z</time></trkpt><trkpt lat="44.88376996606203" lon="6.646585554277625"><ele>1259.2</ele><time>2026-05-02T14:54:12.001Z</time></trkpt><trkpt lat="44.883733180878195" lon="6.646722372133478"><ele>1260.4</ele><time>2026-05-02T14:54:13.001Z</time></trkpt><trkpt lat="44.88372086278035" lon="6.646869417473856"><ele>1261.6000000000001</ele><time>2026-05-02T14:54:14.001Z</time></trkpt><trkpt lat="44.88372531681928" lon="6.647033121212002"><ele>1262.8</ele><time>2026-05-02T14:54:15.001Z</time></trkpt><trkpt lat="44.88373680691791" lon="6.647169394209939"><ele>1264.0</ele><time>2026-05-02T14:54:16.001Z</time></trkpt><trkpt lat="44.88376125403427" lon="6.6472635944045955"><ele>1264.0</ele><time>2026-05-02T14:54:17.001Z</time></trkpt><trkpt lat="44.88380160254642" lon="6.647352305241239"><ele>1264.0</ele><time>2026-05-02T14:54:18.001Z</time></trkpt><trkpt lat="44.88383092225789" lon="6.647533176005078"><ele>1264.0</ele><time>2026-05-02T14:54:20.001Z</time></trkpt><trkpt lat="44.88381936592933" lon="6.647633960170205"><ele>1264.0</ele><time>2026-05-02T14:54:21.001Z</time></trkpt><trkpt lat="44.88378875477084" lon="6.647720879854919"><ele>1264.0</ele><time>2026-05-02T14:54:22.001Z</time></trkpt><trkpt lat="44.88373908506737" lon="6.647794327007684"><ele>1264.0</ele><time>2026-05-02T14:54:23.001Z</time></trkpt><trkpt lat="44.88367417078275" lon="6.6478645781360175"><ele>1265.6666666666665</ele><time>2026-05-02T14:54:24.001Z</time></trkpt><trkpt lat="44.88360123656396" lon="6.647938991056185"><ele>1267.3333333333333</ele><time>2026-05-02T14:54:25.001Z</time></trkpt><trkpt lat="44.88352476974484" lon="6.648032715933465"><ele>1269.0</ele><time>2026-05-02T14:54:26.001Z</time></trkpt><trkpt lat="44.88344513565986" lon="6.6481023085111275"><ele>1270.6666666666667</ele><time>2026-05-02T14:54:27.001Z</time></trkpt><trkpt lat="44.88339040994471" lon="6.648161976582539"><ele>1272.3333333333335</ele><time>2026-05-02T14:54:28.001Z</time></trkpt><trkpt lat="44.88335233394935" lon="6.648243235948614"><ele>1274.0</ele><time>2026-05-02T14:54:29.001Z</time></trkpt><trkpt lat="44.88331625377405" lon="6.648394628979658"><ele>1274.6000000000001</ele><time>2026-05-02T14:54:31.001Z</time></trkpt><trkpt lat="44.88322441756687" lon="6.648470129427273"><ele>1275.2</ele><time>2026-05-02T14:54:33.001Z</time></trkpt><trkpt lat="44.88315260452197" lon="6.648488732043069"><ele>1275.8000000000002</ele><time>2026-05-02T14:54:34.001Z</time></trkpt><trkpt lat="44.88306808917751" lon="6.648596110115672"><ele>1276.4</ele><time>2026-05-02T14:54:36.002Z</time></trkpt><trkpt lat="44.88307959363351" lon="6.648812105463382"><ele>1277.0</ele><time>2026-05-02T14:54:38.002Z</time></trkpt><trkpt lat="44.88309612189951" lon="6.648924018328011"><ele>1277.0</ele><time>2026-05-02T14:54:39.002Z</time></trkpt><trkpt lat="44.88313212933978" lon="6.649005225107199"><ele>1277.0</ele><time>2026-05-02T14:54:40.002Z</time></trkpt><trkpt lat="44.88313512274829" lon="6.649094926590888"><ele>1277.0</ele><time>2026-05-02T14:54:41.002Z</time></trkpt><trkpt lat="44.883101337218676" lon="6.649246963147145"><ele>1277.0</ele><time>2026-05-02T14:54:43.002Z</time></trkpt><trkpt lat="44.88304879590949" lon="6.649405398230669"><ele>1277.0</ele><time>2026-05-02T14:54:45.002Z</time></trkpt><trkpt lat="44.88300210230578" lon="6.649484695125147"><ele>1277.0</ele><time>2026-05-02T14:54:48.002Z</time></trkpt><trkpt lat="44.882933303739144" lon="6.6493894998424175"><ele>1277.0</ele><time>2026-05-02T14:54:51.002Z</time></trkpt><trkpt lat="44.88287545752868" lon="6.649246156659745"><ele>1277.0</ele><time>2026-05-02T14:54:53.002Z</time></trkpt><trkpt lat="44.88280216139295" lon="6.649150190956284"><ele>1277.0</ele><time>2026-05-02T14:54:55.002Z</time></trkpt><trkpt lat="44.88274445381979" lon="6.649074378188887"><ele>1277.0</ele><time>2026-05-02T14:54:57.002Z</time></trkpt><trkpt lat="44.88274148692961" lon="6.648974648627474"><ele>1277.0</ele><time>2026-05-02T14:54:59.002Z</time></trkpt><trkpt lat="44.88264888960961" lon="6.648902108331548"><ele>1282.3333333333335</ele><time>2026-05-02T14:55:02.002Z</time></trkpt><trkpt lat="44.88256902166632" lon="6.648897355424716"><ele>1287.6666666666667</ele><time>2026-05-02T14:55:04.002Z</time></trkpt><trkpt lat="44.882520010213454" lon="6.649015002751186"><ele>1293.0</ele><time>2026-05-02T14:55:06.002Z</time></trkpt><trkpt lat="44.882504432975566" lon="6.649101303400928"><ele>1298.3333333333333</ele><time>2026-05-02T14:55:07.002Z</time></trkpt><trkpt lat="44.88249490466823" lon="6.649200481034794"><ele>1303.6666666666665</ele><time>2026-05-02T14:55:08.002Z</time></trkpt><trkpt lat="44.882449202057025" lon="6.6493135380691015"><ele>1309.0</ele><time>2026-05-02T14:55:10.002Z</time></trkpt><trkpt lat="44.88237628135349" lon="6.64925394928514"><ele>1309.0</ele><time>2026-05-02T14:55:12.001Z</time></trkpt><trkpt lat="44.88234654185083" lon="6.649161827350669"><ele>1309.0</ele><time>2026-05-02T14:55:13.001Z</time></trkpt><trkpt lat="44.88230916238514" lon="6.649059967488584"><ele>1309.0</ele><time>2026-05-02T14:55:14.001Z</time></trkpt><trkpt lat="44.88230345166485" lon="6.648951720875635"><ele>1309.0</ele><time>2026-05-02T14:55:15.001Z</time></trkpt><trkpt lat="44.88231036768225" lon="6.648825174587164"><ele>1309.0</ele><time>2026-05-02T14:55:16.001Z</time></trkpt><trkpt lat="44.88232085169554" lon="6.648713667220207"><ele>1309.0</ele><time>2026-05-02T14:55:17.001Z</time></trkpt><trkpt lat="44.88232148565873" lon="6.648603756125685"><ele>1309.0</ele><time>2026-05-02T14:55:18.001Z</time></trkpt><trkpt lat="44.882310974390755" lon="6.648508682043619"><ele>1309.0</ele><time>2026-05-02T14:55:19.001Z</time></trkpt><trkpt lat="44.882297519930034" lon="6.648396067954335"><ele>1309.0</ele><time>2026-05-02T14:55:21.001Z</time></trkpt><trkpt lat="44.88222464681347" lon="6.648475373563091"><ele>1309.0</ele><time>2026-05-02T14:55:25.001Z</time></trkpt><trkpt lat="44.882223031241466" lon="6.648567360527746"><ele>1309.0</ele><time>2026-05-02T14:55:26.001Z</time></trkpt><trkpt lat="44.882214044267414" lon="6.6486638894543075"><ele>1309.0</ele><time>2026-05-02T14:55:27.001Z</time></trkpt><trkpt lat="44.882177592732695" lon="6.648751443175398"><ele>1309.0</ele><time>2026-05-02T14:55:28.001Z</time></trkpt><trkpt lat="44.882133645703725" lon="6.648830981262024"><ele>1309.0</ele><time>2026-05-02T14:55:29.001Z</time></trkpt><trkpt lat="44.88208682081111" lon="6.648931934955096"><ele>1309.0</ele><time>2026-05-02T14:55:30.001Z</time></trkpt><trkpt lat="44.88205442525403" lon="6.649034781264943"><ele>1309.0</ele><time>2026-05-02T14:55:31.001Z</time></trkpt><trkpt lat="44.882047945763674" lon="6.649132655786658"><ele>1309.0</ele><time>2026-05-02T14:55:32.001Z</time></trkpt><trkpt lat="44.88205366498765" lon="6.649237351357882"><ele>1309.0</ele><time>2026-05-02T14:55:33.001Z</time></trkpt><trkpt lat="44.882065729819146" lon="6.649355499387685"><ele>1309.0</ele><time>2026-05-02T14:55:34.001Z</time></trkpt><trkpt lat="44.88209744264244" lon="6.649467167855585"><ele>1309.6666666666665</ele><time>2026-05-02T14:55:35.001Z</time></trkpt><trkpt lat="44.88208628681385" lon="6.64961603477907"><ele>1310.3333333333333</ele><time>2026-05-02T14:55:37.001Z</time></trkpt><trkpt lat="44.8820852516959" lon="6.649705233270442"><ele>1311.0</ele><time>2026-05-02T14:55:38.001Z</time></trkpt><trkpt lat="44.88209511608853" lon="6.649827876057405"><ele>1311.6666666666667</ele><time>2026-05-02T14:55:39.001Z</time></trkpt><trkpt lat="44.882103701841004" lon="6.64994962460823"><ele>1312.3333333333335</ele><time>2026-05-02T14:55:40.001Z</time></trkpt><trkpt lat="44.882108235101924" lon="6.650078931667894"><ele>1313.0</ele><time>2026-05-02T14:55:41.001Z</time></trkpt><trkpt lat="44.88209336799307" lon="6.650185091291918"><ele>1313.0</ele><time>2026-05-02T14:55:42.001Z</time></trkpt><trkpt lat="44.88207427494573" lon="6.650283612833757"><ele>1313.0</ele><time>2026-05-02T14:55:43.001Z</time></trkpt><trkpt lat="44.88205859922521" lon="6.650369707125291"><ele>1313.0</ele><time>2026-05-02T14:55:44.001Z</time></trkpt><trkpt lat="44.88201764480228" lon="6.650510893075701"><ele>1313.0</ele><time>2026-05-02T14:55:46.001Z</time></trkpt><trkpt lat="44.88198573302506" lon="6.650653388081143"><ele>1313.0</ele><time>2026-05-02T14:55:48.001Z</time></trkpt><trkpt lat="44.88194079934005" lon="6.650760078485041"><ele>1313.0</ele><time>2026-05-02T14:55:50.001Z</time></trkpt><trkpt lat="44.88189710995638" lon="6.650881451347106"><ele>1314.4</ele><time>2026-05-02T14:55:52.001Z</time></trkpt><trkpt lat="44.88188983887173" lon="6.651008642594239"><ele>1315.8000000000002</ele><time>2026-05-02T14:55:54.001Z</time></trkpt><trkpt lat="44.88188014445486" lon="6.651151082904899"><ele>1317.2</ele><time>2026-05-02T14:55:56.001Z</time></trkpt><trkpt lat="44.8818649455167" lon="6.6513042077423465"><ele>1318.6</ele><time>2026-05-02T14:55:58.001Z</time></trkpt><trkpt lat="44.881818884627315" lon="6.651436603406738"><ele>1320.0</ele><time>2026-05-02T14:56:00.001Z</time></trkpt><trkpt lat="44.88180711439404" lon="6.65159345141185"><ele>1322.0</ele><time>2026-05-02T14:56:02.001Z</time></trkpt><trkpt lat="44.88181390358941" lon="6.651728753728665"><ele>1324.0</ele><time>2026-05-02T14:56:04.001Z</time></trkpt><trkpt lat="44.88178369460861" lon="6.651825660247007"><ele>1326.0</ele><time>2026-05-02T14:56:06.001Z</time></trkpt><trkpt lat="44.8817318154442" lon="6.651774371580276"><ele>1328.0</ele><time>2026-05-02T14:56:09.001Z</time></trkpt><trkpt lat="44.8816903636133" lon="6.651685758288848"><ele>1330.0</ele><time>2026-05-02T14:56:12.001Z</time></trkpt><trkpt lat="44.881703719298365" lon="6.651562690578024"><ele>1332.0</ele><time>2026-05-02T14:56:49.001Z</time></trkpt><trkpt lat="44.88167676222787" lon="6.651369328565926"><ele>1336.8</ele><time>2026-05-02T14:56:51.002Z</time></trkpt><trkpt lat="44.88164068623844" lon="6.651260369883445"><ele>1341.6</ele><time>2026-05-02T14:56:52.002Z</time></trkpt><trkpt lat="44.88159335096271" lon="6.651152641144942"><ele>1346.3999999999999</ele><time>2026-05-02T14:56:53.002Z</time></trkpt><trkpt lat="44.88155653514868" lon="6.651020439501922"><ele>1351.1999999999998</ele><time>2026-05-02T14:56:54.002Z</time></trkpt><trkpt lat="44.8815302783697" lon="6.6508579792748765"><ele>1356.0</ele><time>2026-05-02T14:56:55.002Z</time></trkpt><trkpt lat="44.881512990022905" lon="6.6506846727150375"><ele>1356.0</ele><time>2026-05-02T14:56:56.002Z</time></trkpt><trkpt lat="44.881491421732164" lon="6.650530652562007"><ele>1356.0</ele><time>2026-05-02T14:56:57.002Z</time></trkpt><trkpt lat="44.881449360677074" lon="6.650405402876292"><ele>1356.0</ele><time>2026-05-02T14:56:58.002Z</time></trkpt><trkpt lat="44.88139748848066" lon="6.650289591405857"><ele>1356.0</ele><time>2026-05-02T14:56:59.002Z</time></trkpt><trkpt lat="44.881357761221295" lon="6.650164939141236"><ele>1356.0</ele><time>2026-05-02T14:57:00.002Z</time></trkpt><trkpt lat="44.88134245197469" lon="6.650009790763966"><ele>1354.25</ele><time>2026-05-02T14:57:01.002Z</time></trkpt><trkpt lat="44.88133795178774" lon="6.649827510431017"><ele>1352.5</ele><time>2026-05-02T14:57:02.002Z</time></trkpt><trkpt lat="44.88134557828928" lon="6.6496359165184895"><ele>1350.75</ele><time>2026-05-02T14:57:03.002Z</time></trkpt><trkpt lat="44.88134628555074" lon="6.649453258416402"><ele>1349.0</ele><time>2026-05-02T14:57:04.002Z</time></trkpt><trkpt lat="44.881330103721645" lon="6.6492633777078565"><ele>1349.0</ele><time>2026-05-02T14:57:05.002Z</time></trkpt><trkpt lat="44.881317425187085" lon="6.649110999897948"><ele>1349.0</ele><time>2026-05-02T14:57:06.002Z</time></trkpt><trkpt lat="44.8813302304329" lon="6.6489826513636"><ele>1349.0</ele><time>2026-05-02T14:57:07.002Z</time></trkpt><trkpt lat="44.88134300452893" lon="6.6488151696629325"><ele>1349.0</ele><time>2026-05-02T14:57:08.002Z</time></trkpt><trkpt lat="44.88134848656045" lon="6.6486873886781614"><ele>1349.0</ele><time>2026-05-02T14:57:09.002Z</time></trkpt><trkpt lat="44.881354561477906" lon="6.648548739564958"><ele>1349.0</ele><time>2026-05-02T14:57:10.002Z</time></trkpt><trkpt lat="44.881376946662435" lon="6.648321267148343"><ele>1349.0</ele><time>2026-05-02T14:57:11.002Z</time></trkpt><trkpt lat="44.8814157673797" lon="6.648180348911171"><ele>1349.0</ele><time>2026-05-02T14:57:12.002Z</time></trkpt><trkpt lat="44.88146685862909" lon="6.648067313640633"><ele>1349.0</ele><time>2026-05-02T14:57:13.002Z</time></trkpt><trkpt lat="44.88152484391512" lon="6.647962512797692"><ele>1349.0</ele><time>2026-05-02T14:57:14.002Z</time></trkpt><trkpt lat="44.88155873954947" lon="6.647874541304878"><ele>1349.0</ele><time>2026-05-02T14:57:15.002Z</time></trkpt><trkpt lat="44.88157663680562" lon="6.64775469234476"><ele>1349.0</ele><time>2026-05-02T14:57:16.002Z</time></trkpt><trkpt lat="44.8815787335117" lon="6.647628688741624"><ele>1349.0</ele><time>2026-05-02T14:57:17.002Z</time></trkpt><trkpt lat="44.881557742730244" lon="6.647486331895098"><ele>1349.0</ele><time>2026-05-02T14:57:18.001Z</time></trkpt><trkpt lat="44.881520464691526" lon="6.6473285001302225"><ele>1352.0</ele><time>2026-05-02T14:57:19.001Z</time></trkpt><trkpt lat="44.88147539857717" lon="6.647149984117169"><ele>1355.0</ele><time>2026-05-02T14:57:20.001Z</time></trkpt><trkpt lat="44.8814736257" lon="6.64699638745751"><ele>1358.0</ele><time>2026-05-02T14:57:21.001Z</time></trkpt><trkpt lat="44.88149514265656" lon="6.646832128415169"><ele>1361.0</ele><time>2026-05-02T14:57:22.001Z</time></trkpt><trkpt lat="44.88151969459619" lon="6.646684329986138"><ele>1361.1999999999998</ele><time>2026-05-02T14:57:23.001Z</time></trkpt><trkpt lat="44.88153502198272" lon="6.646572005234761"><ele>1361.3999999999999</ele><time>2026-05-02T14:57:24.001Z</time></trkpt><trkpt lat="44.88150917555653" lon="6.646412310226907"><ele>1361.6</ele><time>2026-05-02T14:57:26.001Z</time></trkpt><trkpt lat="44.88146623371416" lon="6.646325135795585"><ele>1361.8</ele><time>2026-05-02T14:57:27.001Z</time></trkpt><trkpt lat="44.881410465410895" lon="6.646195157891752"><ele>1362.0</ele><time>2026-05-02T14:57:28.001Z</time></trkpt><trkpt lat="44.88134419552146" lon="6.6460353792101525"><ele>1360.0</ele><time>2026-05-02T14:57:29.001Z</time></trkpt><trkpt lat="44.88129072773098" lon="6.645876596009733"><ele>1358.0</ele><time>2026-05-02T14:57:30.001Z</time></trkpt><trkpt lat="44.881242059789656" lon="6.645739014889047"><ele>1356.0</ele><time>2026-05-02T14:57:31.001Z</time></trkpt><trkpt lat="44.88117119832138" lon="6.645611233759255"><ele>1354.0</ele><time>2026-05-02T14:57:32.001Z</time></trkpt><trkpt lat="44.88111727688626" lon="6.645474098525746"><ele>1354.0</ele><time>2026-05-02T14:57:33.001Z</time></trkpt><trkpt lat="44.88106546309439" lon="6.645342809715474"><ele>1354.0</ele><time>2026-05-02T14:57:34.001Z</time></trkpt><trkpt lat="44.8810087769734" lon="6.645214080908285"><ele>1354.0</ele><time>2026-05-02T14:57:35.001Z</time></trkpt><trkpt lat="44.880945284083055" lon="6.645097574286137"><ele>1354.0</ele><time>2026-05-02T14:57:36.001Z</time></trkpt><trkpt lat="44.88088412305932" lon="6.644987649690893"><ele>1354.0</ele><time>2026-05-02T14:57:37.001Z</time></trkpt><trkpt lat="44.88083126407905" lon="6.644891126673374"><ele>1353.6666666666665</ele><time>2026-05-02T14:57:38.001Z</time></trkpt><trkpt lat="44.88077467259988" lon="6.64482038707454"><ele>1353.3333333333333</ele><time>2026-05-02T14:57:39.001Z</time></trkpt><trkpt lat="44.88072765757819" lon="6.644756277677884"><ele>1353.0</ele><time>2026-05-02T14:57:40.001Z</time></trkpt><trkpt lat="44.88064778533558" lon="6.644625041118773"><ele>1352.6666666666667</ele><time>2026-05-02T14:57:42.001Z</time></trkpt><trkpt lat="44.88064644850994" lon="6.64453233809422"><ele>1352.3333333333335</ele><time>2026-05-02T14:57:43.001Z</time></trkpt><trkpt lat="44.88068614051138" lon="6.644416826643193"><ele>1352.0</ele><time>2026-05-02T14:57:44.001Z</time></trkpt><trkpt lat="44.88073860127577" lon="6.644298747972813"><ele>1349.8</ele><time>2026-05-02T14:57:45.001Z</time></trkpt><trkpt lat="44.880766277615216" lon="6.6441757596425655"><ele>1347.6</ele><time>2026-05-02T14:57:46.001Z</time></trkpt><trkpt lat="44.88079000408082" lon="6.644020996440083"><ele>1345.3999999999999</ele><time>2026-05-02T14:57:47.001Z</time></trkpt><trkpt lat="44.88081015863055" lon="6.643885930642167"><ele>1343.1999999999998</ele><time>2026-05-02T14:57:48.001Z</time></trkpt><trkpt lat="44.880825881346844" lon="6.643759412537078"><ele>1341.0</ele><time>2026-05-02T14:57:49.001Z</time></trkpt><trkpt lat="44.88083816531193" lon="6.64363343710981"><ele>1339.0</ele><time>2026-05-02T14:57:50.001Z</time></trkpt><trkpt lat="44.880844402485344" lon="6.643522529043985"><ele>1337.0</ele><time>2026-05-02T14:57:51.001Z</time></trkpt><trkpt lat="44.88082495516321" lon="6.6434098359178035"><ele>1335.0</ele><time>2026-05-02T14:57:52.001Z</time></trkpt><trkpt lat="44.88078156284103" lon="6.643293920849241"><ele>1333.0</ele><time>2026-05-02T14:57:53.001Z</time></trkpt><trkpt lat="44.880734692802484" lon="6.6431522704830455"><ele>1331.0</ele><time>2026-05-02T14:57:54.001Z</time></trkpt><trkpt lat="44.88070259250481" lon="6.642981932058397"><ele>1331.0</ele><time>2026-05-02T14:57:55.001Z</time></trkpt><trkpt lat="44.880687889440836" lon="6.6428146611530865"><ele>1331.0</ele><time>2026-05-02T14:57:56.001Z</time></trkpt><trkpt lat="44.88067057871585" lon="6.642669000346584"><ele>1331.0</ele><time>2026-05-02T14:57:57.001Z</time></trkpt><trkpt lat="44.88062607660746" lon="6.642528723905438"><ele>1331.0</ele><time>2026-05-02T14:57:58.001Z</time></trkpt><trkpt lat="44.880595965869745" lon="6.642398871177412"><ele>1331.0</ele><time>2026-05-02T14:57:59.001Z</time></trkpt><trkpt lat="44.88058322621904" lon="6.642299121784721"><ele>1329.4</ele><time>2026-05-02T14:58:00.001Z</time></trkpt><trkpt lat="44.880573383265144" lon="6.642194056035139"><ele>1327.8</ele><time>2026-05-02T14:58:01.001Z</time></trkpt><trkpt lat="44.88053350904787" lon="6.642080161966041"><ele>1326.2</ele><time>2026-05-02T14:58:02.001Z</time></trkpt><trkpt lat="44.880465484485434" lon="6.641958063310024"><ele>1324.6000000000001</ele><time>2026-05-02T14:58:03.001Z</time></trkpt><trkpt lat="44.88039233410405" lon="6.641836159748987"><ele>1323.0</ele><time>2026-05-02T14:58:04.001Z</time></trkpt><trkpt lat="44.880332222010864" lon="6.641725603531586"><ele>1322.4</ele><time>2026-05-02T14:58:05.001Z</time></trkpt><trkpt lat="44.88028247834861" lon="6.641615420469928"><ele>1321.8000000000002</ele><time>2026-05-02T14:58:06.001Z</time></trkpt><trkpt lat="44.88022341937391" lon="6.641512734478553"><ele>1321.2</ele><time>2026-05-02T14:58:07.001Z</time></trkpt><trkpt lat="44.88015756525053" lon="6.641420554626579"><ele>1320.6</ele><time>2026-05-02T14:58:08.001Z</time></trkpt><trkpt lat="44.88008653553627" lon="6.641322889083282"><ele>1320.0</ele><time>2026-05-02T14:58:09.001Z</time></trkpt><trkpt lat="44.880013609406696" lon="6.64120225038642"><ele>1318.2</ele><time>2026-05-02T14:58:10.001Z</time></trkpt><trkpt lat="44.87994268653954" lon="6.641087541740962"><ele>1316.4</ele><time>2026-05-02T14:58:11.001Z</time></trkpt><trkpt lat="44.87986641376341" lon="6.640982439391025"><ele>1314.6</ele><time>2026-05-02T14:58:12.001Z</time></trkpt><trkpt lat="44.87979520888765" lon="6.640877994139272"><ele>1312.8</ele><time>2026-05-02T14:58:13.001Z</time></trkpt><trkpt lat="44.87973830983815" lon="6.6407621224750395"><ele>1311.0</ele><time>2026-05-02T14:58:14.001Z</time></trkpt><trkpt lat="44.87969588005539" lon="6.640636411091494"><ele>1311.0</ele><time>2026-05-02T14:58:15.001Z</time></trkpt><trkpt lat="44.87967150766335" lon="6.640527476445957"><ele>1311.0</ele><time>2026-05-02T14:58:16.001Z</time></trkpt><trkpt lat="44.87965824614322" lon="6.640413981486873"><ele>1311.0</ele><time>2026-05-02T14:58:17.001Z</time></trkpt><trkpt lat="44.87964975880501" lon="6.640323725140199"><ele>1311.0</ele><time>2026-05-02T14:58:18.001Z</time></trkpt><trkpt lat="44.87960186175365" lon="6.640172013575738"><ele>1311.0</ele><time>2026-05-02T14:58:20.001Z</time></trkpt><trkpt lat="44.87955639098491" lon="6.640095574042558"><ele>1311.0</ele><time>2026-05-02T14:58:21.001Z</time></trkpt><trkpt lat="44.87950867661174" lon="6.64002408326679"><ele>1310.1666666666667</ele><time>2026-05-02T14:58:22.001Z</time></trkpt><trkpt lat="44.879458167932945" lon="6.639946763233044"><ele>1309.3333333333333</ele><time>2026-05-02T14:58:23.001Z</time></trkpt><trkpt lat="44.8794135192717" lon="6.639862297424004"><ele>1308.5</ele><time>2026-05-02T14:58:24.001Z</time></trkpt><trkpt lat="44.879365511135845" lon="6.639773575843006"><ele>1307.6666666666665</ele><time>2026-05-02T14:58:25.001Z</time></trkpt><trkpt lat="44.87930857915911" lon="6.639677481526867"><ele>1306.8333333333333</ele><time>2026-05-02T14:58:26.001Z</time></trkpt><trkpt lat="44.879250869646434" lon="6.639567366499216"><ele>1306.0</ele><time>2026-05-02T14:58:27.001Z</time></trkpt><trkpt lat="44.87918767508601" lon="6.639453378788375"><ele>1305.0</ele><time>2026-05-02T14:58:28.001Z</time></trkpt><trkpt lat="44.87912362226873" lon="6.639326718189768"><ele>1304.0</ele><time>2026-05-02T14:58:29.001Z</time></trkpt><trkpt lat="44.87906505215882" lon="6.639201688483005"><ele>1303.0</ele><time>2026-05-02T14:58:30.001Z</time></trkpt><trkpt lat="44.87900000816359" lon="6.639074848151417"><ele>1302.0</ele><time>2026-05-02T14:58:31.001Z</time></trkpt><trkpt lat="44.87893583599445" lon="6.638951904140929"><ele>1301.0</ele><time>2026-05-02T14:58:32.001Z</time></trkpt><trkpt lat="44.87887412201002" lon="6.638830698527583"><ele>1301.0</ele><time>2026-05-02T14:58:33.001Z</time></trkpt><trkpt lat="44.8788144987894" lon="6.63870138635089"><ele>1301.0</ele><time>2026-05-02T14:58:34.001Z</time></trkpt><trkpt lat="44.87875578186232" lon="6.638568903057495"><ele>1301.0</ele><time>2026-05-02T14:58:35.001Z</time></trkpt><trkpt lat="44.87868848011064" lon="6.638448339494038"><ele>1301.0</ele><time>2026-05-02T14:58:36.001Z</time></trkpt><trkpt lat="44.87861425219457" lon="6.638336432863735"><ele>1301.0</ele><time>2026-05-02T14:58:37.001Z</time></trkpt><trkpt lat="44.878540162074835" lon="6.638221533065814"><ele>1300.6</ele><time>2026-05-02T14:58:38.001Z</time></trkpt><trkpt lat="44.8784641088073" lon="6.638120636001157"><ele>1300.1999999999998</ele><time>2026-05-02T14:58:39.001Z</time></trkpt><trkpt lat="44.87838716123334" lon="6.638022052601456"><ele>1299.8000000000002</ele><time>2026-05-02T14:58:40.001Z</time></trkpt><trkpt lat="44.878317464014756" lon="6.637922235087233"><ele>1299.4</ele><time>2026-05-02T14:58:41.001Z</time></trkpt><trkpt lat="44.878243562038286" lon="6.637842286468223"><ele>1299.0</ele><time>2026-05-02T14:58:42.001Z</time></trkpt><trkpt lat="44.87816174807703" lon="6.637769037937408"><ele>1297.6</ele><time>2026-05-02T14:58:43.001Z</time></trkpt><trkpt lat="44.87807003398677" lon="6.63766982143097"><ele>1296.2</ele><time>2026-05-02T14:58:44.001Z</time></trkpt><trkpt lat="44.87798854734497" lon="6.637549752147588"><ele>1294.8</ele><time>2026-05-02T14:58:45.001Z</time></trkpt><trkpt lat="44.87791723296162" lon="6.6374302236194085"><ele>1293.3999999999999</ele><time>2026-05-02T14:58:46.001Z</time></trkpt><trkpt lat="44.87787901258354" lon="6.6373102505768555"><ele>1292.0</ele><time>2026-05-02T14:58:47.001Z</time></trkpt><trkpt lat="44.87781877062391" lon="6.637222831392509"><ele>1292.0</ele><time>2026-05-02T14:58:48.001Z</time></trkpt><trkpt lat="44.87777124434509" lon="6.637118936437554"><ele>1292.0</ele><time>2026-05-02T14:58:49.001Z</time></trkpt><trkpt lat="44.87772454011804" lon="6.6370100380729475"><ele>1292.0</ele><time>2026-05-02T14:58:50.001Z</time></trkpt><trkpt lat="44.877679727397435" lon="6.636890700601673"><ele>1292.0</ele><time>2026-05-02T14:58:51.001Z</time></trkpt><trkpt lat="44.87762392122905" lon="6.636777724575671"><ele>1292.0</ele><time>2026-05-02T14:58:52.001Z</time></trkpt><trkpt lat="44.87757538578153" lon="6.636669688904824"><ele>1290.6</ele><time>2026-05-02T14:58:53.001Z</time></trkpt><trkpt lat="44.87752135952232" lon="6.636538710457373"><ele>1289.1999999999998</ele><time>2026-05-02T14:58:54.001Z</time></trkpt><trkpt lat="44.877467040040436" lon="6.636413673335226"><ele>1287.8</ele><time>2026-05-02T14:58:55.001Z</time></trkpt><trkpt lat="44.87741845176365" lon="6.636293108458871"><ele>1286.4</ele><time>2026-05-02T14:58:56.001Z</time></trkpt><trkpt lat="44.87736813127362" lon="6.636181169186803"><ele>1285.0</ele><time>2026-05-02T14:58:57.001Z</time></trkpt><trkpt lat="44.87730563436371" lon="6.636073876161046"><ele>1283.4</ele><time>2026-05-02T14:58:58.001Z</time></trkpt><trkpt lat="44.87723938763702" lon="6.6359754143631156"><ele>1281.8</ele><time>2026-05-02T14:58:59.001Z</time></trkpt><trkpt lat="44.87718839046275" lon="6.635906695367014"><ele>1280.2</ele><time>2026-05-02T14:59:00.001Z</time></trkpt><trkpt lat="44.87714783519342" lon="6.635735682526692"><ele>1278.6</ele><time>2026-05-02T14:59:02.001Z</time></trkpt><trkpt lat="44.87716338086165" lon="6.635625437412159"><ele>1277.0</ele><time>2026-05-02T14:59:03.001Z</time></trkpt><trkpt lat="44.8772052806389" lon="6.635501930634007"><ele>1276.9999999999998</ele><time>2026-05-02T14:59:04.001Z</time></trkpt><trkpt lat="44.877247071032905" lon="6.6353886524979355"><ele>1277.0</ele><time>2026-05-02T14:59:05.001Z</time></trkpt><trkpt lat="44.87726643328642" lon="6.635283416897823"><ele>1277.0</ele><time>2026-05-02T14:59:06.001Z</time></trkpt><trkpt lat="44.87727152804184" lon="6.635193671040883"><ele>1277.0</ele><time>2026-05-02T14:59:07.001Z</time></trkpt><trkpt lat="44.87723844578203" lon="6.635098812046598"><ele>1277.0</ele><time>2026-05-02T14:59:08.001Z</time></trkpt><trkpt lat="44.87720665727603" lon="6.635016834412731"><ele>1276.9999999999998</ele><time>2026-05-02T14:59:09.001Z</time></trkpt><trkpt lat="44.87714258098955" lon="6.634984045410829"><ele>1277.0</ele><time>2026-05-02T14:59:10.001Z</time></trkpt><trkpt lat="44.877089844121116" lon="6.634918948880253"><ele>1276.5714285714284</ele><time>2026-05-02T14:59:11.001Z</time></trkpt><trkpt lat="44.877033905960964" lon="6.634876938642749"><ele>1276.142857142857</ele><time>2026-05-02T14:59:12.001Z</time></trkpt><trkpt lat="44.87697338350988" lon="6.63484646843162"><ele>1275.7142857142858</ele><time>2026-05-02T14:59:13.001Z</time></trkpt><trkpt lat="44.87691843794644" lon="6.634793118008391"><ele>1275.2857142857142</ele><time>2026-05-02T14:59:14.001Z</time></trkpt><trkpt lat="44.87686572184809" lon="6.634739211279185"><ele>1274.857142857143</ele><time>2026-05-02T14:59:15.001Z</time></trkpt><trkpt lat="44.87680824331527" lon="6.634680886249978"><ele>1274.4285714285713</ele><time>2026-05-02T14:59:16.002Z</time></trkpt><trkpt lat="44.876740225411154" lon="6.634629646315587"><ele>1274.0</ele><time>2026-05-02T14:59:17.002Z</time></trkpt><trkpt lat="44.87668303352797" lon="6.634584703339583"><ele>1274.0</ele><time>2026-05-02T14:59:18.002Z</time></trkpt><trkpt lat="44.87662410570647" lon="6.634533821346687"><ele>1274.0</ele><time>2026-05-02T14:59:19.002Z</time></trkpt><trkpt lat="44.87656385727127" lon="6.634487612488583"><ele>1274.0</ele><time>2026-05-02T14:59:20.002Z</time></trkpt><trkpt lat="44.87650603922792" lon="6.6344352354709315"><ele>1274.0</ele><time>2026-05-02T14:59:21.002Z</time></trkpt><trkpt lat="44.87643503342963" lon="6.634385844744581"><ele>1274.0</ele><time>2026-05-02T14:59:22.002Z</time></trkpt><trkpt lat="44.87637194386103" lon="6.634354214125282"><ele>1274.0</ele><time>2026-05-02T14:59:23.002Z</time></trkpt><trkpt lat="44.8763024285623" lon="6.634353771392867"><ele>1274.0</ele><time>2026-05-02T14:59:24.001Z</time></trkpt><trkpt lat="44.876228187054544" lon="6.634369232241031"><ele>1273.142857142857</ele><time>2026-05-02T14:59:25.001Z</time></trkpt><trkpt lat="44.87615618069788" lon="6.634390243231025"><ele>1272.2857142857142</ele><time>2026-05-02T14:59:26.001Z</time></trkpt><trkpt lat="44.87608700049903" lon="6.6344086973302865"><ele>1271.4285714285716</ele><time>2026-05-02T14:59:27.001Z</time></trkpt><trkpt lat="44.8760193606033" lon="6.634412021674822"><ele>1270.5714285714284</ele><time>2026-05-02T14:59:28.001Z</time></trkpt><trkpt lat="44.87594542160392" lon="6.634384381831483"><ele>1269.7142857142858</ele><time>2026-05-02T14:59:29.001Z</time></trkpt><trkpt lat="44.87587669662463" lon="6.6343390756988425"><ele>1268.857142857143</ele><time>2026-05-02T14:59:30.001Z</time></trkpt><trkpt lat="44.87581464217341" lon="6.63427125857417"><ele>1268.0</ele><time>2026-05-02T14:59:31.001Z</time></trkpt><trkpt lat="44.87575551249103" lon="6.634212234977877"><ele>1268.0</ele><time>2026-05-02T14:59:32.001Z</time></trkpt><trkpt lat="44.87568683375151" lon="6.634158402893079"><ele>1268.0</ele><time>2026-05-02T14:59:33.001Z</time></trkpt><trkpt lat="44.8756233002899" lon="6.63412142230681"><ele>1268.0</ele><time>2026-05-02T14:59:34.001Z</time></trkpt><trkpt lat="44.875565555484435" lon="6.634055075339776"><ele>1268.0</ele><time>2026-05-02T14:59:35.001Z</time></trkpt><trkpt lat="44.87549233399505" lon="6.634000692412602"><ele>1268.0</ele><time>2026-05-02T14:59:36.001Z</time></trkpt><trkpt lat="44.875415130045866" lon="6.633959499879681"><ele>1268.0</ele><time>2026-05-02T14:59:37.001Z</time></trkpt><trkpt lat="44.87534018810554" lon="6.633903793331059"><ele>1268.0</ele><time>2026-05-02T14:59:38.001Z</time></trkpt><trkpt lat="44.875282156485525" lon="6.6338287207803175"><ele>1268.0</ele><time>2026-05-02T14:59:39.001Z</time></trkpt><trkpt lat="44.87521361292864" lon="6.633784177381714"><ele>1268.0</ele><time>2026-05-02T14:59:40.001Z</time></trkpt><trkpt lat="44.87517631834297" lon="6.633700585460312"><ele>1268.0</ele><time>2026-05-02T14:59:41.001Z</time></trkpt><trkpt lat="44.87510625771782" lon="6.63356550290682"><ele>1268.0</ele><time>2026-05-02T14:59:43.001Z</time></trkpt><trkpt lat="44.87507211796107" lon="6.63346573400627"><ele>1268.0</ele><time>2026-05-02T14:59:45.001Z</time></trkpt><trkpt lat="44.87503412458498" lon="6.633355090548172"><ele>1268.0</ele><time>2026-05-02T14:59:48.001Z</time></trkpt><trkpt lat="44.87491905267938" lon="6.633334566001514"><ele>1268.0</ele><time>2026-05-02T14:59:50.001Z</time></trkpt><trkpt lat="44.874815354299194" lon="6.6334697019094"><ele>1268.0</ele><time>2026-05-02T14:59:52.001Z</time></trkpt><trkpt lat="44.87476398787246" lon="6.633532317248503"><ele>1268.0</ele><time>2026-05-02T14:59:53.001Z</time></trkpt><trkpt lat="44.87471448481561" lon="6.63359106367076"><ele>1268.0</ele><time>2026-05-02T14:59:54.001Z</time></trkpt><trkpt lat="44.87466917635685" lon="6.633673695573524"><ele>1268.0</ele><time>2026-05-02T14:59:55.001Z</time></trkpt><trkpt lat="44.87460091014609" lon="6.633720033227697"><ele>1268.0</ele><time>2026-05-02T14:59:56.001Z</time></trkpt><trkpt lat="44.87453184377244" lon="6.6337733191846455"><ele>1268.0</ele><time>2026-05-02T14:59:57.001Z</time></trkpt><trkpt lat="44.87445699484596" lon="6.633834631023604"><ele>1268.0</ele><time>2026-05-02T14:59:58.001Z</time></trkpt><trkpt lat="44.8743922262845" lon="6.633890610379668"><ele>1268.0</ele><time>2026-05-02T14:59:59.001Z</time></trkpt><trkpt lat="44.874325518819575" lon="6.633988243745301"><ele>1268.0</ele><time>2026-05-02T15:00:01.001Z</time></trkpt><trkpt lat="44.87426846897509" lon="6.63403835894539"><ele>1268.0</ele><time>2026-05-02T15:00:04.001Z</time></trkpt><trkpt lat="44.87433705040848" lon="6.633986776920676"><ele>1268.0</ele><time>2026-05-02T15:00:11.001Z</time></trkpt><trkpt lat="44.874285820665264" lon="6.633901033983127"><ele>1268.0</ele><time>2026-05-02T15:00:18.001Z</time></trkpt><trkpt lat="44.87416267215632" lon="6.633839036788837"><ele>1268.0</ele><time>2026-05-02T15:00:20.001Z</time></trkpt><trkpt lat="44.87408693504843" lon="6.633802359088478"><ele>1268.0</ele><time>2026-05-02T15:00:21.001Z</time></trkpt><trkpt lat="44.87399998881876" lon="6.633755391090199"><ele>1268.1666666666667</ele><time>2026-05-02T15:00:22.001Z</time></trkpt><trkpt lat="44.87390450191875" lon="6.633704594305911"><ele>1268.3333333333335</ele><time>2026-05-02T15:00:23.001Z</time></trkpt><trkpt lat="44.87382352455582" lon="6.633659525930333"><ele>1268.5</ele><time>2026-05-02T15:00:24.001Z</time></trkpt><trkpt lat="44.873755082300256" lon="6.633606547123967"><ele>1268.6666666666667</ele><time>2026-05-02T15:00:25.001Z</time></trkpt><trkpt lat="44.87368483029535" lon="6.633535811234457"><ele>1268.8333333333333</ele><time>2026-05-02T15:00:26.001Z</time></trkpt><trkpt lat="44.87362244185894" lon="6.633452462401888"><ele>1269.0</ele><time>2026-05-02T15:00:27.001Z</time></trkpt><trkpt lat="44.87358851268142" lon="6.633345248972142"><ele>1268.0</ele><time>2026-05-02T15:00:28.001Z</time></trkpt><trkpt lat="44.8735863736756" lon="6.633213850634995"><ele>1267.0</ele><time>2026-05-02T15:00:29.001Z</time></trkpt><trkpt lat="44.8736201355347" lon="6.63305412931086"><ele>1266.0</ele><time>2026-05-02T15:00:30.001Z</time></trkpt><trkpt lat="44.873650135859776" lon="6.632888896142819"><ele>1265.0</ele><time>2026-05-02T15:00:31.001Z</time></trkpt><trkpt lat="44.873640733918144" lon="6.632760674796608"><ele>1264.0</ele><time>2026-05-02T15:00:32.001Z</time></trkpt><trkpt lat="44.87362558484883" lon="6.632668178831718"><ele>1263.2</ele><time>2026-05-02T15:00:34.001Z</time></trkpt><trkpt lat="44.873553793429295" lon="6.632630552444566"><ele>1262.4</ele><time>2026-05-02T15:00:36.001Z</time></trkpt><trkpt lat="44.87347057770027" lon="6.6326914425542975"><ele>1261.6</ele><time>2026-05-02T15:00:37.001Z</time></trkpt><trkpt lat="44.8733347912109" lon="6.632767000976166"><ele>1260.8</ele><time>2026-05-02T15:00:39.001Z</time></trkpt><trkpt lat="44.87324573719206" lon="6.632807932367057"><ele>1260.0</ele><time>2026-05-02T15:00:40.001Z</time></trkpt><trkpt lat="44.8731556003961" lon="6.632791725727228"><ele>1262.8</ele><time>2026-05-02T15:00:41.001Z</time></trkpt><trkpt lat="44.87307721355791" lon="6.63280539261504"><ele>1265.6</ele><time>2026-05-02T15:00:42.001Z</time></trkpt><trkpt lat="44.873007005734934" lon="6.63274386621899"><ele>1268.4</ele><time>2026-05-02T15:00:43.001Z</time></trkpt><trkpt lat="44.87296226594269" lon="6.632621173599985"><ele>1271.2</ele><time>2026-05-02T15:00:44.001Z</time></trkpt><trkpt lat="44.87288730129026" lon="6.632497416378724"><ele>1274.0</ele><time>2026-05-02T15:00:45.001Z</time></trkpt><trkpt lat="44.87282858790096" lon="6.63232192493203"><ele>1274.0</ele><time>2026-05-02T15:00:46.001Z</time></trkpt><trkpt lat="44.872769147231224" lon="6.632155093269573"><ele>1274.0</ele><time>2026-05-02T15:00:47.001Z</time></trkpt><trkpt lat="44.87272323555417" lon="6.6320086075944955"><ele>1274.0</ele><time>2026-05-02T15:00:48.001Z</time></trkpt><trkpt lat="44.872666178427" lon="6.631893671512198"><ele>1274.0</ele><time>2026-05-02T15:00:49.001Z</time></trkpt><trkpt lat="44.87259514180896" lon="6.63180459998274"><ele>1274.0</ele><time>2026-05-02T15:00:50.001Z</time></trkpt><trkpt lat="44.87249545693131" lon="6.63175508253799"><ele>1275.8000000000002</ele><time>2026-05-02T15:00:51.001Z</time></trkpt><trkpt lat="44.87240112433763" lon="6.631687658362784"><ele>1277.6000000000001</ele><time>2026-05-02T15:00:52.001Z</time></trkpt><trkpt lat="44.8722931782024" lon="6.631667750257847"><ele>1279.4</ele><time>2026-05-02T15:00:53.001Z</time></trkpt><trkpt lat="44.87220914420436" lon="6.631638415444099"><ele>1281.2</ele><time>2026-05-02T15:00:54.001Z</time></trkpt><trkpt lat="44.872140660248334" lon="6.6316108958603595"><ele>1283.0</ele><time>2026-05-02T15:00:55.001Z</time></trkpt><trkpt lat="44.87202895934256" lon="6.631554135416294"><ele>1283.0</ele><time>2026-05-02T15:00:57.001Z</time></trkpt><trkpt lat="44.871963275146705" lon="6.631521790857178"><ele>1283.0</ele><time>2026-05-02T15:00:58.001Z</time></trkpt><trkpt lat="44.87189236665019" lon="6.631488719708908"><ele>1283.0</ele><time>2026-05-02T15:00:59.001Z</time></trkpt><trkpt lat="44.87183222998913" lon="6.631449263603878"><ele>1283.0</ele><time>2026-05-02T15:01:00.001Z</time></trkpt><trkpt lat="44.87174154736464" lon="6.631377068748665"><ele>1283.0</ele><time>2026-05-02T15:01:02.001Z</time></trkpt><trkpt lat="44.871678101921475" lon="6.631288280940709"><ele>1283.0</ele><time>2026-05-02T15:01:04.001Z</time></trkpt><trkpt lat="44.871631658452955" lon="6.631226833196966"><ele>1283.6000000000001</ele><time>2026-05-02T15:01:06.001Z</time></trkpt><trkpt lat="44.87158287984734" lon="6.631150429112058"><ele>1284.2</ele><time>2026-05-02T15:01:08.001Z</time></trkpt><trkpt lat="44.87152929538604" lon="6.631043274499677"><ele>1284.8</ele><time>2026-05-02T15:01:10.001Z</time></trkpt><trkpt lat="44.87145840451205" lon="6.6309556031525085"><ele>1285.4</ele><time>2026-05-02T15:01:12.001Z</time></trkpt><trkpt lat="44.871357357118434" lon="6.630912374780819"><ele>1286.0</ele><time>2026-05-02T15:01:14.001Z</time></trkpt><trkpt lat="44.871244425418055" lon="6.630925105802525"><ele>1286.0</ele><time>2026-05-02T15:01:16.001Z</time></trkpt><trkpt lat="44.871151758612854" lon="6.6309316464674835"><ele>1286.0</ele><time>2026-05-02T15:01:18.001Z</time></trkpt><trkpt lat="44.871068222573655" lon="6.630947097394653"><ele>1286.0</ele><time>2026-05-02T15:01:22.001Z</time></trkpt><trkpt lat="44.87096802385448" lon="6.630687505503654"><ele>1286.0</ele><time>2026-05-02T15:01:23.001Z</time></trkpt><trkpt lat="44.87089498205051" lon="6.630612276387251"><ele>1288.6666666666667</ele><time>2026-05-02T15:01:24.001Z</time></trkpt><trkpt lat="44.87083503405435" lon="6.630553878783471"><ele>1291.3333333333335</ele><time>2026-05-02T15:01:25.001Z</time></trkpt><trkpt lat="44.87077302748419" lon="6.630408006320281"><ele>1294.0</ele><time>2026-05-02T15:01:27.001Z</time></trkpt><trkpt lat="44.87074722294577" lon="6.630303560970633"><ele>1296.6666666666667</ele><time>2026-05-02T15:01:28.001Z</time></trkpt><trkpt lat="44.870715706654074" lon="6.630186544445687"><ele>1299.3333333333333</ele><time>2026-05-02T15:01:29Z</time></trkpt><trkpt lat="44.87067579021952" lon="6.630084127385643"><ele>1302.0</ele><time>2026-05-02T15:01:30Z</time></trkpt><trkpt lat="44.870630631415246" lon="6.630004239388994"><ele>1302.0</ele><time>2026-05-02T15:01:31Z</time></trkpt><trkpt lat="44.87052208456767" lon="6.6299222692258954"><ele>1302.0</ele><time>2026-05-02T15:01:33Z</time></trkpt><trkpt lat="44.87045986756131" lon="6.629903279160069"><ele>1302.0</ele><time>2026-05-02T15:01:34Z</time></trkpt><trkpt lat="44.870386965612234" lon="6.629872311440174"><ele>1302.0</ele><time>2026-05-02T15:01:35Z</time></trkpt><trkpt lat="44.87032625477192" lon="6.629844285711622"><ele>1302.0</ele><time>2026-05-02T15:01:36Z</time></trkpt><trkpt lat="44.87026960340248" lon="6.629796865120503"><ele>1302.0</ele><time>2026-05-02T15:01:38Z</time></trkpt><trkpt lat="44.87022206281107" lon="6.6298675548550685"><ele>1302.0</ele><time>2026-05-02T15:01:41Z</time></trkpt><trkpt lat="44.87021489553381" lon="6.629977733630004"><ele>1302.0</ele><time>2026-05-02T15:01:43Z</time></trkpt><trkpt lat="44.87017628768325" lon="6.630067806152622"><ele>1302.0</ele><time>2026-05-02T15:01:45Z</time></trkpt><trkpt lat="44.870157103266145" lon="6.630185750069034"><ele>1302.0</ele><time>2026-05-02T15:01:47Z</time></trkpt><trkpt lat="44.87011841603584" lon="6.630284436335674"><ele>1302.0</ele><time>2026-05-02T15:01:49Z</time></trkpt><trkpt lat="44.87005964719492" lon="6.630405998019388"><ele>1302.0</ele><time>2026-05-02T15:01:51Z</time></trkpt><trkpt lat="44.86998836072553" lon="6.630498400004599"><ele>1308.8</ele><time>2026-05-02T15:01:53Z</time></trkpt><trkpt lat="44.86993921041829" lon="6.630596567715788"><ele>1315.6</ele><time>2026-05-02T15:01:54Z</time></trkpt><trkpt lat="44.86988578451111" lon="6.630705913268601"><ele>1322.3999999999999</ele><time>2026-05-02T15:01:55Z</time></trkpt><trkpt lat="44.86983873845611" lon="6.630802212943177"><ele>1329.1999999999998</ele><time>2026-05-02T15:01:56Z</time></trkpt><trkpt lat="44.86975781195874" lon="6.630969079716955"><ele>1336.0</ele><time>2026-05-02T15:01:58Z</time></trkpt><trkpt lat="44.86970130260796" lon="6.63113678812743"><ele>1338.8</ele><time>2026-05-02T15:01:59Z</time></trkpt><trkpt lat="44.86964353278189" lon="6.631247468372805"><ele>1341.6</ele><time>2026-05-02T15:02:00Z</time></trkpt><trkpt lat="44.8695798066669" lon="6.631340034498376"><ele>1344.4</ele><time>2026-05-02T15:02:01Z</time></trkpt><trkpt lat="44.86951670550851" lon="6.631450311074412"><ele>1347.2</ele><time>2026-05-02T15:02:02Z</time></trkpt><trkpt lat="44.86946705509124" lon="6.631572784131515"><ele>1350.0</ele><time>2026-05-02T15:02:03Z</time></trkpt><trkpt lat="44.86935425685039" lon="6.631651514490214"><ele>1351.8333333333333</ele><time>2026-05-02T15:02:05Z</time></trkpt><trkpt lat="44.86927481117326" lon="6.631733809616249"><ele>1353.6666666666667</ele><time>2026-05-02T15:02:06Z</time></trkpt><trkpt lat="44.86921559758926" lon="6.631796256368405"><ele>1355.5</ele><time>2026-05-02T15:02:07Z</time></trkpt><trkpt lat="44.869146293314294" lon="6.6318717014746085"><ele>1357.3333333333335</ele><time>2026-05-02T15:02:08Z</time></trkpt><trkpt lat="44.86908545552943" lon="6.631941741364677"><ele>1359.1666666666667</ele><time>2026-05-02T15:02:09Z</time></trkpt><trkpt lat="44.869036974015415" lon="6.632008050245283"><ele>1361.0</ele><time>2026-05-02T15:02:10Z</time></trkpt><trkpt lat="44.868994855724324" lon="6.632075115941081"><ele>1364.1666666666667</ele><time>2026-05-02T15:02:11Z</time></trkpt><trkpt lat="44.86894624465298" lon="6.6321915728326255"><ele>1367.3333333333335</ele><time>2026-05-02T15:02:13Z</time></trkpt><trkpt lat="44.8689307349577" lon="6.632339176265208"><ele>1370.5</ele><time>2026-05-02T15:02:15Z</time></trkpt><trkpt lat="44.86892901522131" lon="6.632431435228685"><ele>1373.6666666666667</ele><time>2026-05-02T15:02:16Z</time></trkpt><trkpt lat="44.86890692291443" lon="6.632528574353787"><ele>1376.8333333333333</ele><time>2026-05-02T15:02:17Z</time></trkpt><trkpt lat="44.86887261651675" lon="6.632620070021668"><ele>1380.0</ele><time>2026-05-02T15:02:18Z</time></trkpt><trkpt lat="44.868831340580016" lon="6.63270598496964"><ele>1382.4</ele><time>2026-05-02T15:02:19Z</time></trkpt><trkpt lat="44.86878346320607" lon="6.632811146553492"><ele>1384.8</ele><time>2026-05-02T15:02:20Z</time></trkpt><trkpt lat="44.86873884015396" lon="6.632907321190291"><ele>1387.1999999999998</ele><time>2026-05-02T15:02:21Z</time></trkpt><trkpt lat="44.86870301135615" lon="6.632993782086055"><ele>1389.6</ele><time>2026-05-02T15:02:22Z</time></trkpt><trkpt lat="44.86862078402631" lon="6.633135330218234"><ele>1392.0</ele><time>2026-05-02T15:02:24Z</time></trkpt><trkpt lat="44.86854556982693" lon="6.633270435933958"><ele>1392.0</ele><time>2026-05-02T15:02:26Z</time></trkpt><trkpt lat="44.86853045404907" lon="6.633395804924246"><ele>1392.0</ele><time>2026-05-02T15:02:28Z</time></trkpt><trkpt lat="44.868508782042966" lon="6.633483844929583"><ele>1392.0</ele><time>2026-05-02T15:02:31.001Z</time></trkpt><trkpt lat="44.868418107617124" lon="6.6334905824692125"><ele>1392.0</ele><time>2026-05-02T15:03:41Z</time></trkpt><trkpt lat="44.868364340784524" lon="6.633368897411568"><ele>1392.0</ele><time>2026-05-02T15:03:43Z</time></trkpt><trkpt lat="44.868304143748546" lon="6.633302447507475"><ele>1392.0</ele><time>2026-05-02T15:03:44Z</time></trkpt><trkpt lat="44.86825598120106" lon="6.633220732168931"><ele>1396.1999999999998</ele><time>2026-05-02T15:03:45Z</time></trkpt><trkpt lat="44.86820033543737" lon="6.633161178417518"><ele>1400.4</ele><time>2026-05-02T15:03:46Z</time></trkpt><trkpt lat="44.86810988854771" lon="6.6330468719628115"><ele>1404.6</ele><time>2026-05-02T15:03:48Z</time></trkpt><trkpt lat="44.86801601870803" lon="6.632972862276667"><ele>1408.8000000000002</ele><time>2026-05-02T15:03:50Z</time></trkpt><trkpt lat="44.867900682144544" lon="6.632909683129868"><ele>1413.0</ele><time>2026-05-02T15:03:52Z</time></trkpt><trkpt lat="44.867777804657244" lon="6.632854006775418"><ele>1410.2</ele><time>2026-05-02T15:03:54Z</time></trkpt><trkpt lat="44.86773770439164" lon="6.63278083368953"><ele>1407.4</ele><time>2026-05-02T15:03:55Z</time></trkpt><trkpt lat="44.86763288414037" lon="6.632714241247104"><ele>1404.6000000000001</ele><time>2026-05-02T15:03:57Z</time></trkpt><trkpt lat="44.86754106144822" lon="6.632642340125251"><ele>1401.8000000000002</ele><time>2026-05-02T15:03:59Z</time></trkpt><trkpt lat="44.86747424573475" lon="6.6325318611931525"><ele>1399.0</ele><time>2026-05-02T15:04:01Z</time></trkpt><trkpt lat="44.867430984863056" lon="6.6324360412701076"><ele>1404.0</ele><time>2026-05-02T15:04:03Z</time></trkpt><trkpt lat="44.867396063942095" lon="6.632297983123808"><ele>1409.0</ele><time>2026-05-02T15:04:05Z</time></trkpt><trkpt lat="44.86739322216804" lon="6.632208245374291"><ele>1414.0</ele><time>2026-05-02T15:04:06Z</time></trkpt><trkpt lat="44.8674088083209" lon="6.6320469890776135"><ele>1419.0</ele><time>2026-05-02T15:04:08Z</time></trkpt><trkpt lat="44.86740379863593" lon="6.631901600504324"><ele>1424.0</ele><time>2026-05-02T15:04:10Z</time></trkpt><trkpt lat="44.8673684453171" lon="6.6317506740476055"><ele>1424.0</ele><time>2026-05-02T15:04:12Z</time></trkpt><trkpt lat="44.86733118478364" lon="6.631593888938626"><ele>1424.0</ele><time>2026-05-02T15:04:14Z</time></trkpt><trkpt lat="44.86729111532329" lon="6.631508688192184"><ele>1424.0</ele><time>2026-05-02T15:04:15Z</time></trkpt><trkpt lat="44.86727134502268" lon="6.631418905979568"><ele>1424.0</ele><time>2026-05-02T15:04:16Z</time></trkpt><trkpt lat="44.867220250983024" lon="6.631360380086236"><ele>1424.0</ele><time>2026-05-02T15:04:17Z</time></trkpt><trkpt lat="44.86717651960129" lon="6.631288239400724"><ele>1424.0</ele><time>2026-05-02T15:04:18Z</time></trkpt><trkpt lat="44.86709152606819" lon="6.631181025650393"><ele>1423.0</ele><time>2026-05-02T15:04:20Z</time></trkpt><trkpt lat="44.867018162025175" lon="6.63108259907372"><ele>1422.0</ele><time>2026-05-02T15:04:22Z</time></trkpt><trkpt lat="44.866940833392" lon="6.630988649115943"><ele>1421.0</ele><time>2026-05-02T15:04:24Z</time></trkpt><trkpt lat="44.86687826404996" lon="6.630949429702391"><ele>1420.0</ele><time>2026-05-02T15:04:33Z</time></trkpt><trkpt lat="44.86696400370169" lon="6.631013601783493"><ele>1419.0</ele><time>2026-05-02T15:04:38Z</time></trkpt><trkpt lat="44.8670401042711" lon="6.631096344508536"><ele>1420.25</ele><time>2026-05-02T15:04:40Z</time></trkpt><trkpt lat="44.867095931631376" lon="6.631167839514482"><ele>1421.5</ele><time>2026-05-02T15:04:41Z</time></trkpt><trkpt lat="44.8669778171759" lon="6.631502584068125"><ele>1422.75</ele><time>2026-05-02T15:04:42Z</time></trkpt><trkpt lat="44.86701148689612" lon="6.6316430994318205"><ele>1424.0</ele><time>2026-05-02T15:04:44Z</time></trkpt><trkpt lat="44.867010368940065" lon="6.631755209425042"><ele>1423.9999999999998</ele><time>2026-05-02T15:04:46Z</time></trkpt><trkpt lat="44.86694924813089" lon="6.6317883178506944"><ele>1424.0</ele><time>2026-05-02T15:04:48Z</time></trkpt><trkpt lat="44.8668958470362" lon="6.631724739006071"><ele>1424.0</ele><time>2026-05-02T15:04:50Z</time></trkpt><trkpt lat="44.8668229467731" lon="6.631676834549804"><ele>1424.0</ele><time>2026-05-02T15:04:53.001Z</time></trkpt><trkpt lat="44.866765874936576" lon="6.631636975131811"><ele>1424.0</ele><time>2026-05-02T15:04:55.001Z</time></trkpt><trkpt lat="44.86671094214097" lon="6.631593367376967"><ele>1423.9999999999998</ele><time>2026-05-02T15:04:57.001Z</time></trkpt><trkpt lat="44.86665901495229" lon="6.6315209319637445"><ele>1424.0</ele><time>2026-05-02T15:05:00.001Z</time></trkpt><trkpt lat="44.866572506445515" lon="6.631460744425976"><ele>1429.6666666666667</ele><time>2026-05-02T15:05:02.001Z</time></trkpt><trkpt lat="44.86650695178028" lon="6.63145902586207"><ele>1435.3333333333335</ele><time>2026-05-02T15:05:03.001Z</time></trkpt><trkpt lat="44.866385945118026" lon="6.631414426864972"><ele>1441.0</ele><time>2026-05-02T15:05:05.001Z</time></trkpt><trkpt lat="44.86629073046845" lon="6.631398625799629"><ele>1446.6666666666667</ele><time>2026-05-02T15:05:07.001Z</time></trkpt><trkpt lat="44.86621078827572" lon="6.631354148421737"><ele>1452.3333333333333</ele><time>2026-05-02T15:05:09.001Z</time></trkpt><trkpt lat="44.866183895675825" lon="6.631438985430056"><ele>1458.0</ele><time>2026-05-02T15:05:14.001Z</time></trkpt><trkpt lat="44.86623974994214" lon="6.631638387287712"><ele>1458.0</ele><time>2026-05-02T15:05:16.001Z</time></trkpt><trkpt lat="44.866191362289314" lon="6.631785175775055"><ele>1458.0</ele><time>2026-05-02T15:05:17.001Z</time></trkpt><trkpt lat="44.86619759281804" lon="6.631945209151517"><ele>1458.0</ele><time>2026-05-02T15:05:18.001Z</time></trkpt><trkpt lat="44.86620746219711" lon="6.63206640498835"><ele>1458.0</ele><time>2026-05-02T15:05:19.001Z</time></trkpt><trkpt lat="44.866219919200596" lon="6.632167846872514"><ele>1458.0</ele><time>2026-05-02T15:05:20.001Z</time></trkpt><trkpt lat="44.8662575944165" lon="6.632279956703886"><ele>1460.8000000000002</ele><time>2026-05-02T15:05:21.001Z</time></trkpt><trkpt lat="44.86637191500707" lon="6.63233991939133"><ele>1463.6</ele><time>2026-05-02T15:05:22.001Z</time></trkpt><trkpt lat="44.8664562308259" lon="6.632408492694673"><ele>1466.4</ele><time>2026-05-02T15:05:23.001Z</time></trkpt><trkpt lat="44.86647380403026" lon="6.6325179115145465"><ele>1469.1999999999998</ele><time>2026-05-02T15:05:24.001Z</time></trkpt><trkpt lat="44.86647960810174" lon="6.632614648193083"><ele>1472.0</ele><time>2026-05-02T15:05:25.001Z</time></trkpt><trkpt lat="44.8665089581695" lon="6.632765800477381"><ele>1476.0</ele><time>2026-05-02T15:05:26.001Z</time></trkpt><trkpt lat="44.866561325557115" lon="6.632905418376858"><ele>1480.0</ele><time>2026-05-02T15:05:27.001Z</time></trkpt><trkpt lat="44.866588773140485" lon="6.633088220688049"><ele>1484.0</ele><time>2026-05-02T15:05:28.001Z</time></trkpt><trkpt lat="44.86663106394177" lon="6.633281323020218"><ele>1488.0</ele><time>2026-05-02T15:05:29.001Z</time></trkpt><trkpt lat="44.86665305821668" lon="6.633433277458269"><ele>1488.0</ele><time>2026-05-02T15:05:30.001Z</time></trkpt><trkpt lat="44.866674423804" lon="6.633556934181313"><ele>1488.0</ele><time>2026-05-02T15:05:31.001Z</time></trkpt><trkpt lat="44.86671324739558" lon="6.633661424142971"><ele>1488.0</ele><time>2026-05-02T15:05:32.001Z</time></trkpt><trkpt lat="44.866786632330665" lon="6.633734752391794"><ele>1488.0</ele><time>2026-05-02T15:05:33.001Z</time></trkpt><trkpt lat="44.86685292217876" lon="6.633801522900694"><ele>1488.0</ele><time>2026-05-02T15:05:34.001Z</time></trkpt><trkpt lat="44.86691729627799" lon="6.633922203106394"><ele>1490.6000000000001</ele><time>2026-05-02T15:05:36.001Z</time></trkpt><trkpt lat="44.86685688409444" lon="6.634023987470209"><ele>1493.2</ele><time>2026-05-02T15:05:39.001Z</time></trkpt><trkpt lat="44.86678647930604" lon="6.633974610825971"><ele>1495.8</ele><time>2026-05-02T15:05:41Z</time></trkpt><trkpt lat="44.86673602328146" lon="6.633850080462425"><ele>1498.4</ele><time>2026-05-02T15:05:43Z</time></trkpt><trkpt lat="44.866692877880254" lon="6.633783202759782"><ele>1501.0</ele><time>2026-05-02T15:05:44Z</time></trkpt><trkpt lat="44.86660520763584" lon="6.633673766290817"><ele>1498.8333333333333</ele><time>2026-05-02T15:05:46Z</time></trkpt><trkpt lat="44.866547765347356" lon="6.633594790736435"><ele>1496.6666666666665</ele><time>2026-05-02T15:05:47Z</time></trkpt><trkpt lat="44.86651090392528" lon="6.63350251025814"><ele>1494.5</ele><time>2026-05-02T15:05:48Z</time></trkpt><trkpt lat="44.8664968637743" lon="6.633380614380858"><ele>1492.3333333333333</ele><time>2026-05-02T15:05:49Z</time></trkpt><trkpt lat="44.8664794448739" lon="6.633226268639324"><ele>1490.1666666666667</ele><time>2026-05-02T15:05:50Z</time></trkpt><trkpt lat="44.86644553498717" lon="6.633107777143963"><ele>1488.0</ele><time>2026-05-02T15:05:51Z</time></trkpt><trkpt lat="44.866389449703405" lon="6.633041504943862"><ele>1488.0</ele><time>2026-05-02T15:05:52Z</time></trkpt><trkpt lat="44.86632618731508" lon="6.6329783970131215"><ele>1488.0</ele><time>2026-05-02T15:05:53Z</time></trkpt><trkpt lat="44.86624082633476" lon="6.632912436940746"><ele>1488.0</ele><time>2026-05-02T15:05:54Z</time></trkpt><trkpt lat="44.86616125020836" lon="6.632864146588823"><ele>1488.0</ele><time>2026-05-02T15:05:55Z</time></trkpt><trkpt lat="44.86609909778228" lon="6.632843424453076"><ele>1488.0</ele><time>2026-05-02T15:05:56Z</time></trkpt><trkpt lat="44.86598603917747" lon="6.632885938219677"><ele>1488.0</ele><time>2026-05-02T15:05:58Z</time></trkpt><trkpt lat="44.865923561236656" lon="6.632920599810987"><ele>1492.3333333333333</ele><time>2026-05-02T15:05:59Z</time></trkpt><trkpt lat="44.86587335871285" lon="6.632978063005762"><ele>1496.6666666666667</ele><time>2026-05-02T15:06:00Z</time></trkpt><trkpt lat="44.86577296035642" lon="6.633042338906068"><ele>1501.0</ele><time>2026-05-02T15:06:02Z</time></trkpt><trkpt lat="44.865709286373686" lon="6.6330054659397275"><ele>1505.3333333333335</ele><time>2026-05-02T15:06:03Z</time></trkpt><trkpt lat="44.86563691891064" lon="6.632955553166655"><ele>1509.6666666666667</ele><time>2026-05-02T15:06:05Z</time></trkpt><trkpt lat="44.86557570682239" lon="6.632931176083766"><ele>1514.0</ele><time>2026-05-02T15:06:09Z</time></trkpt><trkpt lat="44.865666468606946" lon="6.632964931329988"><ele>1514.0</ele><time>2026-05-02T15:06:21Z</time></trkpt><trkpt lat="44.86578399356215" lon="6.633014349625598"><ele>1514.0</ele><time>2026-05-02T15:06:23Z</time></trkpt><trkpt lat="44.86585239826703" lon="6.632997840562825"><ele>1514.0</ele><time>2026-05-02T15:06:24Z</time></trkpt><trkpt lat="44.86593661637913" lon="6.632938140934844"><ele>1514.0</ele><time>2026-05-02T15:06:25Z</time></trkpt><trkpt lat="44.86601275351171" lon="6.632887876401727"><ele>1514.0</ele><time>2026-05-02T15:06:26Z</time></trkpt><trkpt lat="44.86608639397388" lon="6.632854878021306"><ele>1514.0</ele><time>2026-05-02T15:06:27Z</time></trkpt><trkpt lat="44.86615962961952" lon="6.632853174111873"><ele>1509.6666666666667</ele><time>2026-05-02T15:06:28Z</time></trkpt><trkpt lat="44.86623009288511" lon="6.632879308718138"><ele>1505.3333333333335</ele><time>2026-05-02T15:06:29Z</time></trkpt><trkpt lat="44.866314246130976" lon="6.632946469200418"><ele>1501.0</ele><time>2026-05-02T15:06:30Z</time></trkpt><trkpt lat="44.866370657346266" lon="6.633020639888383"><ele>1496.6666666666667</ele><time>2026-05-02T15:06:31Z</time></trkpt><trkpt lat="44.86642722458648" lon="6.633080972103789"><ele>1492.3333333333333</ele><time>2026-05-02T15:06:32Z</time></trkpt><trkpt lat="44.86647037348422" lon="6.633154329102081"><ele>1488.0</ele><time>2026-05-02T15:06:33Z</time></trkpt><trkpt lat="44.86649690826254" lon="6.633253602404118"><ele>1488.0</ele><time>2026-05-02T15:06:34Z</time></trkpt><trkpt lat="44.866508314562495" lon="6.6333613288365125"><ele>1488.0</ele><time>2026-05-02T15:06:35Z</time></trkpt><trkpt lat="44.86652914839478" lon="6.633468703577978"><ele>1488.0</ele><time>2026-05-02T15:06:36Z</time></trkpt><trkpt lat="44.86655411994281" lon="6.633569209461877"><ele>1488.0</ele><time>2026-05-02T15:06:37Z</time></trkpt><trkpt lat="44.86659902096305" lon="6.633663501606335"><ele>1488.0</ele><time>2026-05-02T15:06:38Z</time></trkpt><trkpt lat="44.86666024205688" lon="6.633745458425703"><ele>1488.0</ele><time>2026-05-02T15:06:39Z</time></trkpt><trkpt lat="44.866717364207695" lon="6.633825308288709"><ele>1490.1666666666667</ele><time>2026-05-02T15:06:40Z</time></trkpt><trkpt lat="44.866766560965154" lon="6.633899237838358"><ele>1492.3333333333333</ele><time>2026-05-02T15:06:41Z</time></trkpt><trkpt lat="44.86681357875576" lon="6.633965973000945"><ele>1494.5</ele><time>2026-05-02T15:06:42Z</time></trkpt><trkpt lat="44.86687034361864" lon="6.6340821127609235"><ele>1496.6666666666665</ele><time>2026-05-02T15:06:44Z</time></trkpt><trkpt lat="44.866902981780534" lon="6.634169517852058"><ele>1498.8333333333333</ele><time>2026-05-02T15:06:46Z</time></trkpt><trkpt lat="44.866949799302304" lon="6.634245924250682"><ele>1501.0</ele><time>2026-05-02T15:06:49Z</time></trkpt><trkpt lat="44.86700564454953" lon="6.634182844269498"><ele>1501.0</ele><time>2026-05-02T15:08:09Z</time></trkpt><trkpt lat="44.86695159689012" lon="6.634101107472195"><ele>1501.0</ele><time>2026-05-02T15:08:12Z</time></trkpt><trkpt lat="44.866868472167845" lon="6.634020921280997"><ele>1501.0</ele><time>2026-05-02T15:08:14Z</time></trkpt><trkpt lat="44.866752294278406" lon="6.633881549261649"><ele>1501.0</ele><time>2026-05-02T15:08:16Z</time></trkpt><trkpt lat="44.866684991297824" lon="6.633779559154487"><ele>1501.0</ele><time>2026-05-02T15:08:17Z</time></trkpt><trkpt lat="44.86661891422544" lon="6.633686656824763"><ele>1498.8333333333333</ele><time>2026-05-02T15:08:18Z</time></trkpt><trkpt lat="44.866560629521736" lon="6.633614542338005"><ele>1496.6666666666665</ele><time>2026-05-02T15:08:19Z</time></trkpt><trkpt lat="44.86651354283403" lon="6.633519168290324"><ele>1494.5</ele><time>2026-05-02T15:08:20Z</time></trkpt><trkpt lat="44.8664878470042" lon="6.633397117490226"><ele>1492.3333333333333</ele><time>2026-05-02T15:08:21Z</time></trkpt><trkpt lat="44.86647181294313" lon="6.633268723652621"><ele>1490.1666666666667</ele><time>2026-05-02T15:08:22Z</time></trkpt><trkpt lat="44.86645906805352" lon="6.633165869662974"><ele>1488.0</ele><time>2026-05-02T15:08:23Z</time></trkpt><trkpt lat="44.866429614546846" lon="6.633058932967869"><ele>1488.0</ele><time>2026-05-02T15:08:24Z</time></trkpt><trkpt lat="44.86635096598044" lon="6.63298070866605"><ele>1488.0</ele><time>2026-05-02T15:08:25Z</time></trkpt><trkpt lat="44.86625157530246" lon="6.632910285120473"><ele>1488.0</ele><time>2026-05-02T15:08:26Z</time></trkpt><trkpt lat="44.866161538475765" lon="6.632866897994763"><ele>1488.0</ele><time>2026-05-02T15:08:27Z</time></trkpt><trkpt lat="44.86608822854109" lon="6.632849252979228"><ele>1488.0</ele><time>2026-05-02T15:08:28Z</time></trkpt><trkpt lat="44.86600672786588" lon="6.632867315707319"><ele>1492.3333333333333</ele><time>2026-05-02T15:08:29Z</time></trkpt><trkpt lat="44.865925384837325" lon="6.63291501641483"><ele>1496.6666666666667</ele><time>2026-05-02T15:08:30Z</time></trkpt><trkpt lat="44.86585408877618" lon="6.632979570339122"><ele>1501.0</ele><time>2026-05-02T15:08:31Z</time></trkpt><trkpt lat="44.86579235949775" lon="6.633031309139834"><ele>1505.3333333333335</ele><time>2026-05-02T15:08:32Z</time></trkpt><trkpt lat="44.86571394734107" lon="6.633006614812955"><ele>1509.6666666666667</ele><time>2026-05-02T15:08:33Z</time></trkpt><trkpt lat="44.86564653227777" lon="6.6329691603718866"><ele>1514.0</ele><time>2026-05-02T15:08:34Z</time></trkpt><trkpt lat="44.86558478032158" lon="6.632894504660329"><ele>1511.2</ele><time>2026-05-02T15:08:35Z</time></trkpt><trkpt lat="44.86554372908753" lon="6.6327798107288585"><ele>1508.4</ele><time>2026-05-02T15:08:36Z</time></trkpt><trkpt lat="44.86553956974294" lon="6.632638940926434"><ele>1505.6</ele><time>2026-05-02T15:08:37Z</time></trkpt><trkpt lat="44.8655311904669" lon="6.632508707343401"><ele>1502.8</ele><time>2026-05-02T15:08:38Z</time></trkpt><trkpt lat="44.86549042752944" lon="6.63241370489259"><ele>1500.0</ele><time>2026-05-02T15:08:39Z</time></trkpt><trkpt lat="44.86541495855952" lon="6.632341485842138"><ele>1500.0</ele><time>2026-05-02T15:08:40Z</time></trkpt><trkpt lat="44.865320231148324" lon="6.63223911779968"><ele>1500.0</ele><time>2026-05-02T15:08:42Z</time></trkpt><trkpt lat="44.865273630665925" lon="6.632178763870245"><ele>1500.0</ele><time>2026-05-02T15:08:43Z</time></trkpt><trkpt lat="44.86519080391634" lon="6.632076120794532"><ele>1500.0</ele><time>2026-05-02T15:08:45Z</time></trkpt><trkpt lat="44.865133984056435" lon="6.63203184819423"><ele>1500.0</ele><time>2026-05-02T15:08:46Z</time></trkpt><trkpt lat="44.865072935972535" lon="6.631968377652623"><ele>1500.0</ele><time>2026-05-02T15:08:47Z</time></trkpt><trkpt lat="44.86500093863471" lon="6.631916043839621"><ele>1501.5</ele><time>2026-05-02T15:08:48Z</time></trkpt><trkpt lat="44.86493697482219" lon="6.631854960995509"><ele>1503.0</ele><time>2026-05-02T15:08:49Z</time></trkpt><trkpt lat="44.864865983082865" lon="6.631834220063888"><ele>1504.5</ele><time>2026-05-02T15:08:50Z</time></trkpt><trkpt lat="44.864797533500465" lon="6.6318852460273945"><ele>1506.0</ele><time>2026-05-02T15:08:51Z</time></trkpt><trkpt lat="44.864680013616066" lon="6.6318820681225725"><ele>1507.5</ele><time>2026-05-02T15:08:53Z</time></trkpt><trkpt lat="44.86461460068645" lon="6.631846160425723"><ele>1509.0</ele><time>2026-05-02T15:08:54Z</time></trkpt><trkpt lat="44.864550944491405" lon="6.6317798960349705"><ele>1509.0</ele><time>2026-05-02T15:08:55Z</time></trkpt><trkpt lat="44.86448494291996" lon="6.631700571112951"><ele>1509.0</ele><time>2026-05-02T15:08:56Z</time></trkpt><trkpt lat="44.86444629253203" lon="6.6316017596363785"><ele>1509.0</ele><time>2026-05-02T15:08:57Z</time></trkpt><trkpt lat="44.864404159555974" lon="6.631525774979066"><ele>1509.0</ele><time>2026-05-02T15:08:58Z</time></trkpt><trkpt lat="44.86438594333292" lon="6.631359504340229"><ele>1509.0</ele><time>2026-05-02T15:09:00Z</time></trkpt><trkpt lat="44.86443922413465" lon="6.6312475879193995"><ele>1506.8000000000002</ele><time>2026-05-02T15:09:01Z</time></trkpt><trkpt lat="44.86445525990471" lon="6.631124118926429"><ele>1504.6000000000001</ele><time>2026-05-02T15:09:02Z</time></trkpt><trkpt lat="44.86447709780146" lon="6.631021894994043"><ele>1502.4</ele><time>2026-05-02T15:09:03Z</time></trkpt><trkpt lat="44.8644550430053" lon="6.630910581892611"><ele>1500.2</ele><time>2026-05-02T15:09:04.001Z</time></trkpt><trkpt lat="44.86439989467341" lon="6.630800193150326"><ele>1498.0</ele><time>2026-05-02T15:09:05.001Z</time></trkpt><trkpt lat="44.86431315568716" lon="6.63067646716533"><ele>1503.25</ele><time>2026-05-02T15:09:06.001Z</time></trkpt><trkpt lat="44.864219211609786" lon="6.63055668890953"><ele>1508.5</ele><time>2026-05-02T15:09:07.001Z</time></trkpt><trkpt lat="44.86411297631442" lon="6.630447810229547"><ele>1513.75</ele><time>2026-05-02T15:09:08.001Z</time></trkpt><trkpt lat="44.86399196231071" lon="6.6303270957657325"><ele>1519.0</ele><time>2026-05-02T15:09:09.001Z</time></trkpt><trkpt lat="44.86392250111534" lon="6.630176600345177"><ele>1519.0</ele><time>2026-05-02T15:09:10.001Z</time></trkpt><trkpt lat="44.8638702172781" lon="6.630066947896662"><ele>1519.0</ele><time>2026-05-02T15:09:11.001Z</time></trkpt><trkpt lat="44.86379796637759" lon="6.630013350842808"><ele>1519.0</ele><time>2026-05-02T15:09:12.001Z</time></trkpt><trkpt lat="44.863738709420105" lon="6.6299765107542505"><ele>1519.0</ele><time>2026-05-02T15:09:13.001Z</time></trkpt><trkpt lat="44.8636651696524" lon="6.629984392966595"><ele>1519.0</ele><time>2026-05-02T15:09:14.001Z</time></trkpt><trkpt lat="44.86359802151982" lon="6.629947087203899"><ele>1519.0</ele><time>2026-05-02T15:09:15.001Z</time></trkpt><trkpt lat="44.86355686999831" lon="6.62987854888691"><ele>1519.0</ele><time>2026-05-02T15:09:16.001Z</time></trkpt><trkpt lat="44.86354877720302" lon="6.62977987608479"><ele>1519.0</ele><time>2026-05-02T15:09:17.001Z</time></trkpt><trkpt lat="44.863552781461685" lon="6.629670882377188"><ele>1519.0</ele><time>2026-05-02T15:09:18.001Z</time></trkpt><trkpt lat="44.863543217086416" lon="6.6295647425923505"><ele>1519.0</ele><time>2026-05-02T15:09:19.001Z</time></trkpt><trkpt lat="44.86349136306646" lon="6.629471903553394"><ele>1519.0</ele><time>2026-05-02T15:09:20.001Z</time></trkpt><trkpt lat="44.863398676698885" lon="6.629379913211136"><ele>1519.0</ele><time>2026-05-02T15:09:21.001Z</time></trkpt><trkpt lat="44.8632855513674" lon="6.62928665047506"><ele>1523.25</ele><time>2026-05-02T15:09:22.001Z</time></trkpt><trkpt lat="44.86317621197935" lon="6.629160822639539"><ele>1527.5</ele><time>2026-05-02T15:09:23.001Z</time></trkpt><trkpt lat="44.86310022247651" lon="6.6290272960633985"><ele>1531.75</ele><time>2026-05-02T15:09:24.001Z</time></trkpt><trkpt lat="44.86303197314522" lon="6.6289000396873154"><ele>1536.0</ele><time>2026-05-02T15:09:25.001Z</time></trkpt><trkpt lat="44.862971310286504" lon="6.628787199875097"><ele>1536.0</ele><time>2026-05-02T15:09:26.001Z</time></trkpt><trkpt lat="44.86292028727203" lon="6.628672630668474"><ele>1536.0</ele><time>2026-05-02T15:09:27.001Z</time></trkpt><trkpt lat="44.86290614846787" lon="6.628550831446992"><ele>1536.0</ele><time>2026-05-02T15:09:28.001Z</time></trkpt><trkpt lat="44.86292397847042" lon="6.628405433120944"><ele>1536.0</ele><time>2026-05-02T15:09:29.001Z</time></trkpt><trkpt lat="44.862943380436285" lon="6.628307706460784"><ele>1536.0</ele><time>2026-05-02T15:09:30.001Z</time></trkpt><trkpt lat="44.862854619821924" lon="6.62820281689506"><ele>1535.7142857142856</ele><time>2026-05-02T15:09:32.001Z</time></trkpt><trkpt lat="44.86277795777697" lon="6.6281910190428555"><ele>1535.4285714285713</ele><time>2026-05-02T15:09:33.001Z</time></trkpt><trkpt lat="44.862696939776356" lon="6.628209297818812"><ele>1535.142857142857</ele><time>2026-05-02T15:09:34.001Z</time></trkpt><trkpt lat="44.86263440078199" lon="6.628241304908533"><ele>1534.8571428571427</ele><time>2026-05-02T15:09:35.001Z</time></trkpt><trkpt lat="44.86258880407244" lon="6.628305967046281"><ele>1534.5714285714287</ele><time>2026-05-02T15:09:36.001Z</time></trkpt><trkpt lat="44.86256403576332" lon="6.6283922407937155"><ele>1534.2857142857142</ele><time>2026-05-02T15:09:37.001Z</time></trkpt><trkpt lat="44.86253165040599" lon="6.628479491382572"><ele>1534.0</ele><time>2026-05-02T15:09:38.001Z</time></trkpt><trkpt lat="44.862482644966455" lon="6.628567646347356"><ele>1538.8000000000002</ele><time>2026-05-02T15:09:39.001Z</time></trkpt><trkpt lat="44.86240513143577" lon="6.628646816639372"><ele>1543.6000000000001</ele><time>2026-05-02T15:09:40.001Z</time></trkpt><trkpt lat="44.86230808786072" lon="6.6286979425344175"><ele>1548.4</ele><time>2026-05-02T15:09:41.001Z</time></trkpt><trkpt lat="44.862192768416676" lon="6.628735105091614"><ele>1553.2</ele><time>2026-05-02T15:09:42.001Z</time></trkpt><trkpt lat="44.862100812286144" lon="6.628751420671632"><ele>1558.0</ele><time>2026-05-02T15:09:43.001Z</time></trkpt><trkpt lat="44.862020253920754" lon="6.628745774901669"><ele>1558.0000000000002</ele><time>2026-05-02T15:09:44.001Z</time></trkpt><trkpt lat="44.86195742580941" lon="6.6287202786604045"><ele>1558.0</ele><time>2026-05-02T15:09:45.001Z</time></trkpt><trkpt lat="44.861896101752706" lon="6.628666377642908"><ele>1558.0</ele><time>2026-05-02T15:09:46.001Z</time></trkpt><trkpt lat="44.86185474498691" lon="6.628569647186769"><ele>1558.0</ele><time>2026-05-02T15:09:47.001Z</time></trkpt><trkpt lat="44.861830885628834" lon="6.628447315611127"><ele>1558.0000000000002</ele><time>2026-05-02T15:09:48.001Z</time></trkpt><trkpt lat="44.86181033317413" lon="6.628304778641827"><ele>1558.0</ele><time>2026-05-02T15:09:49.001Z</time></trkpt><trkpt lat="44.8618132274418" lon="6.628126436025366"><ele>1553.2</ele><time>2026-05-02T15:09:50.001Z</time></trkpt><trkpt lat="44.861840952269326" lon="6.627953754547989"><ele>1548.4</ele><time>2026-05-02T15:09:51.001Z</time></trkpt><trkpt lat="44.86185890786415" lon="6.62777909170182"><ele>1543.6000000000001</ele><time>2026-05-02T15:09:52.001Z</time></trkpt><trkpt lat="44.86189048601187" lon="6.627632354034738"><ele>1538.8000000000002</ele><time>2026-05-02T15:09:53Z</time></trkpt><trkpt lat="44.861900603142004" lon="6.627530335188247"><ele>1534.0</ele><time>2026-05-02T15:09:54Z</time></trkpt><trkpt lat="44.8618750890726" lon="6.627367352230478"><ele>1531.6666666666665</ele><time>2026-05-02T15:09:56Z</time></trkpt><trkpt lat="44.86182430604509" lon="6.627311355804205"><ele>1529.3333333333333</ele><time>2026-05-02T15:09:57Z</time></trkpt><trkpt lat="44.861763798982025" lon="6.627257296064535"><ele>1527.0</ele><time>2026-05-02T15:09:58Z</time></trkpt><trkpt lat="44.86169478905471" lon="6.627179431044484"><ele>1524.6666666666667</ele><time>2026-05-02T15:09:59Z</time></trkpt><trkpt lat="44.86163689261558" lon="6.627130675822074"><ele>1522.3333333333335</ele><time>2026-05-02T15:10:00Z</time></trkpt><trkpt lat="44.86156819781148" lon="6.627140056404779"><ele>1520.0</ele><time>2026-05-02T15:10:02Z</time></trkpt><trkpt lat="44.86148055250619" lon="6.62708542810583"><ele>1524.5</ele><time>2026-05-02T15:10:26Z</time></trkpt><trkpt lat="44.86142191179047" lon="6.6269650584465785"><ele>1529.0</ele><time>2026-05-02T15:10:28Z</time></trkpt><trkpt lat="44.86134467537588" lon="6.626940327121755"><ele>1533.5</ele><time>2026-05-02T15:10:30Z</time></trkpt><trkpt lat="44.86128767560984" lon="6.626857410751809"><ele>1538.0</ele><time>2026-05-02T15:10:32Z</time></trkpt><trkpt lat="44.86121809279926" lon="6.626812166297198"><ele>1542.4999999999998</ele><time>2026-05-02T15:10:34Z</time></trkpt><trkpt lat="44.86115517955541" lon="6.626749591790926"><ele>1547.0</ele><time>2026-05-02T15:10:36Z</time></trkpt><trkpt lat="44.86112227521431" lon="6.6265468111134265"><ele>1547.0</ele><time>2026-05-02T15:10:38Z</time></trkpt><trkpt lat="44.86109697525728" lon="6.6264162248363645"><ele>1547.0</ele><time>2026-05-02T15:10:39Z</time></trkpt><trkpt lat="44.86105077794034" lon="6.626310078884489"><ele>1547.0</ele><time>2026-05-02T15:10:40Z</time></trkpt><trkpt lat="44.860982169667224" lon="6.6261742621191955"><ele>1547.0</ele><time>2026-05-02T15:10:41Z</time></trkpt><trkpt lat="44.86089029317297" lon="6.626014214359589"><ele>1547.0</ele><time>2026-05-02T15:10:42Z</time></trkpt><trkpt lat="44.86080994221318" lon="6.6258566711822295"><ele>1552.0</ele><time>2026-05-02T15:10:43Z</time></trkpt><trkpt lat="44.8607388462197" lon="6.625716426871703"><ele>1557.0</ele><time>2026-05-02T15:10:44Z</time></trkpt><trkpt lat="44.86071007711579" lon="6.625623087017063"><ele>1562.0</ele><time>2026-05-02T15:10:45Z</time></trkpt><trkpt lat="44.86062400643283" lon="6.6255075319547725"><ele>1567.0</ele><time>2026-05-02T15:10:47Z</time></trkpt><trkpt lat="44.860539458601636" lon="6.625497825619458"><ele>1572.0</ele><time>2026-05-02T15:10:48Z</time></trkpt><trkpt lat="44.860467286603374" lon="6.62545371053672"><ele>1572.0</ele><time>2026-05-02T15:10:49Z</time></trkpt><trkpt lat="44.8603770968363" lon="6.625415895234033"><ele>1572.0</ele><time>2026-05-02T15:10:50Z</time></trkpt><trkpt lat="44.860302229506715" lon="6.625387034060566"><ele>1572.0</ele><time>2026-05-02T15:10:51Z</time></trkpt><trkpt lat="44.860254225175495" lon="6.62530495846643"><ele>1572.0</ele><time>2026-05-02T15:10:52Z</time></trkpt><trkpt lat="44.860221715717906" lon="6.6252093895112925"><ele>1572.0</ele><time>2026-05-02T15:10:53Z</time></trkpt><trkpt lat="44.86023418198101" lon="6.625108653584138"><ele>1572.0</ele><time>2026-05-02T15:10:55Z</time></trkpt><trkpt lat="44.860227905186534" lon="6.6250113674442686"><ele>1569.6666666666667</ele><time>2026-05-02T15:11:14Z</time></trkpt><trkpt lat="44.86024811067133" lon="6.624863699293427"><ele>1567.3333333333335</ele><time>2026-05-02T15:11:16Z</time></trkpt><trkpt lat="44.86026426065857" lon="6.624770058225328"><ele>1565.0</ele><time>2026-05-02T15:11:19Z</time></trkpt><trkpt lat="44.86028339724604" lon="6.62465669592724"><ele>1562.6666666666667</ele><time>2026-05-02T15:11:22Z</time></trkpt><trkpt lat="44.860344720753275" lon="6.624625800968805"><ele>1560.3333333333335</ele><time>2026-05-02T15:11:24Z</time></trkpt><trkpt lat="44.86027733399505" lon="6.624716786102054"><ele>1558.0</ele><time>2026-05-02T15:11:32Z</time></trkpt><trkpt lat="44.86025921581527" lon="6.624895125073473"><ele>1558.0000000000002</ele><time>2026-05-02T15:11:34.001Z</time></trkpt><trkpt lat="44.860252493282196" lon="6.6250001469341475"><ele>1558.0</ele><time>2026-05-02T15:11:35.001Z</time></trkpt><trkpt lat="44.860240304871056" lon="6.625094297800607"><ele>1558.0</ele><time>2026-05-02T15:11:37.001Z</time></trkpt><trkpt lat="44.860192861552676" lon="6.625011010988859"><ele>1558.0</ele><time>2026-05-02T15:11:41.001Z</time></trkpt><trkpt lat="44.86020303459167" lon="6.624921959443851"><ele>1558.0000000000002</ele><time>2026-05-02T15:11:42.001Z</time></trkpt><trkpt lat="44.86019168037179" lon="6.624736734868685"><ele>1558.0</ele><time>2026-05-02T15:11:44.001Z</time></trkpt><trkpt lat="44.86014710078031" lon="6.62466306196602"><ele>1561.0</ele><time>2026-05-02T15:11:45.001Z</time></trkpt><trkpt lat="44.8600774403479" lon="6.624609479820176"><ele>1564.0</ele><time>2026-05-02T15:11:46.001Z</time></trkpt><trkpt lat="44.85997635215528" lon="6.62457376489653"><ele>1567.0</ele><time>2026-05-02T15:11:47.001Z</time></trkpt><trkpt lat="44.859877719786645" lon="6.624508921373699"><ele>1570.0</ele><time>2026-05-02T15:11:48.001Z</time></trkpt><trkpt lat="44.859801121907026" lon="6.624424408717356"><ele>1573.0</ele><time>2026-05-02T15:11:49.001Z</time></trkpt><trkpt lat="44.85976024211648" lon="6.624340219101327"><ele>1573.0</ele><time>2026-05-02T15:11:50.001Z</time></trkpt><trkpt lat="44.85976055428121" lon="6.624158374735109"><ele>1573.0</ele><time>2026-05-02T15:11:52.001Z</time></trkpt><trkpt lat="44.85977357632207" lon="6.624039329296304"><ele>1573.0</ele><time>2026-05-02T15:11:53.001Z</time></trkpt><trkpt lat="44.85978240174967" lon="6.623877504062"><ele>1573.0</ele><time>2026-05-02T15:11:54.001Z</time></trkpt><trkpt lat="44.859778838578876" lon="6.623723834887858"><ele>1573.0</ele><time>2026-05-02T15:11:55.001Z</time></trkpt><trkpt lat="44.8597787896161" lon="6.623590907852627"><ele>1572.6666666666667</ele><time>2026-05-02T15:11:56.001Z</time></trkpt><trkpt lat="44.85977381271916" lon="6.623472566244971"><ele>1572.3333333333335</ele><time>2026-05-02T15:11:57.001Z</time></trkpt><trkpt lat="44.8597507375075" lon="6.623380258230128"><ele>1572.0</ele><time>2026-05-02T15:11:58.001Z</time></trkpt><trkpt lat="44.859701143208014" lon="6.62330129073844"><ele>1571.6666666666665</ele><time>2026-05-02T15:12:01Z</time></trkpt><trkpt lat="44.859755140745555" lon="6.623194516378347"><ele>1571.3333333333333</ele><time>2026-05-02T15:13:03Z</time></trkpt><trkpt lat="44.85981972984993" lon="6.623153414358736"><ele>1571.0</ele><time>2026-05-02T15:13:05Z</time></trkpt><trkpt lat="44.85987492897518" lon="6.623098841488752"><ele>1570.9999999999998</ele><time>2026-05-02T15:13:07Z</time></trkpt><trkpt lat="44.8599287742651" lon="6.623051511467212"><ele>1571.0</ele><time>2026-05-02T15:13:09Z</time></trkpt><trkpt lat="44.859998017838585" lon="6.622991333718673"><ele>1571.0</ele><time>2026-05-02T15:13:12Z</time></trkpt><trkpt lat="44.860072420342384" lon="6.622968118552777"><ele>1571.0</ele><time>2026-05-02T15:13:15Z</time></trkpt><trkpt lat="44.86010016801624" lon="6.622856892367963"><ele>1570.9999999999998</ele><time>2026-05-02T15:13:19Z</time></trkpt><trkpt lat="44.86007791389383" lon="6.622736937081211"><ele>1571.0</ele><time>2026-05-02T15:13:21Z</time></trkpt><trkpt lat="44.86002489579777" lon="6.6225878635872935"><ele>1569.1666666666665</ele><time>2026-05-02T15:13:23Z</time></trkpt><trkpt lat="44.85999160672455" lon="6.622511143654177"><ele>1567.3333333333333</ele><time>2026-05-02T15:13:24Z</time></trkpt><trkpt lat="44.859958896116986" lon="6.622431424654498"><ele>1565.5</ele><time>2026-05-02T15:13:25Z</time></trkpt><trkpt lat="44.85992243715144" lon="6.6223503851664764"><ele>1563.6666666666665</ele><time>2026-05-02T15:13:26Z</time></trkpt><trkpt lat="44.85988051495245" lon="6.622227524492821"><ele>1561.8333333333333</ele><time>2026-05-02T15:13:28Z</time></trkpt><trkpt lat="44.8599155603842" lon="6.6221071422566045"><ele>1560.0</ele><time>2026-05-02T15:13:33Z</time></trkpt><trkpt lat="44.85998377136024" lon="6.622051152534356"><ele>1560.0</ele><time>2026-05-02T15:13:37Z</time></trkpt><trkpt lat="44.86005053402291" lon="6.622024795717904"><ele>1560.0</ele><time>2026-05-02T15:13:40Z</time></trkpt><trkpt lat="44.860013536979274" lon="6.621924770637109"><ele>1560.0</ele><time>2026-05-02T15:13:44Z</time></trkpt><trkpt lat="44.85993342713004" lon="6.621912044435107"><ele>1560.0</ele><time>2026-05-02T15:13:47Z</time></trkpt><trkpt lat="44.859846152074546" lon="6.621918665918319"><ele>1560.0</ele><time>2026-05-02T15:13:49Z</time></trkpt><trkpt lat="44.85974095525108" lon="6.621851584102256"><ele>1560.0</ele><time>2026-05-02T15:13:51Z</time></trkpt><trkpt lat="44.85964949972049" lon="6.621734822813105"><ele>1555.8</ele><time>2026-05-02T15:13:53Z</time></trkpt><trkpt lat="44.85956513625786" lon="6.6216427375011815"><ele>1551.6</ele><time>2026-05-02T15:13:55Z</time></trkpt><trkpt lat="44.85949778138667" lon="6.62151616996764"><ele>1547.4</ele><time>2026-05-02T15:13:57Z</time></trkpt><trkpt lat="44.85945918316517" lon="6.6213557525161"><ele>1543.2</ele><time>2026-05-02T15:13:59Z</time></trkpt><trkpt lat="44.859466007068825" lon="6.621248985756745"><ele>1539.0</ele><time>2026-05-02T15:14:01.001Z</time></trkpt><trkpt lat="44.85944454780931" lon="6.621152174430666"><ele>1541.0</ele><time>2026-05-02T15:14:03.001Z</time></trkpt><trkpt lat="44.859421213392906" lon="6.621055368299279"><ele>1543.0</ele><time>2026-05-02T15:14:06Z</time></trkpt><trkpt lat="44.85940460367489" lon="6.620963448215053"><ele>1545.0</ele><time>2026-05-02T15:14:08Z</time></trkpt><trkpt lat="44.85935167376443" lon="6.620851231608048"><ele>1547.0</ele><time>2026-05-02T15:14:11Z</time></trkpt><trkpt lat="44.85931428255353" lon="6.620709559761204"><ele>1549.0</ele><time>2026-05-02T15:14:13Z</time></trkpt><trkpt lat="44.85926960247344" lon="6.620592170446705"><ele>1551.0</ele><time>2026-05-02T15:14:14Z</time></trkpt><trkpt lat="44.85921364326002" lon="6.620468172571708"><ele>1551.0</ele><time>2026-05-02T15:14:15Z</time></trkpt><trkpt lat="44.85916674839633" lon="6.620370476041547"><ele>1551.0</ele><time>2026-05-02T15:14:16Z</time></trkpt><trkpt lat="44.8591131795984" lon="6.620272974146593"><ele>1551.0</ele><time>2026-05-02T15:14:17Z</time></trkpt><trkpt lat="44.85904698690854" lon="6.62014826963491"><ele>1551.0</ele><time>2026-05-02T15:14:19Z</time></trkpt><trkpt lat="44.858946967199955" lon="6.620077841426327"><ele>1551.0</ele><time>2026-05-02T15:14:21Z</time></trkpt><trkpt lat="44.858873947835654" lon="6.62001309997753"><ele>1547.5</ele><time>2026-05-02T15:14:22Z</time></trkpt><trkpt lat="44.85881870704277" lon="6.619925312375755"><ele>1544.0</ele><time>2026-05-02T15:14:23Z</time></trkpt><trkpt lat="44.85878695680108" lon="6.619838031548415"><ele>1540.5</ele><time>2026-05-02T15:14:24Z</time></trkpt><trkpt lat="44.858738266049336" lon="6.619668637906323"><ele>1537.0</ele><time>2026-05-02T15:14:26Z</time></trkpt><trkpt lat="44.858711348981046" lon="6.619583350518485"><ele>1533.5</ele><time>2026-05-02T15:14:27Z</time></trkpt><trkpt lat="44.85866304832725" lon="6.619498400344111"><ele>1530.0</ele><time>2026-05-02T15:14:28Z</time></trkpt><trkpt lat="44.85860695605988" lon="6.619442122170348"><ele>1532.1666666666667</ele><time>2026-05-02T15:14:29Z</time></trkpt><trkpt lat="44.85852663331791" lon="6.619391517135798"><ele>1534.3333333333335</ele><time>2026-05-02T15:14:30Z</time></trkpt><trkpt lat="44.858457863132855" lon="6.619349208574865"><ele>1536.5</ele><time>2026-05-02T15:14:31Z</time></trkpt><trkpt lat="44.85840214814131" lon="6.619301153359578"><ele>1538.6666666666667</ele><time>2026-05-02T15:14:32Z</time></trkpt><trkpt lat="44.85835996002613" lon="6.619201171205549"><ele>1540.8333333333335</ele><time>2026-05-02T15:14:34Z</time></trkpt><trkpt lat="44.8583766819115" lon="6.619111648708399"><ele>1543.0</ele><time>2026-05-02T15:14:35Z</time></trkpt><trkpt lat="44.85841338266856" lon="6.619012710172446"><ele>1543.0</ele><time>2026-05-02T15:14:36Z</time></trkpt><trkpt lat="44.858449110332366" lon="6.618892111620133"><ele>1543.0</ele><time>2026-05-02T15:14:37Z</time></trkpt><trkpt lat="44.85847874012814" lon="6.618798105557253"><ele>1543.0</ele><time>2026-05-02T15:14:38Z</time></trkpt><trkpt lat="44.85848126372644" lon="6.618646108931495"><ele>1543.0</ele><time>2026-05-02T15:14:40Z</time></trkpt><trkpt lat="44.858510791275656" lon="6.618465874054714"><ele>1543.0</ele><time>2026-05-02T15:14:42Z</time></trkpt><trkpt lat="44.8585379757308" lon="6.618337389300653"><ele>1535.8333333333335</ele><time>2026-05-02T15:14:43Z</time></trkpt><trkpt lat="44.85856044640713" lon="6.618240768865839"><ele>1528.6666666666667</ele><time>2026-05-02T15:14:44Z</time></trkpt><trkpt lat="44.85860080195442" lon="6.618137659181199"><ele>1521.5</ele><time>2026-05-02T15:14:45Z</time></trkpt><trkpt lat="44.8586408582115" lon="6.6179882779348125"><ele>1514.3333333333335</ele><time>2026-05-02T15:14:47Z</time></trkpt><trkpt lat="44.858637978246165" lon="6.617896554217062"><ele>1507.1666666666667</ele><time>2026-05-02T15:14:48Z</time></trkpt><trkpt lat="44.85858953420349" lon="6.617770674769166"><ele>1500.0</ele><time>2026-05-02T15:14:50Z</time></trkpt><trkpt lat="44.858485576676394" lon="6.617717474607222"><ele>1507.1666666666667</ele><time>2026-05-02T15:14:52Z</time></trkpt><trkpt lat="44.8584263520303" lon="6.6176738712424"><ele>1514.3333333333335</ele><time>2026-05-02T15:14:53Z</time></trkpt><trkpt lat="44.85839296543054" lon="6.61758089730732"><ele>1521.5</ele><time>2026-05-02T15:14:54Z</time></trkpt><trkpt lat="44.858365569207415" lon="6.617453465817133"><ele>1528.6666666666667</ele><time>2026-05-02T15:14:55Z</time></trkpt><trkpt lat="44.858361075313404" lon="6.617340264561688"><ele>1535.8333333333335</ele><time>2026-05-02T15:14:56Z</time></trkpt><trkpt lat="44.858378227259216" lon="6.617219013708942"><ele>1543.0</ele><time>2026-05-02T15:14:57Z</time></trkpt><trkpt lat="44.858382914325894" lon="6.617123038411579"><ele>1543.0000000000002</ele><time>2026-05-02T15:14:58Z</time></trkpt><trkpt lat="44.85836758429921" lon="6.617026359850262"><ele>1543.0</ele><time>2026-05-02T15:14:59Z</time></trkpt><trkpt lat="44.85834913715961" lon="6.616928489114883"><ele>1543.0</ele><time>2026-05-02T15:15:00Z</time></trkpt><trkpt lat="44.85832368257826" lon="6.6168057109565614"><ele>1543.0</ele><time>2026-05-02T15:15:02Z</time></trkpt><trkpt lat="44.858297981407" lon="6.616723805398244"><ele>1543.0000000000002</ele><time>2026-05-02T15:15:06Z</time></trkpt><trkpt lat="44.858323791031005" lon="6.616510650069613"><ele>1543.0</ele><time>2026-05-02T15:15:20Z</time></trkpt><trkpt lat="44.85832781826768" lon="6.6163917959943825"><ele>1543.1666666666667</ele><time>2026-05-02T15:15:21Z</time></trkpt><trkpt lat="44.85833242865886" lon="6.616254111120921"><ele>1543.3333333333335</ele><time>2026-05-02T15:15:22Z</time></trkpt><trkpt lat="44.858349448623834" lon="6.616122937885411"><ele>1543.5</ele><time>2026-05-02T15:15:23Z</time></trkpt><trkpt lat="44.85834746259029" lon="6.61601029116771"><ele>1543.6666666666665</ele><time>2026-05-02T15:15:24Z</time></trkpt><trkpt lat="44.85833914979174" lon="6.6158950564632795"><ele>1543.8333333333333</ele><time>2026-05-02T15:15:25Z</time></trkpt><trkpt lat="44.858342993244825" lon="6.615765594010983"><ele>1544.0</ele><time>2026-05-02T15:15:26Z</time></trkpt><trkpt lat="44.85835481915494" lon="6.615618876313406"><ele>1544.4</ele><time>2026-05-02T15:15:27Z</time></trkpt><trkpt lat="44.85836626920741" lon="6.615493970201387"><ele>1544.8000000000002</ele><time>2026-05-02T15:15:28Z</time></trkpt><trkpt lat="44.85835467856958" lon="6.6153935227232905"><ele>1545.1999999999998</ele><time>2026-05-02T15:15:29Z</time></trkpt><trkpt lat="44.85830884079688" lon="6.615279918017911"><ele>1545.6</ele><time>2026-05-02T15:15:30Z</time></trkpt><trkpt lat="44.85825290661346" lon="6.6151529449133895"><ele>1546.0</ele><time>2026-05-02T15:15:31Z</time></trkpt><trkpt lat="44.858218202593015" lon="6.61501106652569"><ele>1545.1666666666667</ele><time>2026-05-02T15:15:32Z</time></trkpt><trkpt lat="44.85821419189984" lon="6.614906948692868"><ele>1544.3333333333335</ele><time>2026-05-02T15:15:33Z</time></trkpt><trkpt lat="44.85820775927184" lon="6.614801660156639"><ele>1543.5</ele><time>2026-05-02T15:15:34Z</time></trkpt><trkpt lat="44.85819246590544" lon="6.614688810348205"><ele>1542.6666666666665</ele><time>2026-05-02T15:15:35Z</time></trkpt><trkpt lat="44.85817544630286" lon="6.614565922047401"><ele>1541.8333333333333</ele><time>2026-05-02T15:15:36Z</time></trkpt><trkpt lat="44.85818717626672" lon="6.61444880027714"><ele>1541.0</ele><time>2026-05-02T15:15:37Z</time></trkpt><trkpt lat="44.858146521248194" lon="6.614285785500284"><ele>1540.0</ele><time>2026-05-02T15:15:39Z</time></trkpt><trkpt lat="44.85807947184987" lon="6.614196767703866"><ele>1539.0</ele><time>2026-05-02T15:15:40Z</time></trkpt><trkpt lat="44.85800700281398" lon="6.614100381665302"><ele>1538.0</ele><time>2026-05-02T15:15:41Z</time></trkpt><trkpt lat="44.857971102878" lon="6.613964619908061"><ele>1537.0</ele><time>2026-05-02T15:15:42Z</time></trkpt><trkpt lat="44.85795709012894" lon="6.613818834158896"><ele>1536.0</ele><time>2026-05-02T15:15:43Z</time></trkpt><trkpt lat="44.857963994218174" lon="6.613686964096423"><ele>1532.6</ele><time>2026-05-02T15:15:44Z</time></trkpt><trkpt lat="44.857964749786255" lon="6.613584052797104"><ele>1529.1999999999998</ele><time>2026-05-02T15:15:45Z</time></trkpt><trkpt lat="44.85793041714838" lon="6.613458370431876"><ele>1525.8000000000002</ele><time>2026-05-02T15:15:46Z</time></trkpt><trkpt lat="44.857865514514636" lon="6.61331337759599"><ele>1522.4</ele><time>2026-05-02T15:15:47Z</time></trkpt><trkpt lat="44.85780861338733" lon="6.613124229272839"><ele>1519.0</ele><time>2026-05-02T15:15:48Z</time></trkpt><trkpt lat="44.85774933328162" lon="6.612946797754727"><ele>1513.5</ele><time>2026-05-02T15:15:49Z</time></trkpt><trkpt lat="44.85768834928452" lon="6.612750619046024"><ele>1508.0</ele><time>2026-05-02T15:15:50Z</time></trkpt><trkpt lat="44.85762916957935" lon="6.6125789238870425"><ele>1502.5</ele><time>2026-05-02T15:15:51Z</time></trkpt><trkpt lat="44.8575706059096" lon="6.612442059424702"><ele>1497.0</ele><time>2026-05-02T15:15:52Z</time></trkpt><trkpt lat="44.857519334193825" lon="6.612321194310133"><ele>1500.0</ele><time>2026-05-02T15:15:53Z</time></trkpt><trkpt lat="44.85746656761005" lon="6.612211099518362"><ele>1503.0</ele><time>2026-05-02T15:15:54Z</time></trkpt><trkpt lat="44.857427763912824" lon="6.612113418236001"><ele>1506.0</ele><time>2026-05-02T15:15:55Z</time></trkpt><trkpt lat="44.85738789700383" lon="6.612032557281369"><ele>1509.0</ele><time>2026-05-02T15:15:56Z</time></trkpt><trkpt lat="44.857331699225526" lon="6.611919633098666"><ele>1512.0</ele><time>2026-05-02T15:15:57Z</time></trkpt><trkpt lat="44.85727240495318" lon="6.611812633500335"><ele>1515.0</ele><time>2026-05-02T15:15:58Z</time></trkpt><trkpt lat="44.857206261030804" lon="6.611698238150578"><ele>1515.0</ele><time>2026-05-02T15:15:59Z</time></trkpt><trkpt lat="44.85714323359121" lon="6.611579805177249"><ele>1515.0</ele><time>2026-05-02T15:16:00Z</time></trkpt><trkpt lat="44.857083755789716" lon="6.611461937155299"><ele>1515.0</ele><time>2026-05-02T15:16:01Z</time></trkpt><trkpt lat="44.85703274743164" lon="6.611361328180003"><ele>1515.0</ele><time>2026-05-02T15:16:02Z</time></trkpt><trkpt lat="44.8569734099405" lon="6.611273135855871"><ele>1515.0</ele><time>2026-05-02T15:16:03Z</time></trkpt><trkpt lat="44.856917409545254" lon="6.611196461008724"><ele>1515.5</ele><time>2026-05-02T15:16:04Z</time></trkpt><trkpt lat="44.8568573365681" lon="6.611135866307026"><ele>1516.0</ele><time>2026-05-02T15:16:05Z</time></trkpt><trkpt lat="44.856785424018" lon="6.611079224141537"><ele>1516.5</ele><time>2026-05-02T15:16:06Z</time></trkpt><trkpt lat="44.85670957188958" lon="6.611030354874476"><ele>1517.0</ele><time>2026-05-02T15:16:07Z</time></trkpt><trkpt lat="44.8566351990076" lon="6.6109481361002915"><ele>1517.5</ele><time>2026-05-02T15:16:08Z</time></trkpt><trkpt lat="44.85656220326917" lon="6.610846336921962"><ele>1518.0</ele><time>2026-05-02T15:16:09Z</time></trkpt><trkpt lat="44.856496435757876" lon="6.610753111191866"><ele>1518.0</ele><time>2026-05-02T15:16:10Z</time></trkpt><trkpt lat="44.85644134637738" lon="6.610673468462386"><ele>1518.0</ele><time>2026-05-02T15:16:11Z</time></trkpt><trkpt lat="44.85638845264552" lon="6.610592418983771"><ele>1518.0</ele><time>2026-05-02T15:16:12Z</time></trkpt><trkpt lat="44.856356005784825" lon="6.610494806043724"><ele>1518.0</ele><time>2026-05-02T15:16:13Z</time></trkpt><trkpt lat="44.856333236013825" lon="6.610362150686198"><ele>1518.0</ele><time>2026-05-02T15:16:14Z</time></trkpt><trkpt lat="44.85632770948095" lon="6.61025939099389"><ele>1518.0</ele><time>2026-05-02T15:16:15Z</time></trkpt><trkpt lat="44.85634050889965" lon="6.610168393981919"><ele>1515.0</ele><time>2026-05-02T15:16:16Z</time></trkpt><trkpt lat="44.856406796981794" lon="6.609991384981431"><ele>1512.0</ele><time>2026-05-02T15:16:18Z</time></trkpt><trkpt lat="44.85648052476255" lon="6.609929603858567"><ele>1509.0</ele><time>2026-05-02T15:16:19Z</time></trkpt><trkpt lat="44.85654904591185" lon="6.609898638760517"><ele>1506.0</ele><time>2026-05-02T15:16:20Z</time></trkpt><trkpt lat="44.8566431572442" lon="6.609805059070995"><ele>1503.0</ele><time>2026-05-02T15:16:22Z</time></trkpt><trkpt lat="44.85670225186025" lon="6.609701303892417"><ele>1503.0</ele><time>2026-05-02T15:16:24Z</time></trkpt><trkpt lat="44.856734749146895" lon="6.609595768922465"><ele>1503.0</ele><time>2026-05-02T15:16:26Z</time></trkpt><trkpt lat="44.85682449134945" lon="6.609564291133399"><ele>1503.0</ele><time>2026-05-02T15:16:28Z</time></trkpt><trkpt lat="44.85688167682279" lon="6.609659703944198"><ele>1503.0</ele><time>2026-05-02T15:16:30Z</time></trkpt><trkpt lat="44.856875551823876" lon="6.609790926722712"><ele>1503.0</ele><time>2026-05-02T15:16:32Z</time></trkpt><trkpt lat="44.85687810377396" lon="6.609899725311271"><ele>1503.0</ele><time>2026-05-02T15:16:34Z</time></trkpt><trkpt lat="44.85688072447454" lon="6.6100174280842765"><ele>1496.0</ele><time>2026-05-02T15:16:36Z</time></trkpt><trkpt lat="44.856898418073435" lon="6.610131588906853"><ele>1489.0</ele><time>2026-05-02T15:16:38Z</time></trkpt><trkpt lat="44.856937537153044" lon="6.610216166622891"><ele>1482.0</ele><time>2026-05-02T15:16:41Z</time></trkpt><trkpt lat="44.85696087221562" lon="6.610133333728145"><ele>1475.0</ele><time>2026-05-02T15:16:53Z</time></trkpt><trkpt lat="44.856910762259155" lon="6.609999841453861"><ele>1468.0</ele><time>2026-05-02T15:16:55Z</time></trkpt><trkpt lat="44.856886616008204" lon="6.609835539692214"><ele>1461.0</ele><time>2026-05-02T15:16:57Z</time></trkpt><trkpt lat="44.85687713835842" lon="6.609713547927637"><ele>1461.0</ele><time>2026-05-02T15:16:58Z</time></trkpt><trkpt lat="44.85687024191769" lon="6.609618277574954"><ele>1461.0</ele><time>2026-05-02T15:16:59Z</time></trkpt><trkpt lat="44.856794293274085" lon="6.609565353976751"><ele>1461.0</ele><time>2026-05-02T15:17:01Z</time></trkpt><trkpt lat="44.856718675337284" lon="6.609614008552271"><ele>1461.0</ele><time>2026-05-02T15:17:03Z</time></trkpt><trkpt lat="44.856672064660145" lon="6.60969127163606"><ele>1461.0</ele><time>2026-05-02T15:17:04Z</time></trkpt><trkpt lat="44.85663244856552" lon="6.6097848262742005"><ele>1461.0</ele><time>2026-05-02T15:17:05Z</time></trkpt><trkpt lat="44.85660053176344" lon="6.609866382331001"><ele>1461.0</ele><time>2026-05-02T15:17:06Z</time></trkpt><trkpt lat="44.85654331015121" lon="6.609950803911299"><ele>1461.0</ele><time>2026-05-02T15:17:08Z</time></trkpt><trkpt lat="44.85659974370335" lon="6.609840375628298"><ele>1461.0</ele><time>2026-05-02T15:22:11Z</time></trkpt><trkpt lat="44.85667737058929" lon="6.609725036009955"><ele>1461.0</ele><time>2026-05-02T15:22:13Z</time></trkpt><trkpt lat="44.85672773387114" lon="6.609613321564246"><ele>1461.0</ele><time>2026-05-02T15:22:15Z</time></trkpt><trkpt lat="44.856815455661774" lon="6.6095597517708295"><ele>1461.0</ele><time>2026-05-02T15:22:17Z</time></trkpt><trkpt lat="44.8568872137646" lon="6.609634941729388"><ele>1461.0</ele><time>2026-05-02T15:22:19Z</time></trkpt><trkpt lat="44.856889849886805" lon="6.609766519961011"><ele>1461.0</ele><time>2026-05-02T15:22:21Z</time></trkpt><trkpt lat="44.85689456610933" lon="6.609926976805693"><ele>1461.0</ele><time>2026-05-02T15:22:23Z</time></trkpt><trkpt lat="44.85689785599095" lon="6.610077039148543"><ele>1461.0</ele><time>2026-05-02T15:22:25Z</time></trkpt><trkpt lat="44.8569506447218" lon="6.6102176474356"><ele>1461.0</ele><time>2026-05-02T15:22:27Z</time></trkpt><trkpt lat="44.857014518750915" lon="6.610259928586889"><ele>1461.0</ele><time>2026-05-02T15:22:28Z</time></trkpt><trkpt lat="44.85711603764742" lon="6.610329714209816"><ele>1461.0</ele><time>2026-05-02T15:22:30Z</time></trkpt><trkpt lat="44.857176510920915" lon="6.610375356321031"><ele>1461.0</ele><time>2026-05-02T15:22:31Z</time></trkpt><trkpt lat="44.85724286302372" lon="6.610447464571694"><ele>1461.0</ele><time>2026-05-02T15:22:32Z</time></trkpt><trkpt lat="44.85729435389752" lon="6.610513079494222"><ele>1461.0</ele><time>2026-05-02T15:22:33Z</time></trkpt><trkpt lat="44.85736833041981" lon="6.610600190137095"><ele>1464.142857142857</ele><time>2026-05-02T15:22:34Z</time></trkpt><trkpt lat="44.85742353250054" lon="6.61066491130818"><ele>1467.2857142857144</ele><time>2026-05-02T15:22:35Z</time></trkpt><trkpt lat="44.85750696105704" lon="6.610729894774803"><ele>1470.4285714285716</ele><time>2026-05-02T15:22:36Z</time></trkpt><trkpt lat="44.857556729805474" lon="6.610791621388158"><ele>1473.5714285714284</ele><time>2026-05-02T15:22:37Z</time></trkpt><trkpt lat="44.85761702076392" lon="6.610842625231606"><ele>1476.7142857142858</ele><time>2026-05-02T15:22:38Z</time></trkpt><trkpt lat="44.85767534958841" lon="6.610902020632253"><ele>1479.857142857143</ele><time>2026-05-02T15:22:39Z</time></trkpt><trkpt lat="44.857733104032256" lon="6.610947080005953"><ele>1483.0</ele><time>2026-05-02T15:22:40Z</time></trkpt><trkpt lat="44.85779378714898" lon="6.610983010290275"><ele>1479.8333333333333</ele><time>2026-05-02T15:22:41Z</time></trkpt><trkpt lat="44.85787766784911" lon="6.611011630831604"><ele>1476.6666666666665</ele><time>2026-05-02T15:22:42Z</time></trkpt><trkpt lat="44.85793958345899" lon="6.611049079448963"><ele>1473.5</ele><time>2026-05-02T15:22:43Z</time></trkpt><trkpt lat="44.85799998216082" lon="6.611092572344841"><ele>1470.3333333333333</ele><time>2026-05-02T15:22:44Z</time></trkpt><trkpt lat="44.85807892431547" lon="6.611127308572314"><ele>1467.1666666666667</ele><time>2026-05-02T15:22:45Z</time></trkpt><trkpt lat="44.85814984221212" lon="6.611176838119066"><ele>1464.0</ele><time>2026-05-02T15:22:46Z</time></trkpt><trkpt lat="44.85822207621034" lon="6.611238588839011"><ele>1464.0</ele><time>2026-05-02T15:22:47Z</time></trkpt><trkpt lat="44.85830322163998" lon="6.611314832066478"><ele>1464.0</ele><time>2026-05-02T15:22:48Z</time></trkpt><trkpt lat="44.85838245349659" lon="6.611382271924483"><ele>1464.0</ele><time>2026-05-02T15:22:49Z</time></trkpt><trkpt lat="44.85845815875807" lon="6.611441783805864"><ele>1464.0</ele><time>2026-05-02T15:22:50Z</time></trkpt><trkpt lat="44.858536527384004" lon="6.6115016362316625"><ele>1464.0</ele><time>2026-05-02T15:22:51Z</time></trkpt><trkpt lat="44.85864652830622" lon="6.611590388474877"><ele>1457.0</ele><time>2026-05-02T15:22:53Z</time></trkpt><trkpt lat="44.85871403941084" lon="6.611633696538532"><ele>1450.0</ele><time>2026-05-02T15:22:54Z</time></trkpt><trkpt lat="44.85877708370212" lon="6.611671890698995"><ele>1443.0</ele><time>2026-05-02T15:22:55Z</time></trkpt><trkpt lat="44.858846291429344" lon="6.611726740728064"><ele>1436.0</ele><time>2026-05-02T15:22:56Z</time></trkpt><trkpt lat="44.85890153972912" lon="6.611777205145876"><ele>1429.0</ele><time>2026-05-02T15:22:57Z</time></trkpt><trkpt lat="44.858960926639476" lon="6.611817631795152"><ele>1422.0</ele><time>2026-05-02T15:22:58Z</time></trkpt><trkpt lat="44.85905317690888" lon="6.611893112294945"><ele>1422.0</ele><time>2026-05-02T15:23:00Z</time></trkpt><trkpt lat="44.85910170303387" lon="6.612000196122198"><ele>1422.0</ele><time>2026-05-02T15:23:02Z</time></trkpt><trkpt lat="44.85916592901213" lon="6.612106579426283"><ele>1422.0</ele><time>2026-05-02T15:23:04Z</time></trkpt><trkpt lat="44.85923703007643" lon="6.612052308126038"><ele>1422.0</ele><time>2026-05-02T15:23:06Z</time></trkpt><trkpt lat="44.85924816081123" lon="6.611928769360558"><ele>1422.0</ele><time>2026-05-02T15:23:08Z</time></trkpt><trkpt lat="44.85918660216499" lon="6.611784415006752"><ele>1422.0</ele><time>2026-05-02T15:23:10Z</time></trkpt><trkpt lat="44.85912234791894" lon="6.611717745519753"><ele>1422.0</ele><time>2026-05-02T15:23:11Z</time></trkpt><trkpt lat="44.8590695531485" lon="6.611643921604854"><ele>1422.0</ele><time>2026-05-02T15:23:12Z</time></trkpt><trkpt lat="44.859005403408155" lon="6.6115531061341"><ele>1422.0</ele><time>2026-05-02T15:23:13Z</time></trkpt><trkpt lat="44.85895401034358" lon="6.611484464246993"><ele>1422.0</ele><time>2026-05-02T15:23:14Z</time></trkpt><trkpt lat="44.85889413814881" lon="6.611393036164189"><ele>1422.0</ele><time>2026-05-02T15:23:15Z</time></trkpt><trkpt lat="44.858846590232965" lon="6.611312609972273"><ele>1422.0</ele><time>2026-05-02T15:23:16Z</time></trkpt><trkpt lat="44.858795553301015" lon="6.611214231250149"><ele>1422.0</ele><time>2026-05-02T15:23:17Z</time></trkpt><trkpt lat="44.85873637643779" lon="6.611104667562924"><ele>1422.0</ele><time>2026-05-02T15:23:18Z</time></trkpt><trkpt lat="44.85867651333932" lon="6.61097104719699"><ele>1422.0</ele><time>2026-05-02T15:23:19Z</time></trkpt><trkpt lat="44.85863263469107" lon="6.610856796294522"><ele>1422.0</ele><time>2026-05-02T15:23:20Z</time></trkpt><trkpt lat="44.85859088821366" lon="6.6107635061944165"><ele>1421.1999999999998</ele><time>2026-05-02T15:23:21Z</time></trkpt><trkpt lat="44.858543698388274" lon="6.610665592413233"><ele>1420.4</ele><time>2026-05-02T15:23:22Z</time></trkpt><trkpt lat="44.858518186839035" lon="6.610536293072289"><ele>1419.6</ele><time>2026-05-02T15:23:23Z</time></trkpt><trkpt lat="44.85846765856892" lon="6.610432615877691"><ele>1418.8000000000002</ele><time>2026-05-02T15:23:24Z</time></trkpt><trkpt lat="44.85843684650781" lon="6.610344760881001"><ele>1418.0</ele><time>2026-05-02T15:23:25Z</time></trkpt><trkpt lat="44.8583755601197" lon="6.6102108928390955"><ele>1418.0000000000002</ele><time>2026-05-02T15:23:27Z</time></trkpt><trkpt lat="44.858315901869744" lon="6.61017374951489"><ele>1418.0</ele><time>2026-05-02T15:23:28Z</time></trkpt><trkpt lat="44.85824597896202" lon="6.610137630769772"><ele>1418.0</ele><time>2026-05-02T15:23:29Z</time></trkpt><trkpt lat="44.85817684869161" lon="6.6101303491169965"><ele>1418.0</ele><time>2026-05-02T15:23:30Z</time></trkpt><trkpt lat="44.85812494540638" lon="6.6100652525475665"><ele>1418.0</ele><time>2026-05-02T15:23:32Z</time></trkpt><trkpt lat="44.85816038014886" lon="6.609963640521215"><ele>1418.0000000000002</ele><time>2026-05-02T15:23:34Z</time></trkpt><trkpt lat="44.85824357492683" lon="6.60995541659126"><ele>1418.0</ele><time>2026-05-02T15:23:36Z</time></trkpt><trkpt lat="44.858323005476294" lon="6.610075151646008"><ele>1418.0</ele><time>2026-05-02T15:23:38Z</time></trkpt><trkpt lat="44.858391446286916" lon="6.610122179716535"><ele>1418.0</ele><time>2026-05-02T15:23:39Z</time></trkpt><trkpt lat="44.85846180501891" lon="6.610122104285559"><ele>1418.0</ele><time>2026-05-02T15:23:40Z</time></trkpt><trkpt lat="44.85853743232615" lon="6.61013649542051"><ele>1418.0</ele><time>2026-05-02T15:23:41Z</time></trkpt><trkpt lat="44.858591703080876" lon="6.610186729354265"><ele>1418.0</ele><time>2026-05-02T15:23:42Z</time></trkpt><trkpt lat="44.858651161416276" lon="6.610350659068656"><ele>1418.0</ele><time>2026-05-02T15:23:44Z</time></trkpt><trkpt lat="44.85872719736407" lon="6.61049798223355"><ele>1414.6000000000001</ele><time>2026-05-02T15:23:46Z</time></trkpt><trkpt lat="44.858802393457786" lon="6.610581114759251"><ele>1411.2</ele><time>2026-05-02T15:23:47Z</time></trkpt><trkpt lat="44.858903839345444" lon="6.610663275184307"><ele>1407.8</ele><time>2026-05-02T15:23:48Z</time></trkpt><trkpt lat="44.858965764452606" lon="6.610752207892875"><ele>1404.4</ele><time>2026-05-02T15:23:49Z</time></trkpt><trkpt lat="44.8590323510608" lon="6.610866327212084"><ele>1401.0</ele><time>2026-05-02T15:23:50Z</time></trkpt><trkpt lat="44.85910764388819" lon="6.61096402912555"><ele>1401.0</ele><time>2026-05-02T15:23:51Z</time></trkpt><trkpt lat="44.8591660836605" lon="6.611039701149154"><ele>1401.0</ele><time>2026-05-02T15:23:52Z</time></trkpt><trkpt lat="44.859221024271626" lon="6.611104330927138"><ele>1401.0</ele><time>2026-05-02T15:23:53Z</time></trkpt><trkpt lat="44.85929124942585" lon="6.61116772741565"><ele>1401.0</ele><time>2026-05-02T15:23:54Z</time></trkpt><trkpt lat="44.859374172238354" lon="6.611188120426284"><ele>1401.0</ele><time>2026-05-02T15:23:55Z</time></trkpt><trkpt lat="44.85944909691018" lon="6.611209356406947"><ele>1401.0</ele><time>2026-05-02T15:23:56Z</time></trkpt><trkpt lat="44.85951605622499" lon="6.61125105816774"><ele>1398.6666666666667</ele><time>2026-05-02T15:23:57Z</time></trkpt><trkpt lat="44.85957966718448" lon="6.611314467514823"><ele>1396.3333333333333</ele><time>2026-05-02T15:23:58Z</time></trkpt><trkpt lat="44.859635064021916" lon="6.611390784654656"><ele>1394.0</ele><time>2026-05-02T15:23:59Z</time></trkpt><trkpt lat="44.85966599868811" lon="6.6114736850578595"><ele>1391.6666666666665</ele><time>2026-05-02T15:24:00Z</time></trkpt><trkpt lat="44.85971226280668" lon="6.611567907709416"><ele>1389.3333333333333</ele><time>2026-05-02T15:24:01Z</time></trkpt><trkpt lat="44.85975781273849" lon="6.611655161689048"><ele>1387.0</ele><time>2026-05-02T15:24:02Z</time></trkpt><trkpt lat="44.85980781577499" lon="6.611727024949834"><ele>1387.0</ele><time>2026-05-02T15:24:03Z</time></trkpt><trkpt lat="44.85989840872481" lon="6.6117970273081665"><ele>1387.0</ele><time>2026-05-02T15:24:04Z</time></trkpt><trkpt lat="44.859993985304826" lon="6.611840279723504"><ele>1387.0</ele><time>2026-05-02T15:24:05Z</time></trkpt><trkpt lat="44.86008640791805" lon="6.611873876756372"><ele>1387.0</ele><time>2026-05-02T15:24:06Z</time></trkpt><trkpt lat="44.86018544351819" lon="6.6119218333194825"><ele>1387.0</ele><time>2026-05-02T15:24:07Z</time></trkpt><trkpt lat="44.860287348223316" lon="6.6119719107485775"><ele>1384.3999999999999</ele><time>2026-05-02T15:24:08Z</time></trkpt><trkpt lat="44.8603687255629" lon="6.611999586388909"><ele>1381.8</ele><time>2026-05-02T15:24:09Z</time></trkpt><trkpt lat="44.86048797336285" lon="6.612040806394703"><ele>1379.2</ele><time>2026-05-02T15:24:11Z</time></trkpt><trkpt lat="44.86058590369871" lon="6.612124340668726"><ele>1376.6</ele><time>2026-05-02T15:24:13Z</time></trkpt><trkpt lat="44.860638884548436" lon="6.612225539179995"><ele>1374.0</ele><time>2026-05-02T15:24:15Z</time></trkpt><trkpt lat="44.860697376418436" lon="6.6121510457090285"><ele>1374.0</ele><time>2026-05-02T15:24:18Z</time></trkpt><trkpt lat="44.86066539893733" lon="6.6120624461766875"><ele>1374.0</ele><time>2026-05-02T15:24:20Z</time></trkpt><trkpt lat="44.86061190551442" lon="6.61201176486062"><ele>1374.0</ele><time>2026-05-02T15:24:21Z</time></trkpt><trkpt lat="44.8605528618302" lon="6.611954659009305"><ele>1374.0</ele><time>2026-05-02T15:24:22Z</time></trkpt><trkpt lat="44.86048664420223" lon="6.611878407177882"><ele>1374.0</ele><time>2026-05-02T15:24:23Z</time></trkpt><trkpt lat="44.86040669879515" lon="6.61179724132426"><ele>1374.0</ele><time>2026-05-02T15:24:24Z</time></trkpt><trkpt lat="44.8603283871516" lon="6.6117323524622025"><ele>1376.1666666666667</ele><time>2026-05-02T15:24:25Z</time></trkpt><trkpt lat="44.86024804985677" lon="6.61168059001434"><ele>1378.3333333333333</ele><time>2026-05-02T15:24:26Z</time></trkpt><trkpt lat="44.86017832188863" lon="6.6116193618503"><ele>1380.5</ele><time>2026-05-02T15:24:27Z</time></trkpt><trkpt lat="44.86011331329771" lon="6.611534518393941"><ele>1382.6666666666665</ele><time>2026-05-02T15:24:28Z</time></trkpt><trkpt lat="44.86006477388299" lon="6.611447290492152"><ele>1384.8333333333333</ele><time>2026-05-02T15:24:29Z</time></trkpt><trkpt lat="44.86001819753554" lon="6.611346438462682"><ele>1387.0</ele><time>2026-05-02T15:24:30Z</time></trkpt><trkpt lat="44.85997022536619" lon="6.61124031099633"><ele>1383.1666666666665</ele><time>2026-05-02T15:24:31Z</time></trkpt><trkpt lat="44.85990779447924" lon="6.6111419055406975"><ele>1379.3333333333333</ele><time>2026-05-02T15:24:32Z</time></trkpt><trkpt lat="44.85986177052643" lon="6.611024391582724"><ele>1375.5</ele><time>2026-05-02T15:24:33Z</time></trkpt><trkpt lat="44.85983388125583" lon="6.610905241622559"><ele>1371.6666666666667</ele><time>2026-05-02T15:24:34Z</time></trkpt><trkpt lat="44.859802445621106" lon="6.610803545639992"><ele>1367.8333333333335</ele><time>2026-05-02T15:24:35Z</time></trkpt><trkpt lat="44.85976953209262" lon="6.610693984624253"><ele>1364.0</ele><time>2026-05-02T15:24:36Z</time></trkpt><trkpt lat="44.8597187134841" lon="6.610571201082569"><ele>1364.0</ele><time>2026-05-02T15:24:37Z</time></trkpt><trkpt lat="44.85966426615197" lon="6.610457138231227"><ele>1364.0</ele><time>2026-05-02T15:24:38Z</time></trkpt><trkpt lat="44.859643362800796" lon="6.6103544932883365"><ele>1364.0</ele><time>2026-05-02T15:24:39Z</time></trkpt><trkpt lat="44.85963476868689" lon="6.610259629885254"><ele>1364.0</ele><time>2026-05-02T15:24:40Z</time></trkpt><trkpt lat="44.85957043524533" lon="6.610151853740915"><ele>1364.0</ele><time>2026-05-02T15:24:42Z</time></trkpt><trkpt lat="44.859486573221076" lon="6.610093894020869"><ele>1364.0</ele><time>2026-05-02T15:24:44Z</time></trkpt><trkpt lat="44.859475304304944" lon="6.60997540749248"><ele>1364.0</ele><time>2026-05-02T15:24:46Z</time></trkpt><trkpt lat="44.85965932787033" lon="6.610059419081829"><ele>1364.0</ele><time>2026-05-02T15:26:09Z</time></trkpt><trkpt lat="44.859715023527166" lon="6.610153879429191"><ele>1364.0</ele><time>2026-05-02T15:26:10Z</time></trkpt><trkpt lat="44.85976620640275" lon="6.610233173924236"><ele>1364.0</ele><time>2026-05-02T15:26:11Z</time></trkpt><trkpt lat="44.859810134327645" lon="6.610331432397401"><ele>1364.0</ele><time>2026-05-02T15:26:12Z</time></trkpt><trkpt lat="44.85985426514325" lon="6.610415077527554"><ele>1364.0</ele><time>2026-05-02T15:26:13Z</time></trkpt><trkpt lat="44.85991636672207" lon="6.610468786517361"><ele>1364.0</ele><time>2026-05-02T15:26:14Z</time></trkpt><trkpt lat="44.85998193752373" lon="6.610524849950504"><ele>1364.0</ele><time>2026-05-02T15:26:15Z</time></trkpt><trkpt lat="44.86004656355693" lon="6.610592502986883"><ele>1364.0</ele><time>2026-05-02T15:26:16Z</time></trkpt><trkpt lat="44.860116733620394" lon="6.610656672816756"><ele>1364.0</ele><time>2026-05-02T15:26:17Z</time></trkpt><trkpt lat="44.86017532337947" lon="6.610697265717673"><ele>1364.0</ele><time>2026-05-02T15:26:18Z</time></trkpt><trkpt lat="44.86025400104733" lon="6.610718206800897"><ele>1359.5</ele><time>2026-05-02T15:26:19Z</time></trkpt><trkpt lat="44.8603203234509" lon="6.610737482710606"><ele>1355.0</ele><time>2026-05-02T15:26:20Z</time></trkpt><trkpt lat="44.860406767027165" lon="6.610845371639782"><ele>1350.5</ele><time>2026-05-02T15:26:22Z</time></trkpt><trkpt lat="44.860460546736846" lon="6.610928893694165"><ele>1346.0</ele><time>2026-05-02T15:26:23Z</time></trkpt><trkpt lat="44.860523163380485" lon="6.610991748627977"><ele>1341.5</ele><time>2026-05-02T15:26:24Z</time></trkpt><trkpt lat="44.860587644165435" lon="6.611000119238663"><ele>1337.0</ele><time>2026-05-02T15:26:25Z</time></trkpt><trkpt lat="44.860653129740854" lon="6.610990504567569"><ele>1337.0</ele><time>2026-05-02T15:26:26Z</time></trkpt><trkpt lat="44.86072730869914" lon="6.610992472403514"><ele>1337.0</ele><time>2026-05-02T15:26:27Z</time></trkpt><trkpt lat="44.86083683935315" lon="6.611034006156532"><ele>1337.0</ele><time>2026-05-02T15:26:29Z</time></trkpt><trkpt lat="44.86094650218885" lon="6.6111458850921005"><ele>1337.0</ele><time>2026-05-02T15:26:31Z</time></trkpt><trkpt lat="44.86100220157726" lon="6.611230161866759"><ele>1337.0</ele><time>2026-05-02T15:26:32Z</time></trkpt><trkpt lat="44.861083784065286" lon="6.611317961984535"><ele>1335.1999999999998</ele><time>2026-05-02T15:26:33Z</time></trkpt><trkpt lat="44.86117174989069" lon="6.611428061341048"><ele>1333.4</ele><time>2026-05-02T15:26:34Z</time></trkpt><trkpt lat="44.861248216440295" lon="6.611521198744388"><ele>1331.6</ele><time>2026-05-02T15:26:35Z</time></trkpt><trkpt lat="44.861317028575506" lon="6.611618069824449"><ele>1329.8000000000002</ele><time>2026-05-02T15:26:36Z</time></trkpt><trkpt lat="44.86137588448797" lon="6.611709564572632"><ele>1328.0</ele><time>2026-05-02T15:26:37Z</time></trkpt><trkpt lat="44.86143849434437" lon="6.6117939967594825"><ele>1328.0</ele><time>2026-05-02T15:26:38Z</time></trkpt><trkpt lat="44.86152351391869" lon="6.6118538669460545"><ele>1328.0</ele><time>2026-05-02T15:26:39Z</time></trkpt><trkpt lat="44.86158881247675" lon="6.6119258069400795"><ele>1328.0</ele><time>2026-05-02T15:26:40Z</time></trkpt><trkpt lat="44.86163794544962" lon="6.612025497761591"><ele>1328.0</ele><time>2026-05-02T15:26:41Z</time></trkpt><trkpt lat="44.861677634573624" lon="6.612158238767794"><ele>1328.0</ele><time>2026-05-02T15:26:42Z</time></trkpt><trkpt lat="44.86171962882006" lon="6.612322017758755"><ele>1327.0</ele><time>2026-05-02T15:26:43Z</time></trkpt><trkpt lat="44.86176444062796" lon="6.612466327721024"><ele>1326.0</ele><time>2026-05-02T15:26:44Z</time></trkpt><trkpt lat="44.861825525439" lon="6.612596961095322"><ele>1325.0</ele><time>2026-05-02T15:26:45Z</time></trkpt><trkpt lat="44.8618783388426" lon="6.612709401169871"><ele>1324.0</ele><time>2026-05-02T15:26:46Z</time></trkpt><trkpt lat="44.86189935940851" lon="6.6128244181015745"><ele>1323.0</ele><time>2026-05-02T15:26:47Z</time></trkpt><trkpt lat="44.86192031338716" lon="6.612949593564037"><ele>1323.0</ele><time>2026-05-02T15:26:48Z</time></trkpt><trkpt lat="44.861951359364255" lon="6.613065960559959"><ele>1323.0</ele><time>2026-05-02T15:26:49Z</time></trkpt><trkpt lat="44.861996077422866" lon="6.613162072671741"><ele>1323.0</ele><time>2026-05-02T15:26:50Z</time></trkpt><trkpt lat="44.86204088620734" lon="6.613231764207868"><ele>1323.0</ele><time>2026-05-02T15:26:51Z</time></trkpt><trkpt lat="44.86213895404665" lon="6.613263276302567"><ele>1323.0</ele><time>2026-05-02T15:26:53Z</time></trkpt><trkpt lat="44.862189299157066" lon="6.613158097635707"><ele>1323.0</ele><time>2026-05-02T15:26:55Z</time></trkpt><trkpt lat="44.862132416466004" lon="6.613019434863548"><ele>1323.0</ele><time>2026-05-02T15:26:57Z</time></trkpt><trkpt lat="44.862079481549216" lon="6.6129267576744235"><ele>1323.0</ele><time>2026-05-02T15:26:58Z</time></trkpt><trkpt lat="44.862034910463784" lon="6.612794975989427"><ele>1323.0</ele><time>2026-05-02T15:26:59Z</time></trkpt><trkpt lat="44.862000637339044" lon="6.612644768678701"><ele>1323.0</ele><time>2026-05-02T15:27:00Z</time></trkpt><trkpt lat="44.86198830246308" lon="6.6125332465019016"><ele>1323.0</ele><time>2026-05-02T15:27:01Z</time></trkpt><trkpt lat="44.861980282547194" lon="6.612424683384208"><ele>1321.3333333333333</ele><time>2026-05-02T15:27:02Z</time></trkpt><trkpt lat="44.86200380938116" lon="6.612311797259505"><ele>1319.6666666666667</ele><time>2026-05-02T15:27:03Z</time></trkpt><trkpt lat="44.86202400451724" lon="6.6121965706578205"><ele>1318.0</ele><time>2026-05-02T15:27:04Z</time></trkpt><trkpt lat="44.862058331020734" lon="6.612083724201964"><ele>1316.3333333333335</ele><time>2026-05-02T15:27:05Z</time></trkpt><trkpt lat="44.862106532246294" lon="6.611962189726493"><ele>1314.6666666666667</ele><time>2026-05-02T15:27:07Z</time></trkpt><trkpt lat="44.86202520949779" lon="6.611969225203516"><ele>1313.0</ele><time>2026-05-02T15:27:14Z</time></trkpt><trkpt lat="44.861962961421185" lon="6.611917738524812"><ele>1310.4</ele><time>2026-05-02T15:27:16Z</time></trkpt><trkpt lat="44.86185456769238" lon="6.611803614809396"><ele>1307.8000000000002</ele><time>2026-05-02T15:27:18Z</time></trkpt><trkpt lat="44.86178513277362" lon="6.611734826637445"><ele>1305.2</ele><time>2026-05-02T15:27:19Z</time></trkpt><trkpt lat="44.86172005922397" lon="6.611661293724549"><ele>1302.6</ele><time>2026-05-02T15:27:20Z</time></trkpt><trkpt lat="44.861641894770216" lon="6.611554496624714"><ele>1300.0</ele><time>2026-05-02T15:27:21Z</time></trkpt><trkpt lat="44.861560556469534" lon="6.611449979865958"><ele>1301.5</ele><time>2026-05-02T15:27:22Z</time></trkpt><trkpt lat="44.861498454568604" lon="6.611362529622852"><ele>1303.0</ele><time>2026-05-02T15:27:23Z</time></trkpt><trkpt lat="44.86144276015987" lon="6.611274855201479"><ele>1304.5</ele><time>2026-05-02T15:27:24Z</time></trkpt><trkpt lat="44.861388907782704" lon="6.611213519355145"><ele>1306.0</ele><time>2026-05-02T15:27:25Z</time></trkpt><trkpt lat="44.86133037260212" lon="6.611155143013397"><ele>1307.5</ele><time>2026-05-02T15:27:26Z</time></trkpt><trkpt lat="44.86125355251957" lon="6.611035822827799"><ele>1309.0</ele><time>2026-05-02T15:27:28Z</time></trkpt><trkpt lat="44.86121503879295" lon="6.610957400047887"><ele>1309.0</ele><time>2026-05-02T15:27:29Z</time></trkpt><trkpt lat="44.86117065447583" lon="6.6108498092881165"><ele>1309.0</ele><time>2026-05-02T15:27:30Z</time></trkpt><trkpt lat="44.86111488430811" lon="6.610764793706364"><ele>1309.0</ele><time>2026-05-02T15:27:31Z</time></trkpt><trkpt lat="44.86106107369793" lon="6.610687050312845"><ele>1309.0</ele><time>2026-05-02T15:27:32Z</time></trkpt><trkpt lat="44.86100707800154" lon="6.610610932637486"><ele>1309.0</ele><time>2026-05-02T15:27:33Z</time></trkpt><trkpt lat="44.860953039831365" lon="6.610534211745445"><ele>1309.0</ele><time>2026-05-02T15:27:34Z</time></trkpt><trkpt lat="44.86090807570309" lon="6.610469133262987"><ele>1309.8333333333333</ele><time>2026-05-02T15:27:35Z</time></trkpt><trkpt lat="44.86087566780605" lon="6.610389242957982"><ele>1310.6666666666665</ele><time>2026-05-02T15:27:36Z</time></trkpt><trkpt lat="44.86087051858866" lon="6.610292994232223"><ele>1311.5</ele><time>2026-05-02T15:27:37Z</time></trkpt><trkpt lat="44.8608689852543" lon="6.6101927883247455"><ele>1312.3333333333333</ele><time>2026-05-02T15:27:38Z</time></trkpt><trkpt lat="44.86082957698714" lon="6.610072812394845"><ele>1313.1666666666667</ele><time>2026-05-02T15:27:40Z</time></trkpt><trkpt lat="44.860762327379376" lon="6.609964142855849"><ele>1314.0</ele><time>2026-05-02T15:27:42Z</time></trkpt><trkpt lat="44.860692010052176" lon="6.60989819225901"><ele>1314.0</ele><time>2026-05-02T15:27:43Z</time></trkpt><trkpt lat="44.860633550337596" lon="6.609819416213276"><ele>1314.0</ele><time>2026-05-02T15:27:44Z</time></trkpt><trkpt lat="44.86058864073147" lon="6.6097397662191755"><ele>1314.0</ele><time>2026-05-02T15:27:45Z</time></trkpt><trkpt lat="44.8605553471457" lon="6.609656065131902"><ele>1314.0</ele><time>2026-05-02T15:27:46Z</time></trkpt><trkpt lat="44.8605423085521" lon="6.609538952757478"><ele>1314.0</ele><time>2026-05-02T15:27:48Z</time></trkpt><trkpt lat="44.86059681160604" lon="6.609486603528697"><ele>1314.0</ele><time>2026-05-02T15:27:51Z</time></trkpt><trkpt lat="44.86066693713342" lon="6.609541612644821"><ele>1314.0</ele><time>2026-05-02T15:27:54Z</time></trkpt><trkpt lat="44.86072483927473" lon="6.609611698042471"><ele>1314.0</ele><time>2026-05-02T15:27:57Z</time></trkpt><trkpt lat="44.86075911593712" lon="6.609526362269174"><ele>1314.0</ele><time>2026-05-02T15:28:09Z</time></trkpt><trkpt lat="44.86072191670076" lon="6.609335067355682"><ele>1314.0</ele><time>2026-05-02T15:28:11Z</time></trkpt><trkpt lat="44.86070265284916" lon="6.609209210479834"><ele>1314.0</ele><time>2026-05-02T15:28:12Z</time></trkpt><trkpt lat="44.86069822916097" lon="6.6091053158032045"><ele>1311.2</ele><time>2026-05-02T15:28:13Z</time></trkpt><trkpt lat="44.86064504835119" lon="6.608939494280654"><ele>1308.4</ele><time>2026-05-02T15:28:15Z</time></trkpt><trkpt lat="44.86058442342351" lon="6.60887257523785"><ele>1305.6</ele><time>2026-05-02T15:28:16Z</time></trkpt><trkpt lat="44.86052260977745" lon="6.608828799970219"><ele>1302.8</ele><time>2026-05-02T15:28:17Z</time></trkpt><trkpt lat="44.86043898061148" lon="6.608755186529859"><ele>1300.0</ele><time>2026-05-02T15:28:19Z</time></trkpt><trkpt lat="44.86036438258844" lon="6.608629689766423"><ele>1298.3333333333333</ele><time>2026-05-02T15:28:21Z</time></trkpt><trkpt lat="44.86032882526332" lon="6.60853136004108"><ele>1296.6666666666665</ele><time>2026-05-02T15:28:23Z</time></trkpt><trkpt lat="44.86028707710902" lon="6.60842645949162"><ele>1295.0</ele><time>2026-05-02T15:28:25Z</time></trkpt><trkpt lat="44.86028022386371" lon="6.608297408057331"><ele>1293.3333333333333</ele><time>2026-05-02T15:28:28Z</time></trkpt><trkpt lat="44.86024636338028" lon="6.608152003647198"><ele>1291.6666666666667</ele><time>2026-05-02T15:28:31Z</time></trkpt><trkpt lat="44.860226720951445" lon="6.608048009704733"><ele>1290.0</ele><time>2026-05-02T15:28:32Z</time></trkpt><trkpt lat="44.86020003312973" lon="6.607893841750105"><ele>1287.6</ele><time>2026-05-02T15:28:34Z</time></trkpt><trkpt lat="44.860127345295226" lon="6.60781204510458"><ele>1285.2</ele><time>2026-05-02T15:28:36Z</time></trkpt><trkpt lat="44.86009117401333" lon="6.607691165355176"><ele>1282.8</ele><time>2026-05-02T15:28:38Z</time></trkpt><trkpt lat="44.86009226488716" lon="6.607531757587433"><ele>1280.4</ele><time>2026-05-02T15:28:40Z</time></trkpt><trkpt lat="44.86008339336348" lon="6.607394708949605"><ele>1278.0</ele><time>2026-05-02T15:28:42Z</time></trkpt><trkpt lat="44.86001124181307" lon="6.607276829591606"><ele>1283.2</ele><time>2026-05-02T15:28:44Z</time></trkpt><trkpt lat="44.85996033026375" lon="6.607200858721515"><ele>1288.4</ele><time>2026-05-02T15:28:45Z</time></trkpt><trkpt lat="44.85988685727494" lon="6.607090717081357"><ele>1293.6000000000001</ele><time>2026-05-02T15:28:47Z</time></trkpt><trkpt lat="44.85990183197866" lon="6.606984240991054"><ele>1298.8</ele><time>2026-05-02T15:28:48Z</time></trkpt><trkpt lat="44.859905976628994" lon="6.606859763586717"><ele>1304.0</ele><time>2026-05-02T15:28:50Z</time></trkpt><trkpt lat="44.85983891018261" lon="6.606709471145503"><ele>1304.0</ele><time>2026-05-02T15:28:52Z</time></trkpt><trkpt lat="44.8597816999146" lon="6.6066341297159665"><ele>1304.0</ele><time>2026-05-02T15:28:53Z</time></trkpt><trkpt lat="44.85972815897143" lon="6.606515940471665"><ele>1304.0</ele><time>2026-05-02T15:28:54Z</time></trkpt><trkpt lat="44.85968806652757" lon="6.606379848583413"><ele>1304.0</ele><time>2026-05-02T15:28:55Z</time></trkpt><trkpt lat="44.8596522011844" lon="6.606259756805963"><ele>1304.0</ele><time>2026-05-02T15:28:56Z</time></trkpt><trkpt lat="44.859621364089605" lon="6.60617515489516"><ele>1304.0</ele><time>2026-05-02T15:28:57Z</time></trkpt><trkpt lat="44.85954887428729" lon="6.606059780310977"><ele>1302.8000000000002</ele><time>2026-05-02T15:28:59Z</time></trkpt><trkpt lat="44.85947796813381" lon="6.605999025148858"><ele>1301.6000000000001</ele><time>2026-05-02T15:29:00Z</time></trkpt><trkpt lat="44.85943304631922" lon="6.6059295040659185"><ele>1300.4</ele><time>2026-05-02T15:29:01Z</time></trkpt><trkpt lat="44.859463731087935" lon="6.605765660815153"><ele>1299.2</ele><time>2026-05-02T15:29:03Z</time></trkpt><trkpt lat="44.85950292564778" lon="6.605559329280379"><ele>1298.0</ele><time>2026-05-02T15:29:05Z</time></trkpt><trkpt lat="44.859506459696135" lon="6.605449639933658"><ele>1297.4</ele><time>2026-05-02T15:29:06Z</time></trkpt><trkpt lat="44.859465623616146" lon="6.605248775174814"><ele>1296.8000000000002</ele><time>2026-05-02T15:29:08Z</time></trkpt><trkpt lat="44.85941514483137" lon="6.605150859736052"><ele>1296.2</ele><time>2026-05-02T15:29:09Z</time></trkpt><trkpt lat="44.85936822122084" lon="6.605070875441268"><ele>1295.6</ele><time>2026-05-02T15:29:10Z</time></trkpt><trkpt lat="44.8593469288571" lon="6.604919976756152"><ele>1295.0</ele><time>2026-05-02T15:29:12Z</time></trkpt><trkpt lat="44.859334236893844" lon="6.6047840881096445"><ele>1295.0</ele><time>2026-05-02T15:29:14Z</time></trkpt><trkpt lat="44.85931850467665" lon="6.604633035757824"><ele>1295.0</ele><time>2026-05-02T15:29:16Z</time></trkpt><trkpt lat="44.85931723154556" lon="6.604511962983356"><ele>1295.0</ele><time>2026-05-02T15:29:18Z</time></trkpt><trkpt lat="44.85923195552674" lon="6.604396950823945"><ele>1295.0</ele><time>2026-05-02T15:29:20Z</time></trkpt><trkpt lat="44.859190988471354" lon="6.604312687719936"><ele>1295.0</ele><time>2026-05-02T15:29:21Z</time></trkpt><trkpt lat="44.85917904613643" lon="6.604158552975615"><ele>1299.3333333333335</ele><time>2026-05-02T15:29:23Z</time></trkpt><trkpt lat="44.85920581186387" lon="6.604065495564729"><ele>1303.6666666666667</ele><time>2026-05-02T15:29:24Z</time></trkpt><trkpt lat="44.859230537025134" lon="6.60397489931538"><ele>1308.0</ele><time>2026-05-02T15:29:25Z</time></trkpt><trkpt lat="44.859256568793846" lon="6.603836486382104"><ele>1312.3333333333333</ele><time>2026-05-02T15:29:27Z</time></trkpt><trkpt lat="44.859272721175124" lon="6.60373521733054"><ele>1316.6666666666665</ele><time>2026-05-02T15:29:31Z</time></trkpt><trkpt lat="44.85923010494038" lon="6.603631462973637"><ele>1321.0</ele><time>2026-05-02T15:31:08Z</time></trkpt><trkpt lat="44.85917838237027" lon="6.603572185615489"><ele>1321.0</ele><time>2026-05-02T15:31:10Z</time></trkpt><trkpt lat="44.85909429857738" lon="6.603443214063457"><ele>1321.0</ele><time>2026-05-02T15:31:12Z</time></trkpt><trkpt lat="44.85906359202201" lon="6.603364125267139"><ele>1321.0</ele><time>2026-05-02T15:31:13Z</time></trkpt><trkpt lat="44.8590132776704" lon="6.6032118432300715"><ele>1321.0</ele><time>2026-05-02T15:31:15Z</time></trkpt><trkpt lat="44.85896291725799" lon="6.603087440898591"><ele>1321.0</ele><time>2026-05-02T15:31:17Z</time></trkpt><trkpt lat="44.85891837346798" lon="6.6030212480457235"><ele>1321.0</ele><time>2026-05-02T15:31:18Z</time></trkpt><trkpt lat="44.858836430775185" lon="6.602900912886473"><ele>1321.0</ele><time>2026-05-02T15:31:20Z</time></trkpt><trkpt lat="44.85881513601389" lon="6.602719123637696"><ele>1321.0</ele><time>2026-05-02T15:31:22Z</time></trkpt><trkpt lat="44.8588115679083" lon="6.6025916639729925"><ele>1321.0</ele><time>2026-05-02T15:31:23Z</time></trkpt><trkpt lat="44.858798333861714" lon="6.602471403979079"><ele>1321.0</ele><time>2026-05-02T15:31:24Z</time></trkpt><trkpt lat="44.85875267503246" lon="6.602307750807401"><ele>1322.0</ele><time>2026-05-02T15:31:26Z</time></trkpt><trkpt lat="44.858738293611225" lon="6.602212232610553"><ele>1323.0</ele><time>2026-05-02T15:31:27Z</time></trkpt><trkpt lat="44.8587077234636" lon="6.602043676422086"><ele>1324.0</ele><time>2026-05-02T15:31:29Z</time></trkpt><trkpt lat="44.85865232810093" lon="6.601957885722998"><ele>1325.0</ele><time>2026-05-02T15:31:31Z</time></trkpt><trkpt lat="44.85858093610584" lon="6.601931974314817"><ele>1326.0</ele><time>2026-05-02T15:31:32Z</time></trkpt><trkpt lat="44.858491950339406" lon="6.601908222248804"><ele>1327.0</ele><time>2026-05-02T15:31:33Z</time></trkpt><trkpt lat="44.85843358965571" lon="6.601862774713213"><ele>1327.0</ele><time>2026-05-02T15:31:34Z</time></trkpt><trkpt lat="44.85835937872935" lon="6.601721637313394"><ele>1327.0</ele><time>2026-05-02T15:31:36Z</time></trkpt><trkpt lat="44.858308034685635" lon="6.601613930036482"><ele>1327.0</ele><time>2026-05-02T15:31:37Z</time></trkpt><trkpt lat="44.85825797089259" lon="6.6015385588956335"><ele>1327.0</ele><time>2026-05-02T15:31:38Z</time></trkpt><trkpt lat="44.85821297501638" lon="6.601454485668026"><ele>1327.0</ele><time>2026-05-02T15:31:39Z</time></trkpt><trkpt lat="44.858186449348395" lon="6.601347357222454"><ele>1327.0</ele><time>2026-05-02T15:31:40Z</time></trkpt><trkpt lat="44.85815058036578" lon="6.601257786756311"><ele>1327.0</ele><time>2026-05-02T15:31:41Z</time></trkpt><trkpt lat="44.85810638987822" lon="6.601191662073142"><ele>1327.0</ele><time>2026-05-02T15:31:42Z</time></trkpt><trkpt lat="44.858049456799804" lon="6.601150097252362"><ele>1327.0</ele><time>2026-05-02T15:31:43Z</time></trkpt><trkpt lat="44.85798545808341" lon="6.601092486010384"><ele>1327.0</ele><time>2026-05-02T15:31:44Z</time></trkpt><trkpt lat="44.85791445436573" lon="6.600984372551524"><ele>1327.0</ele><time>2026-05-02T15:31:46Z</time></trkpt><trkpt lat="44.85786015604718" lon="6.600861689898528"><ele>1327.0</ele><time>2026-05-02T15:31:48Z</time></trkpt><trkpt lat="44.85781873179629" lon="6.600678531478506"><ele>1324.0</ele><time>2026-05-02T15:31:51Z</time></trkpt><trkpt lat="44.85778243895591" lon="6.600505083196428"><ele>1321.0</ele><time>2026-05-02T15:31:53Z</time></trkpt><trkpt lat="44.85777583250503" lon="6.600402743869351"><ele>1318.0</ele><time>2026-05-02T15:31:54Z</time></trkpt><trkpt lat="44.857784159668384" lon="6.600303464901005"><ele>1315.0</ele><time>2026-05-02T15:31:55Z</time></trkpt><trkpt lat="44.857795773849396" lon="6.600195956428429"><ele>1312.0</ele><time>2026-05-02T15:31:56Z</time></trkpt><trkpt lat="44.85779167800648" lon="6.600096745263216"><ele>1309.0</ele><time>2026-05-02T15:31:57Z</time></trkpt><trkpt lat="44.85778853825359" lon="6.599993564278086"><ele>1306.5</ele><time>2026-05-02T15:31:58Z</time></trkpt><trkpt lat="44.85778795752153" lon="6.599874523163774"><ele>1304.0</ele><time>2026-05-02T15:32:00Z</time></trkpt><trkpt lat="44.85774867765433" lon="6.599786319651411"><ele>1301.5</ele><time>2026-05-02T15:32:12Z</time></trkpt><trkpt lat="44.85769579607768" lon="6.599655841859574"><ele>1299.0</ele><time>2026-05-02T15:32:14Z</time></trkpt><trkpt lat="44.857654438715386" lon="6.599549407383139"><ele>1296.5</ele><time>2026-05-02T15:32:15Z</time></trkpt><trkpt lat="44.85761005608325" lon="6.599473923378965"><ele>1294.0</ele><time>2026-05-02T15:32:16Z</time></trkpt><trkpt lat="44.85755700610763" lon="6.599411367944021"><ele>1294.0</ele><time>2026-05-02T15:32:17Z</time></trkpt><trkpt lat="44.85748493115827" lon="6.599369308950751"><ele>1294.0</ele><time>2026-05-02T15:32:18Z</time></trkpt><trkpt lat="44.85741676213357" lon="6.599337348631731"><ele>1294.0</ele><time>2026-05-02T15:32:19Z</time></trkpt><trkpt lat="44.85735481914634" lon="6.599313994292195"><ele>1294.0</ele><time>2026-05-02T15:32:20Z</time></trkpt><trkpt lat="44.857248141216324" lon="6.599206040971467"><ele>1294.0</ele><time>2026-05-02T15:32:22Z</time></trkpt><trkpt lat="44.85720712345694" lon="6.599094329328286"><ele>1294.0</ele><time>2026-05-02T15:32:23Z</time></trkpt><trkpt lat="44.85716691019477" lon="6.598954819742586"><ele>1294.0</ele><time>2026-05-02T15:32:24Z</time></trkpt><trkpt lat="44.85711488394895" lon="6.598858683680491"><ele>1294.0</ele><time>2026-05-02T15:32:25Z</time></trkpt><trkpt lat="44.85703626893874" lon="6.598774974367525"><ele>1294.0</ele><time>2026-05-02T15:32:27Z</time></trkpt><trkpt lat="44.85698545158337" lon="6.598611118767044"><ele>1294.0</ele><time>2026-05-02T15:32:29Z</time></trkpt><trkpt lat="44.856957022620996" lon="6.598475650961259"><ele>1294.0</ele><time>2026-05-02T15:32:31Z</time></trkpt><trkpt lat="44.856822595154405" lon="6.598367477512009"><ele>1297.4</ele><time>2026-05-02T15:32:33Z</time></trkpt><trkpt lat="44.856731122880284" lon="6.598290139780884"><ele>1300.8000000000002</ele><time>2026-05-02T15:32:34Z</time></trkpt><trkpt lat="44.85666463373445" lon="6.598233624666771"><ele>1304.1999999999998</ele><time>2026-05-02T15:32:35Z</time></trkpt><trkpt lat="44.856620402852506" lon="6.598122616255875"><ele>1307.6</ele><time>2026-05-02T15:32:37Z</time></trkpt><trkpt lat="44.85658006472186" lon="6.597982172515008"><ele>1311.0</ele><time>2026-05-02T15:32:39Z</time></trkpt><trkpt lat="44.85652053979879" lon="6.597857838110492"><ele>1307.6</ele><time>2026-05-02T15:32:41Z</time></trkpt><trkpt lat="44.856503539613065" lon="6.597693246584256"><ele>1304.1999999999998</ele><time>2026-05-02T15:32:43Z</time></trkpt><trkpt lat="44.85650396858116" lon="6.597589550589707"><ele>1300.8000000000002</ele><time>2026-05-02T15:32:44Z</time></trkpt><trkpt lat="44.85648475890512" lon="6.597489299346186"><ele>1297.4</ele><time>2026-05-02T15:32:45Z</time></trkpt><trkpt lat="44.856440646959285" lon="6.5974111013075545"><ele>1294.0</ele><time>2026-05-02T15:32:46Z</time></trkpt><trkpt lat="44.8563361619375" lon="6.5972719455281075"><ele>1294.0</ele><time>2026-05-02T15:32:48Z</time></trkpt><trkpt lat="44.856246469543045" lon="6.597177097483414"><ele>1294.0</ele><time>2026-05-02T15:32:49Z</time></trkpt><trkpt lat="44.856169270154666" lon="6.597100571760346"><ele>1294.0</ele><time>2026-05-02T15:32:50Z</time></trkpt><trkpt lat="44.856091924632445" lon="6.597068450034058"><ele>1294.0</ele><time>2026-05-02T15:32:51Z</time></trkpt><trkpt lat="44.85600407479674" lon="6.597040189987283"><ele>1294.0</ele><time>2026-05-02T15:32:52Z</time></trkpt><trkpt lat="44.855934348589" lon="6.596986900027496"><ele>1295.1666666666665</ele><time>2026-05-02T15:32:53Z</time></trkpt><trkpt lat="44.855883261183514" lon="6.596907502580617"><ele>1296.3333333333333</ele><time>2026-05-02T15:32:54Z</time></trkpt><trkpt lat="44.85583062350195" lon="6.596788378663317"><ele>1297.5</ele><time>2026-05-02T15:32:55Z</time></trkpt><trkpt lat="44.85577826455825" lon="6.59670814633258"><ele>1298.6666666666667</ele><time>2026-05-02T15:32:56Z</time></trkpt><trkpt lat="44.85571903270327" lon="6.5966764832439235"><ele>1299.8333333333335</ele><time>2026-05-02T15:32:59Z</time></trkpt><trkpt lat="44.85565590266768" lon="6.59669396023981"><ele>1301.0</ele><time>2026-05-02T15:33:23Z</time></trkpt><trkpt lat="44.85555913999623" lon="6.596615459623665"><ele>1301.0</ele><time>2026-05-02T15:33:25Z</time></trkpt><trkpt lat="44.8554989922262" lon="6.5965216618982545"><ele>1301.0</ele><time>2026-05-02T15:33:26Z</time></trkpt><trkpt lat="44.855427562450444" lon="6.596478143986364"><ele>1301.0</ele><time>2026-05-02T15:33:27Z</time></trkpt><trkpt lat="44.85531676221795" lon="6.596440160609401"><ele>1301.0</ele><time>2026-05-02T15:33:28Z</time></trkpt><trkpt lat="44.85521745920503" lon="6.596374964193631"><ele>1301.0</ele><time>2026-05-02T15:33:29Z</time></trkpt><trkpt lat="44.85513065771344" lon="6.5963133749813165"><ele>1301.6</ele><time>2026-05-02T15:33:30Z</time></trkpt><trkpt lat="44.855033582257924" lon="6.596241343500041"><ele>1302.1999999999998</ele><time>2026-05-02T15:33:31Z</time></trkpt><trkpt lat="44.8549522903442" lon="6.596160104147097"><ele>1302.8000000000002</ele><time>2026-05-02T15:33:32Z</time></trkpt><trkpt lat="44.8548798498999" lon="6.596113583219579"><ele>1303.4</ele><time>2026-05-02T15:33:33Z</time></trkpt><trkpt lat="44.8548104869747" lon="6.596034352242888"><ele>1304.0</ele><time>2026-05-02T15:33:34Z</time></trkpt><trkpt lat="44.85470328207781" lon="6.595979534107901"><ele>1304.0</ele><time>2026-05-02T15:33:35Z</time></trkpt><trkpt lat="44.854575334222986" lon="6.595956069890842"><ele>1304.0</ele><time>2026-05-02T15:33:36Z</time></trkpt><trkpt lat="44.85445479330026" lon="6.595891882769804"><ele>1304.0</ele><time>2026-05-02T15:33:37Z</time></trkpt><trkpt lat="44.85431188999272" lon="6.595817160707265"><ele>1304.0</ele><time>2026-05-02T15:33:38Z</time></trkpt><trkpt lat="44.85422992237418" lon="6.5958125686446625"><ele>1305.8000000000002</ele><time>2026-05-02T15:33:39Z</time></trkpt><trkpt lat="44.85415751807471" lon="6.59575517929256"><ele>1307.6000000000001</ele><time>2026-05-02T15:33:40Z</time></trkpt><trkpt lat="44.854098650183836" lon="6.595656989729587"><ele>1309.4</ele><time>2026-05-02T15:33:41Z</time></trkpt><trkpt lat="44.85406363635627" lon="6.595536667619398"><ele>1311.2</ele><time>2026-05-02T15:33:42Z</time></trkpt><trkpt lat="44.85404807717934" lon="6.595392697223887"><ele>1313.0</ele><time>2026-05-02T15:33:43Z</time></trkpt><trkpt lat="44.854027944835046" lon="6.595266323308"><ele>1313.0</ele><time>2026-05-02T15:33:44Z</time></trkpt><trkpt lat="44.85400353794838" lon="6.595183643683703"><ele>1313.0</ele><time>2026-05-02T15:33:45Z</time></trkpt><trkpt lat="44.85389547713356" lon="6.5952184017385616"><ele>1313.0</ele><time>2026-05-02T15:33:47Z</time></trkpt><trkpt lat="44.85385827440773" lon="6.5953069447751735"><ele>1313.0</ele><time>2026-05-02T15:33:48Z</time></trkpt><trkpt lat="44.85385646222339" lon="6.595414287560252"><ele>1313.0</ele><time>2026-05-02T15:33:49Z</time></trkpt><trkpt lat="44.8538660804646" lon="6.595532712521034"><ele>1313.0</ele><time>2026-05-02T15:33:50Z</time></trkpt><trkpt lat="44.85388690266632" lon="6.595673490502724"><ele>1316.75</ele><time>2026-05-02T15:33:51Z</time></trkpt><trkpt lat="44.85393954394565" lon="6.59582864243394"><ele>1320.5</ele><time>2026-05-02T15:33:52Z</time></trkpt><trkpt lat="44.854013058459124" lon="6.595956016844464"><ele>1324.25</ele><time>2026-05-02T15:33:53Z</time></trkpt><trkpt lat="44.85410354563101" lon="6.596038345226574"><ele>1328.0</ele><time>2026-05-02T15:33:54Z</time></trkpt><trkpt lat="44.85420270026364" lon="6.596138594634121"><ele>1327.25</ele><time>2026-05-02T15:33:55Z</time></trkpt><trkpt lat="44.85428116168529" lon="6.596241185499168"><ele>1326.5</ele><time>2026-05-02T15:33:56Z</time></trkpt><trkpt lat="44.85435656451129" lon="6.59633834516056"><ele>1325.75</ele><time>2026-05-02T15:33:57Z</time></trkpt><trkpt lat="44.85443702580144" lon="6.596475225451374"><ele>1325.0</ele><time>2026-05-02T15:33:58Z</time></trkpt><trkpt lat="44.85452087660461" lon="6.596620461849608"><ele>1325.0</ele><time>2026-05-02T15:33:59Z</time></trkpt><trkpt lat="44.85459795696762" lon="6.596716547523529"><ele>1325.0</ele><time>2026-05-02T15:34:00Z</time></trkpt><trkpt lat="44.85465965427417" lon="6.596816729174991"><ele>1325.0</ele><time>2026-05-02T15:34:02Z</time></trkpt><trkpt lat="44.854599963321284" lon="6.596917529212007"><ele>1325.0</ele><time>2026-05-02T15:34:04Z</time></trkpt><trkpt lat="44.85453428232746" lon="6.596925470391195"><ele>1325.0</ele><time>2026-05-02T15:34:05Z</time></trkpt><trkpt lat="44.854470264400256" lon="6.596907341322485"><ele>1325.0</ele><time>2026-05-02T15:34:06Z</time></trkpt><trkpt lat="44.85439425253835" lon="6.596840692811113"><ele>1325.0</ele><time>2026-05-02T15:34:07Z</time></trkpt><trkpt lat="44.85431501103671" lon="6.596770531498909"><ele>1325.0</ele><time>2026-05-02T15:34:08Z</time></trkpt><trkpt lat="44.854218269568086" lon="6.596697152508793"><ele>1325.0</ele><time>2026-05-02T15:34:09Z</time></trkpt><trkpt lat="44.854126765347054" lon="6.59661756015201"><ele>1325.0</ele><time>2026-05-02T15:34:10Z</time></trkpt><trkpt lat="44.854067370233864" lon="6.5965510029983285"><ele>1325.0</ele><time>2026-05-02T15:34:11Z</time></trkpt><trkpt lat="44.85399930261043" lon="6.596440987249497"><ele>1325.6</ele><time>2026-05-02T15:34:12Z</time></trkpt><trkpt lat="44.85393586601542" lon="6.5963115478532055"><ele>1326.2</ele><time>2026-05-02T15:34:13Z</time></trkpt><trkpt lat="44.85387626241073" lon="6.5962153461669555"><ele>1326.8000000000002</ele><time>2026-05-02T15:34:14Z</time></trkpt><trkpt lat="44.85381143434713" lon="6.596164364952941"><ele>1327.4</ele><time>2026-05-02T15:34:15Z</time></trkpt><trkpt lat="44.85372083237646" lon="6.596111455125738"><ele>1328.0</ele><time>2026-05-02T15:34:16Z</time></trkpt><trkpt lat="44.85362764190945" lon="6.5960316248666215"><ele>1328.0</ele><time>2026-05-02T15:34:17Z</time></trkpt><trkpt lat="44.853526038385425" lon="6.595940356810476"><ele>1328.0</ele><time>2026-05-02T15:34:18Z</time></trkpt><trkpt lat="44.85341700993199" lon="6.595889723283153"><ele>1328.0</ele><time>2026-05-02T15:34:19Z</time></trkpt><trkpt lat="44.8533537011102" lon="6.595836777934658"><ele>1328.0</ele><time>2026-05-02T15:34:20Z</time></trkpt><trkpt lat="44.85331111035831" lon="6.595725446913712"><ele>1328.0</ele><time>2026-05-02T15:34:22Z</time></trkpt><trkpt lat="44.85322455067711" lon="6.595625375080326"><ele>1331.0</ele><time>2026-05-02T15:34:24Z</time></trkpt><trkpt lat="44.85315585673673" lon="6.595548088645628"><ele>1334.0</ele><time>2026-05-02T15:34:25Z</time></trkpt><trkpt lat="44.85307473982559" lon="6.595462602410473"><ele>1337.0</ele><time>2026-05-02T15:34:26Z</time></trkpt><trkpt lat="44.85296294880498" lon="6.595376886460297"><ele>1340.0</ele><time>2026-05-02T15:34:27Z</time></trkpt><trkpt lat="44.852865343095026" lon="6.59527922909306"><ele>1343.0</ele><time>2026-05-02T15:34:28Z</time></trkpt><trkpt lat="44.852806183230506" lon="6.595202499718986"><ele>1343.0</ele><time>2026-05-02T15:34:29Z</time></trkpt><trkpt lat="44.85275438810248" lon="6.595138576782328"><ele>1343.0</ele><time>2026-05-02T15:34:30Z</time></trkpt><trkpt lat="44.852676879408364" lon="6.595103324252043"><ele>1343.0</ele><time>2026-05-02T15:34:31Z</time></trkpt><trkpt lat="44.852562617861864" lon="6.595065724553012"><ele>1343.0</ele><time>2026-05-02T15:34:32Z</time></trkpt><trkpt lat="44.852456455463404" lon="6.595001567102994"><ele>1343.0</ele><time>2026-05-02T15:34:33Z</time></trkpt><trkpt lat="44.85233871450493" lon="6.594965472783321"><ele>1347.4</ele><time>2026-05-02T15:34:34Z</time></trkpt><trkpt lat="44.852224480562626" lon="6.594926533439568"><ele>1351.8000000000002</ele><time>2026-05-02T15:34:35Z</time></trkpt><trkpt lat="44.85209420784824" lon="6.59487704655509"><ele>1356.2</ele><time>2026-05-02T15:34:36Z</time></trkpt><trkpt lat="44.85201865608626" lon="6.594809845202137"><ele>1360.6</ele><time>2026-05-02T15:34:37Z</time></trkpt><trkpt lat="44.851926260426985" lon="6.594779940475357"><ele>1365.0</ele><time>2026-05-02T15:34:38Z</time></trkpt><trkpt lat="44.85183309841405" lon="6.594725593984007"><ele>1364.5</ele><time>2026-05-02T15:34:39Z</time></trkpt><trkpt lat="44.85174421081442" lon="6.594683106528609"><ele>1364.0</ele><time>2026-05-02T15:34:40Z</time></trkpt><trkpt lat="44.85166037712216" lon="6.594621901437765"><ele>1363.5</ele><time>2026-05-02T15:34:41Z</time></trkpt><trkpt lat="44.85158816593278" lon="6.594566692987647"><ele>1363.0</ele><time>2026-05-02T15:34:42Z</time></trkpt><trkpt lat="44.85151328867449" lon="6.594503408089052"><ele>1362.5</ele><time>2026-05-02T15:34:43Z</time></trkpt><trkpt lat="44.851452431594986" lon="6.594466883218613"><ele>1362.0</ele><time>2026-05-02T15:34:44Z</time></trkpt><trkpt lat="44.851393273254935" lon="6.594420533699699"><ele>1362.0</ele><time>2026-05-02T15:34:45Z</time></trkpt><trkpt lat="44.85132286321761" lon="6.594376710415136"><ele>1362.0</ele><time>2026-05-02T15:34:46Z</time></trkpt><trkpt lat="44.85126524697292" lon="6.594324263402538"><ele>1362.0</ele><time>2026-05-02T15:34:47Z</time></trkpt><trkpt lat="44.85120678118582" lon="6.594282429542006"><ele>1362.0</ele><time>2026-05-02T15:34:48Z</time></trkpt><trkpt lat="44.85114896114904" lon="6.594229022099784"><ele>1362.0</ele><time>2026-05-02T15:34:49Z</time></trkpt><trkpt lat="44.85106482613466" lon="6.59411608657887"><ele>1362.0</ele><time>2026-05-02T15:34:51Z</time></trkpt><trkpt lat="44.85100771990262" lon="6.594062189098137"><ele>1361.8333333333333</ele><time>2026-05-02T15:34:53Z</time></trkpt><trkpt lat="44.850950560905275" lon="6.594015660431271"><ele>1361.6666666666667</ele><time>2026-05-02T15:34:57Z</time></trkpt><trkpt lat="44.85088847712334" lon="6.5938932811336715"><ele>1361.5</ele><time>2026-05-02T15:35:00Z</time></trkpt><trkpt lat="44.85082321069746" lon="6.593804677349989"><ele>1361.3333333333335</ele><time>2026-05-02T15:35:02Z</time></trkpt><trkpt lat="44.85077984760429" lon="6.593734090413707"><ele>1361.1666666666667</ele><time>2026-05-02T15:35:03Z</time></trkpt><trkpt lat="44.850729944250965" lon="6.593664940144085"><ele>1361.0</ele><time>2026-05-02T15:35:04Z</time></trkpt><trkpt lat="44.85067624861175" lon="6.5935997090021194"><ele>1361.0</ele><time>2026-05-02T15:35:05Z</time></trkpt><trkpt lat="44.85061528991367" lon="6.593547614409335"><ele>1361.0</ele><time>2026-05-02T15:35:06Z</time></trkpt><trkpt lat="44.85055484698735" lon="6.593515993331324"><ele>1361.0</ele><time>2026-05-02T15:35:07Z</time></trkpt><trkpt lat="44.85047845126039" lon="6.593488778603349"><ele>1361.0</ele><time>2026-05-02T15:35:08Z</time></trkpt><trkpt lat="44.850397838054946" lon="6.5934609664762736"><ele>1361.0</ele><time>2026-05-02T15:35:09Z</time></trkpt><trkpt lat="44.85031125545656" lon="6.593427198849378"><ele>1361.0</ele><time>2026-05-02T15:35:10Z</time></trkpt><trkpt lat="44.85022979488299" lon="6.59338949946362"><ele>1361.0</ele><time>2026-05-02T15:35:11Z</time></trkpt><trkpt lat="44.850156255116254" lon="6.593353999484895"><ele>1361.0</ele><time>2026-05-02T15:35:12Z</time></trkpt><trkpt lat="44.85008376348108" lon="6.593327897518803"><ele>1361.0</ele><time>2026-05-02T15:35:13Z</time></trkpt><trkpt lat="44.84999623798309" lon="6.59329845010998"><ele>1361.0</ele><time>2026-05-02T15:35:14Z</time></trkpt><trkpt lat="44.84992439279469" lon="6.593268641173991"><ele>1361.0</ele><time>2026-05-02T15:35:15Z</time></trkpt><trkpt lat="44.84985025792284" lon="6.593239197777573"><ele>1361.0</ele><time>2026-05-02T15:35:16Z</time></trkpt><trkpt lat="44.84976793921859" lon="6.593180679232956"><ele>1362.0</ele><time>2026-05-02T15:35:17Z</time></trkpt><trkpt lat="44.849690392914106" lon="6.593113580668382"><ele>1363.0</ele><time>2026-05-02T15:35:18Z</time></trkpt><trkpt lat="44.849602633933515" lon="6.593063497498086"><ele>1364.0</ele><time>2026-05-02T15:35:19Z</time></trkpt><trkpt lat="44.849498945504024" lon="6.593005575844859"><ele>1365.0</ele><time>2026-05-02T15:35:20Z</time></trkpt><trkpt lat="44.84940243430694" lon="6.592936031783538"><ele>1366.0</ele><time>2026-05-02T15:35:21Z</time></trkpt><trkpt lat="44.84929596141316" lon="6.592870735094601"><ele>1363.1999999999998</ele><time>2026-05-02T15:35:22Z</time></trkpt><trkpt lat="44.84920337334887" lon="6.592810766319525"><ele>1360.3999999999999</ele><time>2026-05-02T15:35:23Z</time></trkpt><trkpt lat="44.849115535327904" lon="6.592764331402694"><ele>1357.6</ele><time>2026-05-02T15:35:24Z</time></trkpt><trkpt lat="44.84903070434446" lon="6.592717833339061"><ele>1354.8</ele><time>2026-05-02T15:35:25Z</time></trkpt><trkpt lat="44.84893095969009" lon="6.592661033473911"><ele>1352.0</ele><time>2026-05-02T15:35:26Z</time></trkpt><trkpt lat="44.84882342580099" lon="6.592604312510846"><ele>1352.0</ele><time>2026-05-02T15:35:27Z</time></trkpt><trkpt lat="44.84872085715305" lon="6.592562005173399"><ele>1352.0</ele><time>2026-05-02T15:35:28Z</time></trkpt><trkpt lat="44.848624414270596" lon="6.592537385165825"><ele>1352.0</ele><time>2026-05-02T15:35:29Z</time></trkpt><trkpt lat="44.84853207510565" lon="6.592512452406523"><ele>1352.0</ele><time>2026-05-02T15:35:30Z</time></trkpt><trkpt lat="44.848432419840705" lon="6.592467058945072"><ele>1352.0</ele><time>2026-05-02T15:35:31Z</time></trkpt><trkpt lat="44.848334165671574" lon="6.592401811018828"><ele>1354.25</ele><time>2026-05-02T15:35:32Z</time></trkpt><trkpt lat="44.84822926360661" lon="6.592329920510703"><ele>1356.5</ele><time>2026-05-02T15:35:33Z</time></trkpt><trkpt lat="44.848132412899545" lon="6.592255277064423"><ele>1358.75</ele><time>2026-05-02T15:35:34Z</time></trkpt><trkpt lat="44.848028591924326" lon="6.592182437503391"><ele>1361.0</ele><time>2026-05-02T15:35:35Z</time></trkpt><trkpt lat="44.84792423823376" lon="6.592100963327749"><ele>1358.75</ele><time>2026-05-02T15:35:36Z</time></trkpt><trkpt lat="44.847829495019916" lon="6.592005135408902"><ele>1356.5</ele><time>2026-05-02T15:35:37Z</time></trkpt><trkpt lat="44.84773833999729" lon="6.591912195801747"><ele>1354.25</ele><time>2026-05-02T15:35:38Z</time></trkpt><trkpt lat="44.847647932885614" lon="6.591818205688281"><ele>1352.0</ele><time>2026-05-02T15:35:39Z</time></trkpt><trkpt lat="44.847544543266906" lon="6.5917311337320355"><ele>1352.0</ele><time>2026-05-02T15:35:40Z</time></trkpt><trkpt lat="44.847431293172086" lon="6.591641929454857"><ele>1352.0</ele><time>2026-05-02T15:35:41Z</time></trkpt><trkpt lat="44.84731766742449" lon="6.591546698237473"><ele>1352.0</ele><time>2026-05-02T15:35:42Z</time></trkpt><trkpt lat="44.84722359277148" lon="6.591460716604781"><ele>1352.0</ele><time>2026-05-02T15:35:43Z</time></trkpt><trkpt lat="44.84714474164214" lon="6.591383363410169"><ele>1352.0</ele><time>2026-05-02T15:35:44Z</time></trkpt><trkpt lat="44.84707087959337" lon="6.5913075763567655"><ele>1352.0</ele><time>2026-05-02T15:35:45Z</time></trkpt><trkpt lat="44.847002408419925" lon="6.591242696198433"><ele>1352.0</ele><time>2026-05-02T15:35:46Z</time></trkpt><trkpt lat="44.84690652739435" lon="6.591172897724394"><ele>1352.0</ele><time>2026-05-02T15:35:47Z</time></trkpt><trkpt lat="44.8468016216159" lon="6.591139844162434"><ele>1352.0</ele><time>2026-05-02T15:35:48Z</time></trkpt><trkpt lat="44.84673003059944" lon="6.59114057887326"><ele>1358.0</ele><time>2026-05-02T15:35:49Z</time></trkpt><trkpt lat="44.8466312165392" lon="6.5911407369710595"><ele>1364.0</ele><time>2026-05-02T15:35:50Z</time></trkpt><trkpt lat="44.84656173929081" lon="6.591128898860323"><ele>1370.0</ele><time>2026-05-02T15:35:51Z</time></trkpt><trkpt lat="44.84645727069729" lon="6.591098110428296"><ele>1376.0</ele><time>2026-05-02T15:35:53Z</time></trkpt><trkpt lat="44.84636500618801" lon="6.591083687704235"><ele>1382.0</ele><time>2026-05-02T15:35:55Z</time></trkpt><trkpt lat="44.846256653596136" lon="6.591062278514513"><ele>1382.0</ele><time>2026-05-02T15:35:57Z</time></trkpt><trkpt lat="44.846158498540696" lon="6.591023127371922"><ele>1382.0</ele><time>2026-05-02T15:35:59Z</time></trkpt><trkpt lat="44.84607327330013" lon="6.5910030842612"><ele>1382.0</ele><time>2026-05-02T15:36:01Z</time></trkpt><trkpt lat="44.84600914271276" lon="6.591008042156494"><ele>1382.0</ele><time>2026-05-02T15:36:03Z</time></trkpt><trkpt lat="44.846085355891276" lon="6.590977978686076"><ele>1382.0</ele><time>2026-05-02T15:37:17Z</time></trkpt><trkpt lat="44.84610436483316" lon="6.590852736404954"><ele>1382.0</ele><time>2026-05-02T15:37:19Z</time></trkpt><trkpt lat="44.84616778433285" lon="6.590824543458613"><ele>1382.0</ele><time>2026-05-02T15:45:01Z</time></trkpt><trkpt lat="44.846159903770115" lon="6.590935267380664"><ele>1382.0</ele><time>2026-05-02T15:45:05Z</time></trkpt><trkpt lat="44.84610177875002" lon="6.5909797838851265"><ele>1382.0</ele><time>2026-05-02T15:45:07Z</time></trkpt><trkpt lat="44.84602443353942" lon="6.59098570055746"><ele>1382.0</ele><time>2026-05-02T15:45:09Z</time></trkpt><trkpt lat="44.84596680673968" lon="6.591054726617366"><ele>1382.0</ele><time>2026-05-02T15:45:57Z</time></trkpt><trkpt lat="44.845916702705466" lon="6.591145010661068"><ele>1382.0</ele><time>2026-05-02T15:45:59Z</time></trkpt><trkpt lat="44.84589378911222" lon="6.591261093594506"><ele>1379.5</ele><time>2026-05-02T15:46:01Z</time></trkpt><trkpt lat="44.84593329328018" lon="6.591381503644334"><ele>1377.0</ele><time>2026-05-02T15:46:03Z</time></trkpt><trkpt lat="44.845947340292135" lon="6.5914924826127494"><ele>1374.5</ele><time>2026-05-02T15:46:05Z</time></trkpt><trkpt lat="44.84597908052815" lon="6.591626453521897"><ele>1372.0</ele><time>2026-05-02T15:46:07Z</time></trkpt><trkpt lat="44.84598330286837" lon="6.591716976057178"><ele>1369.5</ele><time>2026-05-02T15:46:08Z</time></trkpt><trkpt lat="44.84598440853733" lon="6.591814336611809"><ele>1367.0</ele><time>2026-05-02T15:46:09Z</time></trkpt><trkpt lat="44.845980590774076" lon="6.591913378100652"><ele>1368.3333333333335</ele><time>2026-05-02T15:46:10Z</time></trkpt><trkpt lat="44.8459673584059" lon="6.5920832523079325"><ele>1369.6666666666667</ele><time>2026-05-02T15:46:12Z</time></trkpt><trkpt lat="44.84596701524534" lon="6.592172807170184"><ele>1371.0</ele><time>2026-05-02T15:46:13Z</time></trkpt><trkpt lat="44.84598511459642" lon="6.59228778065695"><ele>1372.3333333333333</ele><time>2026-05-02T15:46:14Z</time></trkpt><trkpt lat="44.846026764293015" lon="6.5923706972110745"><ele>1373.6666666666665</ele><time>2026-05-02T15:46:15Z</time></trkpt><trkpt lat="44.846080404460125" lon="6.592473649548725"><ele>1375.0</ele><time>2026-05-02T15:46:16Z</time></trkpt><trkpt lat="44.84613369952043" lon="6.592565762151858"><ele>1375.0</ele><time>2026-05-02T15:46:17Z</time></trkpt><trkpt lat="44.846194217330286" lon="6.592666082538971"><ele>1375.0</ele><time>2026-05-02T15:46:18Z</time></trkpt><trkpt lat="44.84625360110922" lon="6.59277435092057"><ele>1375.0</ele><time>2026-05-02T15:46:19Z</time></trkpt><trkpt lat="44.846315006971466" lon="6.592874741652501"><ele>1375.0</ele><time>2026-05-02T15:46:20Z</time></trkpt><trkpt lat="44.84637013205562" lon="6.592957281239962"><ele>1375.0</ele><time>2026-05-02T15:46:21Z</time></trkpt><trkpt lat="44.84642764967403" lon="6.593047392874199"><ele>1377.6</ele><time>2026-05-02T15:46:22Z</time></trkpt><trkpt lat="44.84650001392273" lon="6.593113613247957"><ele>1380.2</ele><time>2026-05-02T15:46:23Z</time></trkpt><trkpt lat="44.846597906808576" lon="6.593165525441339"><ele>1382.8000000000002</ele><time>2026-05-02T15:46:24Z</time></trkpt><trkpt lat="44.84670297307447" lon="6.593202776933418"><ele>1385.4</ele><time>2026-05-02T15:46:25Z</time></trkpt><trkpt lat="44.846788361367224" lon="6.593227668430651"><ele>1388.0</ele><time>2026-05-02T15:46:26Z</time></trkpt><trkpt lat="44.846864098601316" lon="6.593257314149249"><ele>1388.0</ele><time>2026-05-02T15:46:27Z</time></trkpt><trkpt lat="44.84695116860613" lon="6.593298984275643"><ele>1388.0</ele><time>2026-05-02T15:46:28Z</time></trkpt><trkpt lat="44.847042804330385" lon="6.593348132642786"><ele>1388.0</ele><time>2026-05-02T15:46:29Z</time></trkpt><trkpt lat="44.847129551737645" lon="6.593371112336394"><ele>1388.0</ele><time>2026-05-02T15:46:30Z</time></trkpt><trkpt lat="44.847203955317084" lon="6.593379498873036"><ele>1388.0</ele><time>2026-05-02T15:46:31Z</time></trkpt><trkpt lat="44.847270547687806" lon="6.5934064630298685"><ele>1388.0</ele><time>2026-05-02T15:46:32Z</time></trkpt><trkpt lat="44.847336076592555" lon="6.593463572327042"><ele>1388.0</ele><time>2026-05-02T15:46:33Z</time></trkpt><trkpt lat="44.84740591064122" lon="6.593539983726919"><ele>1388.0</ele><time>2026-05-02T15:46:34Z</time></trkpt><trkpt lat="44.847475512826186" lon="6.593601464510201"><ele>1388.0</ele><time>2026-05-02T15:46:35Z</time></trkpt><trkpt lat="44.84755880347293" lon="6.593649462154576"><ele>1388.0</ele><time>2026-05-02T15:46:36Z</time></trkpt><trkpt lat="44.84764304052552" lon="6.593676786173658"><ele>1388.0</ele><time>2026-05-02T15:46:37Z</time></trkpt><trkpt lat="44.847748629407675" lon="6.5937084454022505"><ele>1392.0</ele><time>2026-05-02T15:46:38Z</time></trkpt><trkpt lat="44.847858987222146" lon="6.593755840584587"><ele>1396.0</ele><time>2026-05-02T15:46:39Z</time></trkpt><trkpt lat="44.847943234132195" lon="6.593814292694053"><ele>1400.0</ele><time>2026-05-02T15:46:40Z</time></trkpt><trkpt lat="44.848010306199676" lon="6.593890325425323"><ele>1404.0</ele><time>2026-05-02T15:46:41Z</time></trkpt><trkpt lat="44.84807472803207" lon="6.593974032873764"><ele>1408.0</ele><time>2026-05-02T15:46:42Z</time></trkpt><trkpt lat="44.84815444155359" lon="6.594035537137072"><ele>1408.0</ele><time>2026-05-02T15:46:43Z</time></trkpt><trkpt lat="44.84825686692128" lon="6.594085025318456"><ele>1408.0</ele><time>2026-05-02T15:46:44Z</time></trkpt><trkpt lat="44.84836293155015" lon="6.5941275761516565"><ele>1408.0</ele><time>2026-05-02T15:46:45Z</time></trkpt><trkpt lat="44.8484428654911" lon="6.594181176455813"><ele>1408.0</ele><time>2026-05-02T15:46:46Z</time></trkpt><trkpt lat="44.84851711270382" lon="6.594240494441805"><ele>1408.0</ele><time>2026-05-02T15:46:47Z</time></trkpt><trkpt lat="44.84859734225249" lon="6.594301162520819"><ele>1405.6000000000001</ele><time>2026-05-02T15:46:48Z</time></trkpt><trkpt lat="44.84870073411788" lon="6.594367423448366"><ele>1403.2</ele><time>2026-05-02T15:46:49Z</time></trkpt><trkpt lat="44.84881272022666" lon="6.594426446461597"><ele>1400.8</ele><time>2026-05-02T15:46:50Z</time></trkpt><trkpt lat="44.84889494891011" lon="6.594488423125997"><ele>1398.4</ele><time>2026-05-02T15:46:51Z</time></trkpt><trkpt lat="44.84896351987298" lon="6.594531501013606"><ele>1396.0</ele><time>2026-05-02T15:46:52Z</time></trkpt><trkpt lat="44.849069985769916" lon="6.594588689797712"><ele>1400.6666666666665</ele><time>2026-05-02T15:46:54Z</time></trkpt><trkpt lat="44.84913159981763" lon="6.594635716455748"><ele>1405.3333333333333</ele><time>2026-05-02T15:46:56Z</time></trkpt><trkpt lat="44.849145892109846" lon="6.594722428123549"><ele>1410.0</ele><time>2026-05-02T15:47:27Z</time></trkpt><trkpt lat="44.84906415710334" lon="6.594805358411318"><ele>1414.6666666666667</ele><time>2026-05-02T15:47:30Z</time></trkpt><trkpt lat="44.84896294361359" lon="6.594740528661163"><ele>1419.3333333333335</ele><time>2026-05-02T15:47:32Z</time></trkpt><trkpt lat="44.84890088762046" lon="6.594693295842618"><ele>1424.0</ele><time>2026-05-02T15:47:33Z</time></trkpt><trkpt lat="44.848824063531154" lon="6.594651900924402"><ele>1424.0</ele><time>2026-05-02T15:47:34Z</time></trkpt><trkpt lat="44.84873521471966" lon="6.5946271114577435"><ele>1424.0</ele><time>2026-05-02T15:47:35Z</time></trkpt><trkpt lat="44.84864387927259" lon="6.594623518431622"><ele>1424.0</ele><time>2026-05-02T15:47:36Z</time></trkpt><trkpt lat="44.848534447813265" lon="6.594625152680384"><ele>1424.0</ele><time>2026-05-02T15:47:37Z</time></trkpt><trkpt lat="44.8484034079901" lon="6.594646421948512"><ele>1424.0</ele><time>2026-05-02T15:47:38Z</time></trkpt><trkpt lat="44.84831468625567" lon="6.594655888045094"><ele>1425.4</ele><time>2026-05-02T15:47:39Z</time></trkpt><trkpt lat="44.84824287994459" lon="6.59467052573472"><ele>1426.8000000000002</ele><time>2026-05-02T15:47:40Z</time></trkpt><trkpt lat="44.8481617005251" lon="6.594694190200681"><ele>1428.1999999999998</ele><time>2026-05-02T15:47:41Z</time></trkpt><trkpt lat="44.848078247215355" lon="6.5947438378713965"><ele>1429.6</ele><time>2026-05-02T15:47:42Z</time></trkpt><trkpt lat="44.84797287454111" lon="6.594803363668807"><ele>1431.0</ele><time>2026-05-02T15:47:43Z</time></trkpt><trkpt lat="44.847874124084605" lon="6.594781746344314"><ele>1431.0</ele><time>2026-05-02T15:47:44Z</time></trkpt><trkpt lat="44.84778578206256" lon="6.594763238968217"><ele>1431.0</ele><time>2026-05-02T15:47:45Z</time></trkpt><trkpt lat="44.84767062755122" lon="6.594730013436737"><ele>1431.0</ele><time>2026-05-02T15:47:46Z</time></trkpt><trkpt lat="44.84754809161972" lon="6.594723053358581"><ele>1431.0</ele><time>2026-05-02T15:47:47Z</time></trkpt><trkpt lat="44.847428708008685" lon="6.594694690564283"><ele>1432.1999999999998</ele><time>2026-05-02T15:47:48Z</time></trkpt><trkpt lat="44.84733197935832" lon="6.594705445254935"><ele>1433.3999999999999</ele><time>2026-05-02T15:47:49Z</time></trkpt><trkpt lat="44.847254407752054" lon="6.594703503199355"><ele>1434.6</ele><time>2026-05-02T15:47:50Z</time></trkpt><trkpt lat="44.84714696501378" lon="6.594692301484196"><ele>1435.8</ele><time>2026-05-02T15:47:52Z</time></trkpt><trkpt lat="44.84707555785181" lon="6.594826646525518"><ele>1437.0</ele><time>2026-05-02T15:47:55Z</time></trkpt><trkpt lat="44.84717169702369" lon="6.594914661831617"><ele>1437.0</ele><time>2026-05-02T15:47:57Z</time></trkpt><trkpt lat="44.847235378086005" lon="6.594944112413591"><ele>1437.0</ele><time>2026-05-02T15:47:58Z</time></trkpt><trkpt lat="44.84732073756002" lon="6.59498834075362"><ele>1437.0</ele><time>2026-05-02T15:47:59Z</time></trkpt><trkpt lat="44.84737300498842" lon="6.595086951506068"><ele>1437.0</ele><time>2026-05-02T15:48:00Z</time></trkpt><trkpt lat="44.847463613322695" lon="6.595151642279092"><ele>1437.0</ele><time>2026-05-02T15:48:01Z</time></trkpt><trkpt lat="44.84754758295055" lon="6.595223548855899"><ele>1437.0</ele><time>2026-05-02T15:48:02Z</time></trkpt><trkpt lat="44.84762287422348" lon="6.595298988092918"><ele>1438.8333333333333</ele><time>2026-05-02T15:48:03Z</time></trkpt><trkpt lat="44.847687913657204" lon="6.5953730034821065"><ele>1440.6666666666667</ele><time>2026-05-02T15:48:04Z</time></trkpt><trkpt lat="44.84776593081958" lon="6.595447237510192"><ele>1442.5</ele><time>2026-05-02T15:48:05Z</time></trkpt><trkpt lat="44.84784488432715" lon="6.595494585326078"><ele>1444.3333333333335</ele><time>2026-05-02T15:48:06Z</time></trkpt><trkpt lat="44.84794028578156" lon="6.595490661581801"><ele>1446.1666666666667</ele><time>2026-05-02T15:48:07Z</time></trkpt><trkpt lat="44.848024181685446" lon="6.595521621370789"><ele>1448.0</ele><time>2026-05-02T15:48:08Z</time></trkpt><trkpt lat="44.848114629506696" lon="6.595560331719649"><ele>1448.0</ele><time>2026-05-02T15:48:09Z</time></trkpt><trkpt lat="44.84820842920974" lon="6.595601798677429"><ele>1448.0</ele><time>2026-05-02T15:48:10Z</time></trkpt><trkpt lat="44.84830326957117" lon="6.5956281620417965"><ele>1448.0</ele><time>2026-05-02T15:48:11Z</time></trkpt><trkpt lat="44.84837234073727" lon="6.595652477699868"><ele>1448.0</ele><time>2026-05-02T15:48:12Z</time></trkpt><trkpt lat="44.84843601134392" lon="6.595675741442501"><ele>1448.0</ele><time>2026-05-02T15:48:13Z</time></trkpt><trkpt lat="44.848529939261276" lon="6.595780271919196"><ele>1447.6000000000001</ele><time>2026-05-02T15:48:15Z</time></trkpt><trkpt lat="44.848564966153994" lon="6.5959547397237275"><ele>1447.2</ele><time>2026-05-02T15:48:17Z</time></trkpt><trkpt lat="44.8486029371773" lon="6.596047363620091"><ele>1446.8</ele><time>2026-05-02T15:48:18Z</time></trkpt><trkpt lat="44.848688015420784" lon="6.596099810246399"><ele>1446.4</ele><time>2026-05-02T15:48:19Z</time></trkpt><trkpt lat="44.8487606476096" lon="6.596159041812715"><ele>1446.0</ele><time>2026-05-02T15:48:20Z</time></trkpt><trkpt lat="44.848837766395754" lon="6.596234429738308"><ele>1448.8333333333333</ele><time>2026-05-02T15:48:21Z</time></trkpt><trkpt lat="44.848923608008946" lon="6.596239829561181"><ele>1451.6666666666667</ele><time>2026-05-02T15:48:22Z</time></trkpt><trkpt lat="44.848990783812894" lon="6.596280800879478"><ele>1454.5</ele><time>2026-05-02T15:48:23Z</time></trkpt><trkpt lat="44.84905524230884" lon="6.596269841676348"><ele>1457.3333333333335</ele><time>2026-05-02T15:48:24Z</time></trkpt><trkpt lat="44.84912898868711" lon="6.596353812257377"><ele>1460.1666666666667</ele><time>2026-05-02T15:48:26Z</time></trkpt><trkpt lat="44.84920281353321" lon="6.596492444835317"><ele>1463.0</ele><time>2026-05-02T15:48:28Z</time></trkpt><trkpt lat="44.849258835664365" lon="6.596571998713936"><ele>1461.2</ele><time>2026-05-02T15:48:29Z</time></trkpt><trkpt lat="44.84933451094476" lon="6.596621364372509"><ele>1459.4</ele><time>2026-05-02T15:48:30Z</time></trkpt><trkpt lat="44.84938750288438" lon="6.596696691329118"><ele>1457.6000000000001</ele><time>2026-05-02T15:48:31Z</time></trkpt><trkpt lat="44.84944666598224" lon="6.596736863612402"><ele>1455.8000000000002</ele><time>2026-05-02T15:48:32Z</time></trkpt><trkpt lat="44.84952360687544" lon="6.59684609178429"><ele>1454.0</ele><time>2026-05-02T15:48:34Z</time></trkpt><trkpt lat="44.84962452829747" lon="6.596947839508236"><ele>1456.5</ele><time>2026-05-02T15:48:36Z</time></trkpt><trkpt lat="44.849677456276595" lon="6.597009799957264"><ele>1459.0</ele><time>2026-05-02T15:48:37Z</time></trkpt><trkpt lat="44.84973208762715" lon="6.59706976201661"><ele>1461.5</ele><time>2026-05-02T15:48:38Z</time></trkpt><trkpt lat="44.84982292170622" lon="6.597170412603197"><ele>1464.0</ele><time>2026-05-02T15:48:40Z</time></trkpt><trkpt lat="44.84992520849691" lon="6.597258747699194"><ele>1466.5</ele><time>2026-05-02T15:48:42Z</time></trkpt><trkpt lat="44.84997757191965" lon="6.597308260995458"><ele>1469.0</ele><time>2026-05-02T15:48:43Z</time></trkpt><trkpt lat="44.85006186613989" lon="6.597414209464883"><ele>1469.0</ele><time>2026-05-02T15:48:45Z</time></trkpt><trkpt lat="44.85009532853206" lon="6.597514322532381"><ele>1469.0</ele><time>2026-05-02T15:48:47Z</time></trkpt><trkpt lat="44.85005048194329" lon="6.597605442164516"><ele>1469.0</ele><time>2026-05-02T15:48:49Z</time></trkpt><trkpt lat="44.84995832202438" lon="6.597613583427045"><ele>1469.0</ele><time>2026-05-02T15:49:02Z</time></trkpt><trkpt lat="44.84990344074613" lon="6.5975626988474225"><ele>1469.0</ele><time>2026-05-02T15:49:03Z</time></trkpt><trkpt lat="44.84983525018515" lon="6.597499039307243"><ele>1469.0</ele><time>2026-05-02T15:49:04Z</time></trkpt><trkpt lat="44.849762510501996" lon="6.597438562565462"><ele>1469.0</ele><time>2026-05-02T15:49:05Z</time></trkpt><trkpt lat="44.849667292149434" lon="6.597389481679074"><ele>1469.0</ele><time>2026-05-02T15:49:06Z</time></trkpt><trkpt lat="44.84955652337281" lon="6.597362387924204"><ele>1469.0</ele><time>2026-05-02T15:49:07Z</time></trkpt><trkpt lat="44.84944335635609" lon="6.597363975617725"><ele>1469.0</ele><time>2026-05-02T15:49:08Z</time></trkpt><trkpt lat="44.84933299377654" lon="6.597350528454553"><ele>1469.0</ele><time>2026-05-02T15:49:09Z</time></trkpt><trkpt lat="44.84923989506693" lon="6.59732540916849"><ele>1472.0</ele><time>2026-05-02T15:49:10Z</time></trkpt><trkpt lat="44.849158147953226" lon="6.597293843746666"><ele>1475.0</ele><time>2026-05-02T15:49:11Z</time></trkpt><trkpt lat="44.84909315539125" lon="6.597277793417271"><ele>1478.0</ele><time>2026-05-02T15:49:12Z</time></trkpt><trkpt lat="44.84899666858991" lon="6.597279166078426"><ele>1481.0</ele><time>2026-05-02T15:49:13Z</time></trkpt><trkpt lat="44.84889497077401" lon="6.597297753596889"><ele>1484.0</ele><time>2026-05-02T15:49:14Z</time></trkpt><trkpt lat="44.8487800970546" lon="6.597320214450937"><ele>1484.0</ele><time>2026-05-02T15:49:15Z</time></trkpt><trkpt lat="44.84868718139411" lon="6.597335225524878"><ele>1484.0</ele><time>2026-05-02T15:49:16Z</time></trkpt><trkpt lat="44.848606279701194" lon="6.59731908944736"><ele>1484.0</ele><time>2026-05-02T15:49:17Z</time></trkpt><trkpt lat="44.84853799345029" lon="6.597279931471927"><ele>1484.0</ele><time>2026-05-02T15:49:18Z</time></trkpt><trkpt lat="44.84844101316503" lon="6.597267120671125"><ele>1484.0</ele><time>2026-05-02T15:49:20Z</time></trkpt><trkpt lat="44.84841798394394" lon="6.59738224562429"><ele>1484.0</ele><time>2026-05-02T15:49:22Z</time></trkpt><trkpt lat="44.84848539367411" lon="6.597473519958294"><ele>1484.0</ele><time>2026-05-02T15:49:24Z</time></trkpt><trkpt lat="44.848553363254794" lon="6.597487559319462"><ele>1484.0</ele><time>2026-05-02T15:49:25Z</time></trkpt><trkpt lat="44.84864179565482" lon="6.597519314216279"><ele>1484.0</ele><time>2026-05-02T15:49:26Z</time></trkpt><trkpt lat="44.84872527971816" lon="6.597573964700444"><ele>1484.0</ele><time>2026-05-02T15:49:27Z</time></trkpt><trkpt lat="44.84879321692532" lon="6.597639470021473"><ele>1484.0</ele><time>2026-05-02T15:49:28Z</time></trkpt><trkpt lat="44.84886079250773" lon="6.597712076462726"><ele>1484.0</ele><time>2026-05-02T15:49:29Z</time></trkpt><trkpt lat="44.84892739414443" lon="6.597784266440888"><ele>1489.0</ele><time>2026-05-02T15:49:30Z</time></trkpt><trkpt lat="44.8489894976131" lon="6.59786693485207"><ele>1494.0</ele><time>2026-05-02T15:49:31Z</time></trkpt><trkpt lat="44.84904846949284" lon="6.59795997578972"><ele>1499.0</ele><time>2026-05-02T15:49:32Z</time></trkpt><trkpt lat="44.84911467779894" lon="6.598051048675428"><ele>1504.0</ele><time>2026-05-02T15:49:33Z</time></trkpt><trkpt lat="44.84918209421275" lon="6.598148711431698"><ele>1509.0</ele><time>2026-05-02T15:49:34Z</time></trkpt><trkpt lat="44.84924471055252" lon="6.598241505020061"><ele>1509.2</ele><time>2026-05-02T15:49:35Z</time></trkpt><trkpt lat="44.84931003272663" lon="6.598335425043585"><ele>1509.4</ele><time>2026-05-02T15:49:36Z</time></trkpt><trkpt lat="44.84938244239684" lon="6.5984377489860115"><ele>1509.6</ele><time>2026-05-02T15:49:37Z</time></trkpt><trkpt lat="44.84945804508511" lon="6.598545986967419"><ele>1509.8</ele><time>2026-05-02T15:49:38Z</time></trkpt><trkpt lat="44.849536349935214" lon="6.598663136391826"><ele>1510.0</ele><time>2026-05-02T15:49:39Z</time></trkpt><trkpt lat="44.84960971548415" lon="6.598764438000524"><ele>1510.0</ele><time>2026-05-02T15:49:40Z</time></trkpt><trkpt lat="44.84966986232694" lon="6.598842716512169"><ele>1510.0</ele><time>2026-05-02T15:49:41Z</time></trkpt><trkpt lat="44.84972788004907" lon="6.598911106584486"><ele>1510.0</ele><time>2026-05-02T15:49:42Z</time></trkpt><trkpt lat="44.849780981902775" lon="6.598962675518593"><ele>1510.0</ele><time>2026-05-02T15:49:43Z</time></trkpt><trkpt lat="44.84985277384009" lon="6.599020725220118"><ele>1510.0</ele><time>2026-05-02T15:49:45Z</time></trkpt><trkpt lat="44.8499020531863" lon="6.599103042229135"><ele>1510.0</ele><time>2026-05-02T15:49:50Z</time></trkpt><trkpt lat="44.84995123086959" lon="6.599182605847363"><ele>1510.0</ele><time>2026-05-02T15:51:17Z</time></trkpt><trkpt lat="44.850007827268165" lon="6.599323629936196"><ele>1510.0</ele><time>2026-05-02T15:51:19Z</time></trkpt><trkpt lat="44.85004519897234" lon="6.599481727108935"><ele>1510.0</ele><time>2026-05-02T15:51:21Z</time></trkpt><trkpt lat="44.85009707052647" lon="6.599628031369198"><ele>1510.0</ele><time>2026-05-02T15:51:23Z</time></trkpt><trkpt lat="44.850129180231" lon="6.599787850907429"><ele>1512.25</ele><time>2026-05-02T15:51:25Z</time></trkpt><trkpt lat="44.850154949811916" lon="6.599939286721463"><ele>1514.5</ele><time>2026-05-02T15:51:27Z</time></trkpt><trkpt lat="44.85017495038625" lon="6.6001048020178645"><ele>1516.75</ele><time>2026-05-02T15:51:29Z</time></trkpt><trkpt lat="44.850163573074745" lon="6.600267758079317"><ele>1519.0</ele><time>2026-05-02T15:51:31Z</time></trkpt><trkpt lat="44.85019283495297" lon="6.600430042843061"><ele>1521.5</ele><time>2026-05-02T15:51:33Z</time></trkpt><trkpt lat="44.8502194612845" lon="6.600514203547795"><ele>1524.0</ele><time>2026-05-02T15:51:34Z</time></trkpt><trkpt lat="44.85023692887037" lon="6.6006207986224545"><ele>1526.5</ele><time>2026-05-02T15:51:35Z</time></trkpt><trkpt lat="44.85028356600081" lon="6.600811809153612"><ele>1529.0</ele><time>2026-05-02T15:51:37Z</time></trkpt><trkpt lat="44.85032200274413" lon="6.600914943935527"><ele>1531.5</ele><time>2026-05-02T15:51:38Z</time></trkpt><trkpt lat="44.85036274131729" lon="6.600987527675408"><ele>1534.0</ele><time>2026-05-02T15:51:39Z</time></trkpt><trkpt lat="44.85040190140175" lon="6.601065584739772"><ele>1535.6666666666665</ele><time>2026-05-02T15:51:40Z</time></trkpt><trkpt lat="44.85044505937868" lon="6.601173915456957"><ele>1537.3333333333333</ele><time>2026-05-02T15:51:41Z</time></trkpt><trkpt lat="44.85048135321703" lon="6.601300542144134"><ele>1539.0</ele><time>2026-05-02T15:51:42Z</time></trkpt><trkpt lat="44.85050653318656" lon="6.601418377984295"><ele>1540.6666666666665</ele><time>2026-05-02T15:51:43Z</time></trkpt><trkpt lat="44.850548801809126" lon="6.601517392257744"><ele>1542.3333333333333</ele><time>2026-05-02T15:51:44Z</time></trkpt><trkpt lat="44.85059672360596" lon="6.601601914148356"><ele>1544.0</ele><time>2026-05-02T15:51:45Z</time></trkpt><trkpt lat="44.85064935213183" lon="6.601674498412511"><ele>1544.0</ele><time>2026-05-02T15:51:46Z</time></trkpt><trkpt lat="44.85069119116114" lon="6.601765048454539"><ele>1544.0</ele><time>2026-05-02T15:51:48Z</time></trkpt><trkpt lat="44.850711941700986" lon="6.601908427338594"><ele>1544.0</ele><time>2026-05-02T15:51:50Z</time></trkpt><trkpt lat="44.85071452443835" lon="6.602050404298422"><ele>1544.0</ele><time>2026-05-02T15:51:52Z</time></trkpt><trkpt lat="44.85074972991297" lon="6.602224216760258"><ele>1544.0</ele><time>2026-05-02T15:51:54Z</time></trkpt><trkpt lat="44.85079327586814" lon="6.6023256125398335"><ele>1546.0</ele><time>2026-05-02T15:51:55Z</time></trkpt><trkpt lat="44.850843322269654" lon="6.602472367377882"><ele>1548.0</ele><time>2026-05-02T15:51:57Z</time></trkpt><trkpt lat="44.85089950265937" lon="6.602606819795037"><ele>1550.0</ele><time>2026-05-02T15:51:59Z</time></trkpt><trkpt lat="44.85094757106533" lon="6.602665926867792"><ele>1552.0</ele><time>2026-05-02T15:52:00Z</time></trkpt><trkpt lat="44.8509991471752" lon="6.602719855133002"><ele>1554.0</ele><time>2026-05-02T15:52:01Z</time></trkpt><trkpt lat="44.85108386877131" lon="6.602832197532246"><ele>1558.1666666666667</ele><time>2026-05-02T15:52:03Z</time></trkpt><trkpt lat="44.85113628628337" lon="6.602955237205045"><ele>1562.3333333333335</ele><time>2026-05-02T15:52:05Z</time></trkpt><trkpt lat="44.851153221345065" lon="6.603058774318981"><ele>1566.5</ele><time>2026-05-02T15:52:07Z</time></trkpt><trkpt lat="44.851212714197864" lon="6.6031132319965895"><ele>1570.6666666666667</ele><time>2026-05-02T15:53:37Z</time></trkpt><trkpt lat="44.851147280088576" lon="6.603024729688595"><ele>1574.8333333333335</ele><time>2026-05-02T15:53:52Z</time></trkpt><trkpt lat="44.85111318039071" lon="6.602948574367235"><ele>1579.0</ele><time>2026-05-02T15:54:00Z</time></trkpt><trkpt lat="44.85107560471325" lon="6.602865022144349"><ele>1576.6666666666667</ele><time>2026-05-02T15:54:07Z</time></trkpt><trkpt lat="44.851037143154045" lon="6.602784787262968"><ele>1574.3333333333335</ele><time>2026-05-02T15:54:12Z</time></trkpt><trkpt lat="44.85098906874406" lon="6.602710541821583"><ele>1572.0</ele><time>2026-05-02T15:54:18Z</time></trkpt><trkpt lat="44.85092921452677" lon="6.602668422102649"><ele>1569.6666666666665</ele><time>2026-05-02T15:55:42Z</time></trkpt><trkpt lat="44.85087445559815" lon="6.602592296999446"><ele>1567.3333333333333</ele><time>2026-05-02T15:55:45Z</time></trkpt><trkpt lat="44.85082673047752" lon="6.602490141104146"><ele>1565.0</ele><time>2026-05-02T15:55:48Z</time></trkpt><trkpt lat="44.85079744585048" lon="6.602383278783061"><ele>1565.0000000000002</ele><time>2026-05-02T15:55:50Z</time></trkpt><trkpt lat="44.850765261612686" lon="6.602291320876615"><ele>1565.0</ele><time>2026-05-02T15:55:52Z</time></trkpt><trkpt lat="44.85074225331566" lon="6.602208443896488"><ele>1565.0</ele><time>2026-05-02T15:55:55Z</time></trkpt><trkpt lat="44.850789125666374" lon="6.602311940601725"><ele>1565.0</ele><time>2026-05-02T15:56:20Z</time></trkpt><trkpt lat="44.85081637100204" lon="6.602400257676669"><ele>1565.0</ele><time>2026-05-02T15:56:22Z</time></trkpt><trkpt lat="44.85084533610582" lon="6.602494447195292"><ele>1565.0000000000002</ele><time>2026-05-02T15:56:24Z</time></trkpt><trkpt lat="44.85087466573211" lon="6.602590843990527"><ele>1565.0</ele><time>2026-05-02T15:56:26Z</time></trkpt><trkpt lat="44.850936090383684" lon="6.6026548259734215"><ele>1563.1666666666665</ele><time>2026-05-02T15:56:28Z</time></trkpt><trkpt lat="44.850997753870544" lon="6.602714264028154"><ele>1561.3333333333333</ele><time>2026-05-02T15:56:30Z</time></trkpt><trkpt lat="44.8510522042757" lon="6.6027962425563445"><ele>1559.5</ele><time>2026-05-02T15:56:32Z</time></trkpt><trkpt lat="44.85109418185118" lon="6.602891993740452"><ele>1557.6666666666665</ele><time>2026-05-02T15:56:34Z</time></trkpt><trkpt lat="44.85111952128258" lon="6.603000229759606"><ele>1555.8333333333333</ele><time>2026-05-02T15:56:37Z</time></trkpt><trkpt lat="44.85107951166613" lon="6.6029278448743245"><ele>1554.0</ele><time>2026-05-02T15:59:19Z</time></trkpt><trkpt lat="44.851039561291685" lon="6.6028154166773465"><ele>1554.0</ele><time>2026-05-02T15:59:33Z</time></trkpt><trkpt lat="44.850999453379785" lon="6.602726516770249"><ele>1554.0</ele><time>2026-05-02T15:59:35Z</time></trkpt><trkpt lat="44.8509419368604" lon="6.602665901976254"><ele>1554.0</ele><time>2026-05-02T15:59:37Z</time></trkpt><trkpt lat="44.85088498449486" lon="6.602596898258065"><ele>1554.0</ele><time>2026-05-02T15:59:40Z</time></trkpt><trkpt lat="44.85082453398517" lon="6.602501239183588"><ele>1554.0</ele><time>2026-05-02T15:59:43Z</time></trkpt><trkpt lat="44.850807644095674" lon="6.602397949908413"><ele>1554.0</ele><time>2026-05-02T15:59:45Z</time></trkpt><trkpt lat="44.85077758746628" lon="6.602301279818387"><ele>1555.8333333333333</ele><time>2026-05-02T15:59:47Z</time></trkpt><trkpt lat="44.850743341782234" lon="6.602220559711471"><ele>1557.6666666666665</ele><time>2026-05-02T15:59:49Z</time></trkpt><trkpt lat="44.850714670791156" lon="6.602128253929874"><ele>1559.5</ele><time>2026-05-02T15:59:52Z</time></trkpt><trkpt lat="44.85074333291657" lon="6.602243147015715"><ele>1561.3333333333333</ele><time>2026-05-02T16:00:13Z</time></trkpt><trkpt lat="44.850789190432046" lon="6.602318432544335"><ele>1563.1666666666665</ele><time>2026-05-02T16:00:15Z</time></trkpt><trkpt lat="44.85081864208591" lon="6.602445106801503"><ele>1565.0</ele><time>2026-05-02T16:00:18Z</time></trkpt><trkpt lat="44.850866752127985" lon="6.60256158299907"><ele>1565.0</ele><time>2026-05-02T16:00:20Z</time></trkpt><trkpt lat="44.850932274588985" lon="6.602660616114815"><ele>1565.0</ele><time>2026-05-02T16:00:22Z</time></trkpt><trkpt lat="44.851022718650185" lon="6.602762258944902"><ele>1565.0</ele><time>2026-05-02T16:00:24Z</time></trkpt><trkpt lat="44.85108403100943" lon="6.602867253061871"><ele>1565.0</ele><time>2026-05-02T16:00:26Z</time></trkpt><trkpt lat="44.851123091134774" lon="6.6029873017802885"><ele>1565.0</ele><time>2026-05-02T16:00:28Z</time></trkpt><trkpt lat="44.851154401198706" lon="6.60309797154391"><ele>1567.3333333333333</ele><time>2026-05-02T16:00:30Z</time></trkpt><trkpt lat="44.8511896301846" lon="6.603215520243077"><ele>1569.6666666666665</ele><time>2026-05-02T16:00:32Z</time></trkpt><trkpt lat="44.85123225201417" lon="6.6033229619625535"><ele>1572.0</ele><time>2026-05-02T16:00:34Z</time></trkpt><trkpt lat="44.85128225211041" lon="6.603395441638041"><ele>1574.3333333333335</ele><time>2026-05-02T16:00:37Z</time></trkpt><trkpt lat="44.85135056303309" lon="6.603506399599788"><ele>1576.6666666666667</ele><time>2026-05-02T16:02:45Z</time></trkpt><trkpt lat="44.85142095214319" lon="6.603597595191454"><ele>1579.0</ele><time>2026-05-02T16:02:47Z</time></trkpt><trkpt lat="44.85149695196823" lon="6.603649636766865"><ele>1579.6666666666667</ele><time>2026-05-02T16:02:48Z</time></trkpt><trkpt lat="44.851561304030284" lon="6.603699200013303"><ele>1580.3333333333335</ele><time>2026-05-02T16:02:49Z</time></trkpt><trkpt lat="44.851620000005305" lon="6.603757700335152"><ele>1581.0</ele><time>2026-05-02T16:02:50Z</time></trkpt><trkpt lat="44.85168164126366" lon="6.603825438834374"><ele>1581.6666666666665</ele><time>2026-05-02T16:02:51Z</time></trkpt><trkpt lat="44.851743087155945" lon="6.6039093314929564"><ele>1582.3333333333333</ele><time>2026-05-02T16:02:52Z</time></trkpt><trkpt lat="44.851797192807865" lon="6.6039924993325565"><ele>1583.0</ele><time>2026-05-02T16:02:53Z</time></trkpt><trkpt lat="44.85188880843122" lon="6.604105161672676"><ele>1582.9999999999998</ele><time>2026-05-02T16:02:55Z</time></trkpt><trkpt lat="44.8519589559746" lon="6.6041628186232"><ele>1583.0</ele><time>2026-05-02T16:02:56Z</time></trkpt><trkpt lat="44.85202971434548" lon="6.604237429269739"><ele>1583.0</ele><time>2026-05-02T16:02:57Z</time></trkpt><trkpt lat="44.85209635617854" lon="6.604314985561128"><ele>1583.0</ele><time>2026-05-02T16:02:58Z</time></trkpt><trkpt lat="44.85216686963578" lon="6.604401461782648"><ele>1582.9999999999998</ele><time>2026-05-02T16:02:59Z</time></trkpt><trkpt lat="44.85222041921318" lon="6.604469739334792"><ele>1583.0</ele><time>2026-05-02T16:03:00Z</time></trkpt><trkpt lat="44.85227113999822" lon="6.604531059439593"><ele>1583.8333333333333</ele><time>2026-05-02T16:03:01Z</time></trkpt><trkpt lat="44.85232125441435" lon="6.6046419977763655"><ele>1584.6666666666665</ele><time>2026-05-02T16:03:03Z</time></trkpt><trkpt lat="44.852371804561145" lon="6.604699265850906"><ele>1585.5</ele><time>2026-05-02T16:03:06Z</time></trkpt><trkpt lat="44.852410109948444" lon="6.604799675680361"><ele>1586.3333333333335</ele><time>2026-05-02T16:03:12Z</time></trkpt><trkpt lat="44.85238699243897" lon="6.604882882351145"><ele>1587.1666666666667</ele><time>2026-05-02T16:03:15Z</time></trkpt><trkpt lat="44.852422259724534" lon="6.604977450178335"><ele>1588.0</ele><time>2026-05-02T16:03:38Z</time></trkpt><trkpt lat="44.85248486777408" lon="6.605074967386196"><ele>1588.0</ele><time>2026-05-02T16:03:40Z</time></trkpt><trkpt lat="44.85253356966219" lon="6.605176268829419"><ele>1588.0</ele><time>2026-05-02T16:03:42Z</time></trkpt><trkpt lat="44.85255923813228" lon="6.605268620829079"><ele>1588.0</ele><time>2026-05-02T16:03:44Z</time></trkpt><trkpt lat="44.8526060959274" lon="6.605345470967671"><ele>1588.0</ele><time>2026-05-02T16:03:46Z</time></trkpt><trkpt lat="44.85267698036836" lon="6.605390780471424"><ele>1588.0</ele><time>2026-05-02T16:03:48Z</time></trkpt><trkpt lat="44.85273858323287" lon="6.6054395146419065"><ele>1588.0</ele><time>2026-05-02T16:03:50Z</time></trkpt><trkpt lat="44.85278893394034" lon="6.605493835187966"><ele>1588.0</ele><time>2026-05-02T16:03:56Z</time></trkpt><trkpt lat="44.852834591322136" lon="6.6055609444994525"><ele>1587.0</ele><time>2026-05-02T16:04:00Z</time></trkpt><trkpt lat="44.852877193248005" lon="6.605633601052661"><ele>1586.0</ele><time>2026-05-02T16:04:02Z</time></trkpt><trkpt lat="44.852938467221946" lon="6.605666045528256"><ele>1585.0</ele><time>2026-05-02T16:04:04Z</time></trkpt><trkpt lat="44.85299749291922" lon="6.6057313244217415"><ele>1584.0</ele><time>2026-05-02T16:04:06Z</time></trkpt><trkpt lat="44.85304515675233" lon="6.605817669396623"><ele>1583.0</ele><time>2026-05-02T16:04:08Z</time></trkpt><trkpt lat="44.853094330433976" lon="6.605905172844028"><ele>1582.0</ele><time>2026-05-02T16:04:11Z</time></trkpt><trkpt lat="44.85315643771118" lon="6.605966138915216"><ele>1581.0</ele><time>2026-05-02T16:04:14Z</time></trkpt><trkpt lat="44.853227550175006" lon="6.6060402030450875"><ele>1581.0</ele><time>2026-05-02T16:04:17Z</time></trkpt><trkpt lat="44.853291649299614" lon="6.606091471039924"><ele>1581.0</ele><time>2026-05-02T16:04:20Z</time></trkpt><trkpt lat="44.85336844107414" lon="6.606125644151758"><ele>1581.0</ele><time>2026-05-02T16:04:24Z</time></trkpt><trkpt lat="44.85343390294277" lon="6.606174761358485"><ele>1581.0</ele><time>2026-05-02T16:04:26Z</time></trkpt><trkpt lat="44.853495868587146" lon="6.606203157040343"><ele>1581.0</ele><time>2026-05-02T16:04:29Z</time></trkpt><trkpt lat="44.85353583768225" lon="6.606276155435866"><ele>1581.0</ele><time>2026-05-02T16:04:32Z</time></trkpt><trkpt lat="44.85358367867047" lon="6.606353337970771"><ele>1581.0</ele><time>2026-05-02T16:04:43Z</time></trkpt><trkpt lat="44.8535787353065" lon="6.606448509099548"><ele>1581.3333333333333</ele><time>2026-05-02T16:04:47Z</time></trkpt><trkpt lat="44.853634236850525" lon="6.6065492679361375"><ele>1581.6666666666665</ele><time>2026-05-02T16:06:19Z</time></trkpt><trkpt lat="44.85363405238031" lon="6.606645011789499"><ele>1582.0</ele><time>2026-05-02T16:06:23Z</time></trkpt><trkpt lat="44.85366760624023" lon="6.606723433032353"><ele>1582.3333333333333</ele><time>2026-05-02T16:07:05Z</time></trkpt><trkpt lat="44.853709727441476" lon="6.6068314810657425"><ele>1582.6666666666665</ele><time>2026-05-02T16:07:12Z</time></trkpt><trkpt lat="44.85372436940726" lon="6.606961449813267"><ele>1583.0</ele><time>2026-05-02T16:07:14Z</time></trkpt><trkpt lat="44.85368910197444" lon="6.607043427398859"><ele>1584.5714285714287</ele><time>2026-05-02T16:07:17Z</time></trkpt><trkpt lat="44.85367938057599" lon="6.6071443970980335"><ele>1586.1428571428573</ele><time>2026-05-02T16:07:22Z</time></trkpt><trkpt lat="44.853687727527735" lon="6.607246814173934"><ele>1587.7142857142858</ele><time>2026-05-02T16:07:24Z</time></trkpt><trkpt lat="44.85371238408677" lon="6.607336569216176"><ele>1589.2857142857142</ele><time>2026-05-02T16:07:27Z</time></trkpt><trkpt lat="44.853775526887034" lon="6.607378131318476"><ele>1590.857142857143</ele><time>2026-05-02T16:07:39Z</time></trkpt><trkpt lat="44.85383509033136" lon="6.607415435753271"><ele>1592.4285714285713</ele><time>2026-05-02T16:07:43Z</time></trkpt><trkpt lat="44.85389158854706" lon="6.60745544207286"><ele>1594.0</ele><time>2026-05-02T16:07:45Z</time></trkpt><trkpt lat="44.853918869746856" lon="6.607571892961593"><ele>1594.0000000000002</ele><time>2026-05-02T16:07:48Z</time></trkpt><trkpt lat="44.85398592883622" lon="6.607627417713232"><ele>1594.0</ele><time>2026-05-02T16:07:52Z</time></trkpt><trkpt lat="44.85403025667779" lon="6.607726886997593"><ele>1594.0</ele><time>2026-05-02T16:07:54Z</time></trkpt><trkpt lat="44.8540736732803" lon="6.607812735482293"><ele>1594.0</ele><time>2026-05-02T16:07:56Z</time></trkpt><trkpt lat="44.85412999610872" lon="6.60786239357366"><ele>1594.0000000000002</ele><time>2026-05-02T16:08:01Z</time></trkpt><trkpt lat="44.85424291165969" lon="6.607884466391467"><ele>1594.0</ele><time>2026-05-02T16:08:04Z</time></trkpt><trkpt lat="44.85432309304389" lon="6.607874582821411"><ele>1590.3333333333335</ele><time>2026-05-02T16:08:06Z</time></trkpt><trkpt lat="44.85438166424939" lon="6.6079872176458085"><ele>1586.6666666666667</ele><time>2026-05-02T16:08:10Z</time></trkpt><trkpt lat="44.85440277136401" lon="6.608120011863825"><ele>1583.0</ele><time>2026-05-02T16:08:13Z</time></trkpt><trkpt lat="44.85437156632208" lon="6.608203158007163"><ele>1579.3333333333335</ele><time>2026-05-02T16:08:16Z</time></trkpt><trkpt lat="44.85439545648813" lon="6.6082857375022"><ele>1575.6666666666667</ele><time>2026-05-02T16:08:21Z</time></trkpt><trkpt lat="44.85438411187975" lon="6.6083838738090375"><ele>1572.0</ele><time>2026-05-02T16:09:02Z</time></trkpt><trkpt lat="44.85441145723707" lon="6.608494356182468"><ele>1572.0</ele><time>2026-05-02T16:09:06Z</time></trkpt><trkpt lat="44.85440185134189" lon="6.608606366831947"><ele>1572.0</ele><time>2026-05-02T16:09:09Z</time></trkpt><trkpt lat="44.854414258105614" lon="6.608732339906794"><ele>1572.0</ele><time>2026-05-02T16:09:12Z</time></trkpt><trkpt lat="44.85443478743208" lon="6.608850772751101"><ele>1572.0</ele><time>2026-05-02T16:09:14Z</time></trkpt><trkpt lat="44.854478495874986" lon="6.608945387277167"><ele>1572.0</ele><time>2026-05-02T16:09:16Z</time></trkpt><trkpt lat="44.854530370724724" lon="6.609023180654771"><ele>1572.0</ele><time>2026-05-02T16:09:18Z</time></trkpt><trkpt lat="44.854587645235256" lon="6.6091137650068825"><ele>1571.6666666666667</ele><time>2026-05-02T16:09:20Z</time></trkpt><trkpt lat="44.85465669471197" lon="6.609163662085739"><ele>1571.3333333333335</ele><time>2026-05-02T16:09:22Z</time></trkpt><trkpt lat="44.85473548043115" lon="6.609174419141729"><ele>1571.0</ele><time>2026-05-02T16:09:24Z</time></trkpt><trkpt lat="44.85480889842368" lon="6.609173956289602"><ele>1570.6666666666667</ele><time>2026-05-02T16:09:26Z</time></trkpt><trkpt lat="44.854879511261686" lon="6.609142370070978"><ele>1570.3333333333335</ele><time>2026-05-02T16:09:29Z</time></trkpt><trkpt lat="44.85493565588342" lon="6.609089112391433"><ele>1570.0</ele><time>2026-05-02T16:09:31Z</time></trkpt><trkpt lat="44.85499347800805" lon="6.608990895878894"><ele>1570.0000000000002</ele><time>2026-05-02T16:09:34Z</time></trkpt><trkpt lat="44.85505732186385" lon="6.608920905058368"><ele>1570.0</ele><time>2026-05-02T16:09:36Z</time></trkpt><trkpt lat="44.85512213653617" lon="6.608863851348265"><ele>1570.0</ele><time>2026-05-02T16:09:38Z</time></trkpt><trkpt lat="44.85517528756654" lon="6.608780546017924"><ele>1570.0</ele><time>2026-05-02T16:09:41Z</time></trkpt><trkpt lat="44.855246987325664" lon="6.608728652795024"><ele>1570.0000000000002</ele><time>2026-05-02T16:09:52Z</time></trkpt><trkpt lat="44.855309363319414" lon="6.608667137846117"><ele>1570.0</ele><time>2026-05-02T16:09:54Z</time></trkpt><trkpt lat="44.85536277819518" lon="6.608606001974826"><ele>1567.0</ele><time>2026-05-02T16:09:56Z</time></trkpt><trkpt lat="44.85543089539551" lon="6.608534514599377"><ele>1564.0</ele><time>2026-05-02T16:10:02Z</time></trkpt><trkpt lat="44.85549688202154" lon="6.608481720997515"><ele>1561.0</ele><time>2026-05-02T16:10:05Z</time></trkpt><trkpt lat="44.85554558267204" lon="6.6084228332850925"><ele>1558.0</ele><time>2026-05-02T16:10:08Z</time></trkpt><trkpt lat="44.855593270162075" lon="6.608352962308333"><ele>1555.0</ele><time>2026-05-02T16:10:12Z</time></trkpt><trkpt lat="44.85565949129859" lon="6.608292168143787"><ele>1552.0</ele><time>2026-05-02T16:10:15Z</time></trkpt><trkpt lat="44.855720564150936" lon="6.608229553098103"><ele>1549.0</ele><time>2026-05-02T16:10:17Z</time></trkpt><trkpt lat="44.85577360039045" lon="6.6081355724581"><ele>1549.0000000000002</ele><time>2026-05-02T16:10:19Z</time></trkpt><trkpt lat="44.85583492222814" lon="6.608063856685418"><ele>1549.0</ele><time>2026-05-02T16:10:22Z</time></trkpt><trkpt lat="44.855873821381856" lon="6.608133858181271"><ele>1549.0</ele><time>2026-05-02T16:10:25Z</time></trkpt><trkpt lat="44.85589965768893" lon="6.608218777210481"><ele>1549.0</ele><time>2026-05-02T16:10:27Z</time></trkpt><trkpt lat="44.85593308938899" lon="6.608325780455278"><ele>1549.0000000000002</ele><time>2026-05-02T16:10:30Z</time></trkpt><trkpt lat="44.85594291347193" lon="6.608471114745133"><ele>1549.0</ele><time>2026-05-02T16:10:32Z</time></trkpt><trkpt lat="44.85591261292014" lon="6.608610673120162"><ele>1548.3333333333335</ele><time>2026-05-02T16:10:34Z</time></trkpt><trkpt lat="44.855876247766865" lon="6.608726648099602"><ele>1547.6666666666667</ele><time>2026-05-02T16:10:36Z</time></trkpt><trkpt lat="44.85585270285352" lon="6.60881279288825"><ele>1547.0</ele><time>2026-05-02T16:10:38Z</time></trkpt><trkpt lat="44.855862682998314" lon="6.608916365656095"><ele>1546.3333333333335</ele><time>2026-05-02T16:10:40Z</time></trkpt><trkpt lat="44.855893608148286" lon="6.609037553519071"><ele>1545.6666666666667</ele><time>2026-05-02T16:10:42Z</time></trkpt><trkpt lat="44.85592876266664" lon="6.609117458722669"><ele>1545.0</ele><time>2026-05-02T16:10:44Z</time></trkpt><trkpt lat="44.85596944621284" lon="6.609229677363693"><ele>1545.0</ele><time>2026-05-02T16:10:46Z</time></trkpt><trkpt lat="44.855958429620905" lon="6.609332496185155"><ele>1545.0</ele><time>2026-05-02T16:10:48Z</time></trkpt><trkpt lat="44.85592801137569" lon="6.609413891366104"><ele>1545.0</ele><time>2026-05-02T16:10:50Z</time></trkpt><trkpt lat="44.85589194238922" lon="6.609492640790438"><ele>1545.0</ele><time>2026-05-02T16:10:52Z</time></trkpt><trkpt lat="44.85588279733757" lon="6.609587984913353"><ele>1545.0</ele><time>2026-05-02T16:10:56Z</time></trkpt><trkpt lat="44.855883390459134" lon="6.609702262808426"><ele>1545.0</ele><time>2026-05-02T16:14:36Z</time></trkpt><trkpt lat="44.855895199140285" lon="6.609830367500101"><ele>1545.0</ele><time>2026-05-02T16:14:39Z</time></trkpt><trkpt lat="44.8559047043282" lon="6.609950931576719"><ele>1545.0</ele><time>2026-05-02T16:14:42Z</time></trkpt><trkpt lat="44.85593522919211" lon="6.610084265638534"><ele>1545.0</ele><time>2026-05-02T16:14:45Z</time></trkpt><trkpt lat="44.85594898583734" lon="6.610195479161139"><ele>1545.0</ele><time>2026-05-02T16:14:47Z</time></trkpt><trkpt lat="44.85599962018014" lon="6.610277746845569"><ele>1545.0</ele><time>2026-05-02T16:14:50Z</time></trkpt><trkpt lat="44.85604947708788" lon="6.6103657653516965"><ele>1545.0</ele><time>2026-05-02T16:14:53Z</time></trkpt><trkpt lat="44.85608216478292" lon="6.610442990389456"><ele>1545.0</ele><time>2026-05-02T16:14:56Z</time></trkpt><trkpt lat="44.85613648626423" lon="6.610545400225792"><ele>1540.5</ele><time>2026-05-02T16:15:02Z</time></trkpt><trkpt lat="44.85618386699723" lon="6.610636462920174"><ele>1536.0</ele><time>2026-05-02T16:15:04Z</time></trkpt><trkpt lat="44.85623285839169" lon="6.610720125370772"><ele>1531.5</ele><time>2026-05-02T16:15:06Z</time></trkpt><trkpt lat="44.85630055093249" lon="6.6108120114575915"><ele>1527.0</ele><time>2026-05-02T16:15:08Z</time></trkpt><trkpt lat="44.856382368033316" lon="6.6108706733009965"><ele>1522.5</ele><time>2026-05-02T16:15:10Z</time></trkpt><trkpt lat="44.856461012175494" lon="6.61090407568056"><ele>1518.0</ele><time>2026-05-02T16:15:12Z</time></trkpt><trkpt lat="44.85653585051228" lon="6.610958796054765"><ele>1518.0</ele><time>2026-05-02T16:15:15Z</time></trkpt><trkpt lat="44.85659931662629" lon="6.611028558113134"><ele>1518.0</ele><time>2026-05-02T16:15:18Z</time></trkpt><trkpt lat="44.85667520648677" lon="6.611076354260804"><ele>1518.0</ele><time>2026-05-02T16:15:20Z</time></trkpt><trkpt lat="44.856757582037865" lon="6.611105400958761"><ele>1518.0</ele><time>2026-05-02T16:15:22Z</time></trkpt><trkpt lat="44.85688941109879" lon="6.611215420577455"><ele>1518.0</ele><time>2026-05-02T16:17:23Z</time></trkpt><trkpt lat="44.856939414230126" lon="6.6112853864396595"><ele>1517.5</ele><time>2026-05-02T16:17:24Z</time></trkpt><trkpt lat="44.856995154249326" lon="6.611362380739279"><ele>1517.0</ele><time>2026-05-02T16:17:25Z</time></trkpt><trkpt lat="44.85704777688117" lon="6.611458433608554"><ele>1516.5</ele><time>2026-05-02T16:17:26Z</time></trkpt><trkpt lat="44.85709128196008" lon="6.6115367329323025"><ele>1516.0</ele><time>2026-05-02T16:17:27Z</time></trkpt><trkpt lat="44.85712772527607" lon="6.6116321877935915"><ele>1515.5</ele><time>2026-05-02T16:17:28Z</time></trkpt><trkpt lat="44.85717634777018" lon="6.611728269644045"><ele>1515.0</ele><time>2026-05-02T16:17:29Z</time></trkpt><trkpt lat="44.857220416613764" lon="6.611814331431116"><ele>1515.0</ele><time>2026-05-02T16:17:30Z</time></trkpt><trkpt lat="44.85726715556822" lon="6.611901313645198"><ele>1515.0</ele><time>2026-05-02T16:17:31Z</time></trkpt><trkpt lat="44.85731783107075" lon="6.611997483017969"><ele>1515.0</ele><time>2026-05-02T16:17:32Z</time></trkpt><trkpt lat="44.85736709709492" lon="6.612091873690683"><ele>1515.0</ele><time>2026-05-02T16:17:33Z</time></trkpt><trkpt lat="44.85741309869834" lon="6.6121696514188795"><ele>1515.0</ele><time>2026-05-02T16:17:34Z</time></trkpt><trkpt lat="44.85745403707013" lon="6.612258763932288"><ele>1515.0</ele><time>2026-05-02T16:17:35Z</time></trkpt><trkpt lat="44.85749212882631" lon="6.612359122383343"><ele>1515.8</ele><time>2026-05-02T16:17:36Z</time></trkpt><trkpt lat="44.85753490545779" lon="6.612466163171083"><ele>1516.6</ele><time>2026-05-02T16:17:37Z</time></trkpt><trkpt lat="44.85759130944304" lon="6.612597422760872"><ele>1517.4</ele><time>2026-05-02T16:17:38Z</time></trkpt><trkpt lat="44.85764118077313" lon="6.61271827619373"><ele>1518.2</ele><time>2026-05-02T16:17:39Z</time></trkpt><trkpt lat="44.857683500359336" lon="6.612848823599001"><ele>1519.0</ele><time>2026-05-02T16:17:40Z</time></trkpt><trkpt lat="44.85772876688854" lon="6.612975180858682"><ele>1519.0</ele><time>2026-05-02T16:17:41Z</time></trkpt><trkpt lat="44.85778112608641" lon="6.613115205452209"><ele>1519.0</ele><time>2026-05-02T16:17:42Z</time></trkpt><trkpt lat="44.85782028780197" lon="6.6132465670678515"><ele>1519.0</ele><time>2026-05-02T16:17:43Z</time></trkpt><trkpt lat="44.85785195579114" lon="6.6133596332733156"><ele>1519.0</ele><time>2026-05-02T16:17:44Z</time></trkpt><trkpt lat="44.85788195367478" lon="6.613473970785357"><ele>1519.0</ele><time>2026-05-02T16:17:45Z</time></trkpt><trkpt lat="44.857915568516574" lon="6.613584671206343"><ele>1521.8333333333333</ele><time>2026-05-02T16:17:46Z</time></trkpt><trkpt lat="44.857946715276476" lon="6.613674584862747"><ele>1524.6666666666665</ele><time>2026-05-02T16:17:47Z</time></trkpt><trkpt lat="44.85795977958252" lon="6.613762714814106"><ele>1527.5</ele><time>2026-05-02T16:17:48Z</time></trkpt><trkpt lat="44.85796521260463" lon="6.613885735260605"><ele>1530.3333333333333</ele><time>2026-05-02T16:17:49Z</time></trkpt><trkpt lat="44.857969962646806" lon="6.614012410130717"><ele>1533.1666666666667</ele><time>2026-05-02T16:17:50Z</time></trkpt><trkpt lat="44.85799201304853" lon="6.614134613145932"><ele>1536.0</ele><time>2026-05-02T16:17:51Z</time></trkpt><trkpt lat="44.85803975028981" lon="6.614246078711494"><ele>1536.0</ele><time>2026-05-02T16:17:52Z</time></trkpt><trkpt lat="44.85810169359192" lon="6.6143177708427165"><ele>1536.0</ele><time>2026-05-02T16:17:53Z</time></trkpt><trkpt lat="44.85815938587193" lon="6.614363086157755"><ele>1536.0</ele><time>2026-05-02T16:17:54Z</time></trkpt><trkpt lat="44.8581828042608" lon="6.614524286156935"><ele>1536.0</ele><time>2026-05-02T16:17:56Z</time></trkpt><trkpt lat="44.8581777315192" lon="6.614622042553982"><ele>1536.0</ele><time>2026-05-02T16:17:57Z</time></trkpt><trkpt lat="44.85817198579322" lon="6.614730209132838"><ele>1536.0</ele><time>2026-05-02T16:17:58Z</time></trkpt><trkpt lat="44.85819064600518" lon="6.614851311105115"><ele>1536.7142857142856</ele><time>2026-05-02T16:17:59Z</time></trkpt><trkpt lat="44.85821403694187" lon="6.614965208882346"><ele>1537.4285714285713</ele><time>2026-05-02T16:18:00Z</time></trkpt><trkpt lat="44.85822771314999" lon="6.61508062381584"><ele>1538.142857142857</ele><time>2026-05-02T16:18:01Z</time></trkpt><trkpt lat="44.85822463418406" lon="6.615174699312596"><ele>1538.8571428571427</ele><time>2026-05-02T16:18:02Z</time></trkpt><trkpt lat="44.858246813394025" lon="6.615260910067502"><ele>1539.5714285714287</ele><time>2026-05-02T16:18:03Z</time></trkpt><trkpt lat="44.85828347960933" lon="6.61535668315642"><ele>1540.2857142857142</ele><time>2026-05-02T16:18:04Z</time></trkpt><trkpt lat="44.85832223052359" lon="6.615441577186488"><ele>1541.0</ele><time>2026-05-02T16:18:05Z</time></trkpt><trkpt lat="44.85834509269573" lon="6.615542474752384"><ele>1541.4999999999998</ele><time>2026-05-02T16:18:06Z</time></trkpt><trkpt lat="44.8583555890956" lon="6.6156371396340035"><ele>1542.0</ele><time>2026-05-02T16:18:07Z</time></trkpt><trkpt lat="44.85835643524053" lon="6.61575623802053"><ele>1542.5</ele><time>2026-05-02T16:18:08Z</time></trkpt><trkpt lat="44.858351679841455" lon="6.615865882251326"><ele>1543.0</ele><time>2026-05-02T16:18:09Z</time></trkpt><trkpt lat="44.85834847994348" lon="6.615966109075928"><ele>1543.4999999999998</ele><time>2026-05-02T16:18:10Z</time></trkpt><trkpt lat="44.85834295212029" lon="6.616074298063041"><ele>1544.0</ele><time>2026-05-02T16:18:11Z</time></trkpt><trkpt lat="44.85834735187594" lon="6.616178204767306"><ele>1543.9999999999998</ele><time>2026-05-02T16:18:12Z</time></trkpt><trkpt lat="44.85834732970486" lon="6.616284948120741"><ele>1544.0</ele><time>2026-05-02T16:18:13Z</time></trkpt><trkpt lat="44.858334182908365" lon="6.616389001750229"><ele>1544.0</ele><time>2026-05-02T16:18:14Z</time></trkpt><trkpt lat="44.8583279539424" lon="6.616518434573811"><ele>1544.0</ele><time>2026-05-02T16:18:15Z</time></trkpt><trkpt lat="44.85833273149655" lon="6.616648589559333"><ele>1543.9999999999998</ele><time>2026-05-02T16:18:16Z</time></trkpt><trkpt lat="44.858322416329365" lon="6.616767607087675"><ele>1544.0</ele><time>2026-05-02T16:18:17Z</time></trkpt><trkpt lat="44.858314011372435" lon="6.6168572987576555"><ele>1543.9999999999998</ele><time>2026-05-02T16:18:18Z</time></trkpt><trkpt lat="44.858288840223686" lon="6.616940409545207"><ele>1544.0</ele><time>2026-05-02T16:18:19Z</time></trkpt><trkpt lat="44.858237616636735" lon="6.617044663527291"><ele>1544.0</ele><time>2026-05-02T16:18:21Z</time></trkpt><trkpt lat="44.85823215887764" lon="6.617153060091123"><ele>1544.0</ele><time>2026-05-02T16:18:24Z</time></trkpt><trkpt lat="44.858292227622286" lon="6.617192080666485"><ele>1543.9999999999998</ele><time>2026-05-02T16:19:06Z</time></trkpt><trkpt lat="44.8583221539217" lon="6.617272111777197"><ele>1544.0</ele><time>2026-05-02T16:19:08Z</time></trkpt><trkpt lat="44.85836107618867" lon="6.617393385787713"><ele>1543.8000000000002</ele><time>2026-05-02T16:19:10Z</time></trkpt><trkpt lat="44.85841049941995" lon="6.617566765224231"><ele>1543.6000000000001</ele><time>2026-05-02T16:19:12Z</time></trkpt><trkpt lat="44.85844568324735" lon="6.6177036159309495"><ele>1543.4</ele><time>2026-05-02T16:19:14Z</time></trkpt><trkpt lat="44.858529037403116" lon="6.617748864960383"><ele>1543.2</ele><time>2026-05-02T16:19:15Z</time></trkpt><trkpt lat="44.85861799266516" lon="6.617834676409155"><ele>1543.0</ele><time>2026-05-02T16:19:17Z</time></trkpt><trkpt lat="44.858638939633586" lon="6.617987135580506"><ele>1536.6666666666667</ele><time>2026-05-02T16:19:19Z</time></trkpt><trkpt lat="44.85860619990328" lon="6.618147948239856"><ele>1530.3333333333335</ele><time>2026-05-02T16:19:21Z</time></trkpt><trkpt lat="44.85857741438713" lon="6.618229198115014"><ele>1524.0</ele><time>2026-05-02T16:19:22Z</time></trkpt><trkpt lat="44.858545345569" lon="6.618311141733392"><ele>1517.6666666666667</ele><time>2026-05-02T16:19:23Z</time></trkpt><trkpt lat="44.85852728184754" lon="6.618397487466171"><ele>1511.3333333333335</ele><time>2026-05-02T16:19:24Z</time></trkpt><trkpt lat="44.85850698464545" lon="6.6184962660039846"><ele>1505.0</ele><time>2026-05-02T16:19:25Z</time></trkpt><trkpt lat="44.85848620393584" lon="6.6186730876691735"><ele>1505.0</ele><time>2026-05-02T16:19:27Z</time></trkpt><trkpt lat="44.85847187319367" lon="6.618760252727418"><ele>1505.0</ele><time>2026-05-02T16:19:28Z</time></trkpt><trkpt lat="44.85845714980208" lon="6.618848863003986"><ele>1505.0</ele><time>2026-05-02T16:19:29Z</time></trkpt><trkpt lat="44.85845103215525" lon="6.6189411704396255"><ele>1505.0</ele><time>2026-05-02T16:19:30Z</time></trkpt><trkpt lat="44.85841602812535" lon="6.619052441468468"><ele>1505.0</ele><time>2026-05-02T16:19:31Z</time></trkpt><trkpt lat="44.858384037418865" lon="6.619147143477364"><ele>1505.0</ele><time>2026-05-02T16:19:32Z</time></trkpt><trkpt lat="44.85838044030115" lon="6.6192775814833915"><ele>1505.0</ele><time>2026-05-02T16:19:34Z</time></trkpt><trkpt lat="44.85848530356997" lon="6.619386563907355"><ele>1505.0</ele><time>2026-05-02T16:19:36Z</time></trkpt><trkpt lat="44.85855225840406" lon="6.619416013750724"><ele>1505.0</ele><time>2026-05-02T16:19:37Z</time></trkpt><trkpt lat="44.85860888474798" lon="6.619459418061016"><ele>1505.0</ele><time>2026-05-02T16:19:38Z</time></trkpt><trkpt lat="44.85868048193427" lon="6.619524374113433"><ele>1505.0</ele><time>2026-05-02T16:19:39Z</time></trkpt><trkpt lat="44.85874196202689" lon="6.619599193505646"><ele>1505.0</ele><time>2026-05-02T16:19:40Z</time></trkpt><trkpt lat="44.858771342209124" lon="6.619688865992524"><ele>1505.0</ele><time>2026-05-02T16:19:41Z</time></trkpt><trkpt lat="44.85879732929854" lon="6.619792930234338"><ele>1505.0</ele><time>2026-05-02T16:19:42Z</time></trkpt><trkpt lat="44.85882269076351" lon="6.619882473336315"><ele>1510.0</ele><time>2026-05-02T16:19:43Z</time></trkpt><trkpt lat="44.85885414698362" lon="6.619959601073927"><ele>1515.0</ele><time>2026-05-02T16:19:44Z</time></trkpt><trkpt lat="44.85890319314399" lon="6.620035610847921"><ele>1520.0</ele><time>2026-05-02T16:19:45Z</time></trkpt><trkpt lat="44.858975673841556" lon="6.620107582941246"><ele>1525.0</ele><time>2026-05-02T16:19:46Z</time></trkpt><trkpt lat="44.85907750243686" lon="6.620192651771133"><ele>1530.0</ele><time>2026-05-02T16:19:48Z</time></trkpt><trkpt lat="44.85915470628028" lon="6.62032666023772"><ele>1527.6</ele><time>2026-05-02T16:19:50Z</time></trkpt><trkpt lat="44.85920091252513" lon="6.620429480029172"><ele>1525.2</ele><time>2026-05-02T16:19:51Z</time></trkpt><trkpt lat="44.859243273392494" lon="6.62053982639494"><ele>1522.8000000000002</ele><time>2026-05-02T16:19:52Z</time></trkpt><trkpt lat="44.85928949010926" lon="6.620663627610515"><ele>1520.4</ele><time>2026-05-02T16:19:53Z</time></trkpt><trkpt lat="44.85933501669996" lon="6.620790836202746"><ele>1518.0</ele><time>2026-05-02T16:19:54Z</time></trkpt><trkpt lat="44.85937636420306" lon="6.620925232528591"><ele>1518.0</ele><time>2026-05-02T16:19:55Z</time></trkpt><trkpt lat="44.85940938024051" lon="6.621031704429817"><ele>1518.0</ele><time>2026-05-02T16:19:56Z</time></trkpt><trkpt lat="44.85945633542957" lon="6.621187671560262"><ele>1518.0</ele><time>2026-05-02T16:19:58Z</time></trkpt><trkpt lat="44.85947529214592" lon="6.621290524085696"><ele>1518.0</ele><time>2026-05-02T16:19:59Z</time></trkpt><trkpt lat="44.85949398251907" lon="6.621382756203647"><ele>1518.0</ele><time>2026-05-02T16:20:00Z</time></trkpt><trkpt lat="44.85949924738701" lon="6.621516473532979"><ele>1518.0</ele><time>2026-05-02T16:20:02Z</time></trkpt><trkpt lat="44.8595911064658" lon="6.621568779663422"><ele>1521.5</ele><time>2026-05-02T16:20:04Z</time></trkpt><trkpt lat="44.85965653499269" lon="6.621587097897741"><ele>1525.0</ele><time>2026-05-02T16:20:05Z</time></trkpt><trkpt lat="44.85972163382262" lon="6.621587492876153"><ele>1528.5</ele><time>2026-05-02T16:20:06Z</time></trkpt><trkpt lat="44.85981802631168" lon="6.621589158736262"><ele>1532.0</ele><time>2026-05-02T16:20:07Z</time></trkpt><trkpt lat="44.85989717738508" lon="6.621589209749239"><ele>1535.5</ele><time>2026-05-02T16:20:08Z</time></trkpt><trkpt lat="44.859971227826264" lon="6.6215554972470105"><ele>1539.0</ele><time>2026-05-02T16:20:09Z</time></trkpt><trkpt lat="44.86006332065049" lon="6.621549658672529"><ele>1537.8000000000002</ele><time>2026-05-02T16:20:11Z</time></trkpt><trkpt lat="44.86017129471866" lon="6.621631039960933"><ele>1536.6000000000001</ele><time>2026-05-02T16:20:13Z</time></trkpt><trkpt lat="44.860244678077265" lon="6.621697014685877"><ele>1535.4</ele><time>2026-05-02T16:20:14Z</time></trkpt><trkpt lat="44.86033968265561" lon="6.621839916249878"><ele>1534.2</ele><time>2026-05-02T16:20:16Z</time></trkpt><trkpt lat="44.8603922609102" lon="6.621924583268839"><ele>1533.0</ele><time>2026-05-02T16:20:17Z</time></trkpt><trkpt lat="44.86043706756356" lon="6.622000153533674"><ele>1533.0</ele><time>2026-05-02T16:20:18Z</time></trkpt><trkpt lat="44.86049555934511" lon="6.622067893328381"><ele>1533.0</ele><time>2026-05-02T16:20:19Z</time></trkpt><trkpt lat="44.86055680819025" lon="6.6221224545994515"><ele>1533.0</ele><time>2026-05-02T16:20:20Z</time></trkpt><trkpt lat="44.86062096239382" lon="6.622181073807152"><ele>1533.0</ele><time>2026-05-02T16:20:21Z</time></trkpt><trkpt lat="44.860676109921286" lon="6.622354411583058"><ele>1533.0</ele><time>2026-05-02T16:20:23Z</time></trkpt><trkpt lat="44.86071681948253" lon="6.622463469712062"><ele>1533.0</ele><time>2026-05-02T16:20:24Z</time></trkpt><trkpt lat="44.8607657188298" lon="6.622573725634842"><ele>1533.0</ele><time>2026-05-02T16:20:25Z</time></trkpt><trkpt lat="44.86082694396717" lon="6.622679698541083"><ele>1533.0</ele><time>2026-05-02T16:20:26Z</time></trkpt><trkpt lat="44.8608747615118" lon="6.622772145223276"><ele>1533.0</ele><time>2026-05-02T16:20:27Z</time></trkpt><trkpt lat="44.86092618629273" lon="6.622874208521405"><ele>1533.0</ele><time>2026-05-02T16:20:28Z</time></trkpt><trkpt lat="44.86098479677007" lon="6.623012916963962"><ele>1533.0</ele><time>2026-05-02T16:20:29Z</time></trkpt><trkpt lat="44.86104612102501" lon="6.623136526424077"><ele>1533.2</ele><time>2026-05-02T16:20:30Z</time></trkpt><trkpt lat="44.8610972989853" lon="6.623228806111005"><ele>1533.4</ele><time>2026-05-02T16:20:31Z</time></trkpt><trkpt lat="44.86115064791275" lon="6.623305776390323"><ele>1533.6000000000001</ele><time>2026-05-02T16:20:32Z</time></trkpt><trkpt lat="44.861223897839814" lon="6.6234133103300445"><ele>1533.8000000000002</ele><time>2026-05-02T16:20:34Z</time></trkpt><trkpt lat="44.861279831674075" lon="6.623531072159711"><ele>1534.0</ele><time>2026-05-02T16:20:36Z</time></trkpt><trkpt lat="44.86132570174825" lon="6.623672602809005"><ele>1534.0</ele><time>2026-05-02T16:20:38Z</time></trkpt><trkpt lat="44.86136042425506" lon="6.623774444082844"><ele>1534.0</ele><time>2026-05-02T16:20:39Z</time></trkpt><trkpt lat="44.86139909956045" lon="6.623847808633019"><ele>1534.0</ele><time>2026-05-02T16:20:40Z</time></trkpt><trkpt lat="44.86143697425938" lon="6.623918968720835"><ele>1534.0</ele><time>2026-05-02T16:20:41Z</time></trkpt><trkpt lat="44.86148516003322" lon="6.624034042222072"><ele>1534.0</ele><time>2026-05-02T16:20:43Z</time></trkpt><trkpt lat="44.861562901327304" lon="6.624128476795289"><ele>1534.0</ele><time>2026-05-02T16:20:45Z</time></trkpt><trkpt lat="44.86162592527587" lon="6.6241819480006185"><ele>1534.0</ele><time>2026-05-02T16:20:46Z</time></trkpt><trkpt lat="44.861674460975145" lon="6.624260464225044"><ele>1534.0</ele><time>2026-05-02T16:20:47Z</time></trkpt><trkpt lat="44.86171885355617" lon="6.624331684053443"><ele>1534.0</ele><time>2026-05-02T16:20:48Z</time></trkpt><trkpt lat="44.861756890626864" lon="6.624418027916726"><ele>1534.0</ele><time>2026-05-02T16:20:50Z</time></trkpt><trkpt lat="44.86176363356941" lon="6.624662881605549"><ele>1534.0</ele><time>2026-05-02T16:21:00Z</time></trkpt><trkpt lat="44.86176053519656" lon="6.624795208437118"><ele>1534.5</ele><time>2026-05-02T16:21:02Z</time></trkpt><trkpt lat="44.86178781671241" lon="6.624911804071898"><ele>1535.0</ele><time>2026-05-02T16:21:04Z</time></trkpt><trkpt lat="44.861791297474014" lon="6.625037081638645"><ele>1535.5</ele><time>2026-05-02T16:21:06Z</time></trkpt><trkpt lat="44.861796198854826" lon="6.625136613600477"><ele>1536.0</ele><time>2026-05-02T16:21:08Z</time></trkpt><trkpt lat="44.861774737899246" lon="6.625248880355093"><ele>1536.5000000000002</ele><time>2026-05-02T16:21:10Z</time></trkpt><trkpt lat="44.86171602201943" lon="6.625333775826882"><ele>1537.0</ele><time>2026-05-02T16:21:12Z</time></trkpt><trkpt lat="44.861624694482984" lon="6.625383565938428"><ele>1537.0</ele><time>2026-05-02T16:21:14Z</time></trkpt><trkpt lat="44.86154738053779" lon="6.625475983016161"><ele>1537.0</ele><time>2026-05-02T16:21:16Z</time></trkpt><trkpt lat="44.86149049794192" lon="6.625535684123808"><ele>1537.0</ele><time>2026-05-02T16:21:18Z</time></trkpt><trkpt lat="44.861403307404146" lon="6.625531862796226"><ele>1537.0</ele><time>2026-05-02T16:21:20Z</time></trkpt><trkpt lat="44.86129968000315" lon="6.625533322795445"><ele>1537.0</ele><time>2026-05-02T16:21:22Z</time></trkpt><trkpt lat="44.86121641420178" lon="6.625591405580486"><ele>1537.0000000000002</ele><time>2026-05-02T16:21:25Z</time></trkpt><trkpt lat="44.86115420834891" lon="6.625668069227308"><ele>1537.0</ele><time>2026-05-02T16:21:28Z</time></trkpt><trkpt lat="44.86111801538175" lon="6.6257698105370615"><ele>1537.0</ele><time>2026-05-02T16:21:30Z</time></trkpt><trkpt lat="44.861138508446444" lon="6.62585389599744"><ele>1537.0</ele><time>2026-05-02T16:21:31Z</time></trkpt><trkpt lat="44.86114992742613" lon="6.625944585921841"><ele>1537.0000000000002</ele><time>2026-05-02T16:21:32Z</time></trkpt><trkpt lat="44.861254887019854" lon="6.626060833986849"><ele>1537.0</ele><time>2026-05-02T16:21:34Z</time></trkpt><trkpt lat="44.8613335770023" lon="6.626185466152902"><ele>1539.0</ele><time>2026-05-02T16:21:36Z</time></trkpt><trkpt lat="44.8613949093915" lon="6.626303193841765"><ele>1541.0</ele><time>2026-05-02T16:21:38Z</time></trkpt><trkpt lat="44.86144152873048" lon="6.626416870226308"><ele>1543.0</ele><time>2026-05-02T16:21:40Z</time></trkpt><trkpt lat="44.861496811687225" lon="6.626511473208055"><ele>1545.0</ele><time>2026-05-02T16:21:42Z</time></trkpt><trkpt lat="44.86155767109004" lon="6.626567507939792"><ele>1547.0</ele><time>2026-05-02T16:21:44Z</time></trkpt><trkpt lat="44.861574433833646" lon="6.6267131664152785"><ele>1547.0</ele><time>2026-05-02T16:21:46Z</time></trkpt><trkpt lat="44.86153574204916" lon="6.626816477677793"><ele>1547.0</ele><time>2026-05-02T16:21:48Z</time></trkpt><trkpt lat="44.86149146877976" lon="6.626946008431702"><ele>1547.0</ele><time>2026-05-02T16:21:50Z</time></trkpt><trkpt lat="44.861496961768964" lon="6.627055140868275"><ele>1551.0</ele><time>2026-05-02T16:21:52Z</time></trkpt><trkpt lat="44.86153555802641" lon="6.627145208134203"><ele>1551.0</ele><time>2026-05-02T16:21:54Z</time></trkpt></trkseg></trk></gpx>